[[{"header":{"parameterUnit":"m.s-1","parameterCategory":1,"la1":31.0,"la2":29.5877,"lo1":-88.7671,"lo2":-86.6584,"dy":0.0162,"dx":0.0185,"nx":115,"ny":88,"refTime":"2024-04-30T12:00:00:Z","depth":0,"parameterNumber":2,"parameterNumberName":"U-component_of_WINDS"},"data":[0.0,0.0,0.0,0.0,0.0,0.0,0.0,0.0,0.0,0.0,0.0,0.0,0.0,0.0,0.0,0.0,0.0,0.0,0.0,0.0,0.0,0.0,0.0,0.0,0.0,0.0,0.0,0.0,0.0,0.0,0.0,0.0,0.0,0.0,0.0,0.0,0.0,0.0,0.0,0.0,0.0,0.0,0.0,0.0,0.0,0.0,0.0,0.0,0.0,0.0,0.0,0.0,0.0,0.0,0.0,0.0,0.0,0.0,0.0,0.0,0.0,0.0,0.0,0.0,0.0,0.0,0.0,0.0,0.0,0.0,0.0,0.0,0.0,0.0,0.0,0.0,0.0,0.0,0.0,0.0,0.0,0.0,0.0,0.0,0.0,0.0,0.0,0.0,0.0,0.0,0.0,0.0,0.0,0.0,0.0,0.0,0.0,0.0,0.0,0.0,0.0,0.0,0.0,0.0,0.0,0.0,0.0,0.0,0.0,0.0,0.0,0.0,0.0,0.0,0.0,0.0,0.0,0.0,0.0,0.0,0.0,0.0,0.0,0.0,0.0,0.0,0.0,0.0,0.0,0.0,0.0,0.0,0.0,0.0,0.0,0.0,0.0,0.0,0.0,0.0,0.0,0.0,0.0,0.0,0.0,0.0,0.0,0.0,0.0,0.0,0.0,0.0,0.0,0.0,0.0,0.0,0.0,0.0,0.0,0.0,0.0,0.0,0.0,0.0,0.0,0.0,0.0,0.0,0.0,0.0,0.0,0.0,0.0,0.0,0.0,0.0,0.0,0.0,0.0,0.0,0.0,0.0,0.0,0.0,0.0,0.0,0.0,0.0,0.0,0.0,0.0,0.0,0.0,0.0,0.0,0.0,0.0,0.0,0.0,0.0,0.0,0.0,0.0,0.0,0.0,0.0,0.0,0.0,0.0,0.0,0.0,0.0,0.0,0.0,0.0,0.0,0.0,0.0,0.0,0.0,0.0,0.0,0.0,0.0,0.0,0.0,0.0,0.0,0.0,0.0,0.0,0.0,0.0,0.0,0.0,0.0,0.0,0.0,0.0,0.0,0.0,0.0,0.0,0.0,0.0,0.0,0.0,0.0,0.0,0.0,0.0,0.0,0.0,0.0,0.0,0.0,0.0,0.0,0.0,0.0,0.0,0.0,0.0,0.0,0.0,0.0,0.0,0.0,0.0,0.0,0.0,0.0,0.0,0.0,0.0,0.0,0.0,0.0,0.0,0.0,0.0,0.0,0.0,0.0,0.0,0.0,0.0,0.0,0.0,0.0,0.0,0.0,0.0,0.0,0.0,0.0,0.0,0.0,0.0,0.0,0.0,0.0,0.0,0.0,0.0,0.0,0.0,0.0,0.0,0.0,0.0,0.0,0.0,0.0,0.0,0.0,0.0,0.0,0.0,0.0,0.0,0.0,0.0,0.0,0.0,0.0,0.0,0.0,0.0,0.0,0.0,0.0,0.0,0.0,0.0,0.0,0.0,0.0,0.0,0.0,0.0,0.0,0.0,0.0,0.0,0.0,0.0,0.0,0.0,0.0,0.0,0.0,0.0,0.0,0.0,0.0,0.0,0.0,0.0,0.0,0.0,0.0,0.0,0.0,0.0,0.0,0.0,0.0,0.0,0.0,0.0,0.0,0.0,0.0,0.0,0.0,0.0,0.0,0.0,0.0,0.0,0.0,0.0,0.0,0.0,0.0,0.0,0.0,0.0,0.0,0.0,0.0,0.0,0.0,0.0,0.0,0.0,0.0,0.0,0.0,0.0,0.0,0.0,0.0,0.0,0.0,0.0,0.0,0.0,0.0,0.0,0.0,0.0,0.0,0.0,0.0,0.0,0.0,0.0,0.0,0.0,0.0,0.0,0.0,0.0,0.0,0.0,0.0,0.0,0.0,0.0,0.0,0.0,0.0,0.0,0.0,0.0,0.0,0.0,0.0,0.0,0.0,0.0,0.0,0.0,0.0,0.0,0.0,0.0,0.0,0.0,0.0,0.0,0.0,0.0,0.0,0.0,0.0,0.0,0.0,0.0,0.0,0.0,0.0,0.0,0.0,0.0,0.0,0.0,0.0,0.0,0.0,0.0,0.0,0.0,0.0,0.0,0.0,0.0,0.0,0.0,0.0,0.0,0.0,0.0,0.0,0.0,0.0,0.0,0.0,0.0,0.0,0.0,0.0,0.0,0.0,0.0,0.0,0.0,0.0,0.0,0.0,0.0,0.0,0.0,0.0,0.0,0.0,0.0,0.0,0.0,0.0,0.0,0.0,0.0,0.0,0.0,0.0,0.0,0.0,0.0,0.0,0.0,0.0,0.0,0.0,0.0,0.0,0.0,0.0,0.0,0.0,0.0,0.0,0.0,0.0,0.0,0.0,0.0,0.0,0.0,0.0,0.0,0.0,0.0,0.0,0.0,0.0,0.0,0.0,0.0,0.0,0.0,0.0,0.0,0.0,0.0,0.0,0.0,0.0,0.0,0.0,0.0,0.0,0.0,0.0,0.0,0.0,0.0,0.0,0.0,0.0,0.0,0.0,0.0,0.0,0.0,0.0,0.0,0.0,0.0,0.0,0.0,0.0,0.0,0.0,0.0,0.0,0.0,0.0,0.0,0.0,0.0,0.0,0.0,0.0,0.0,0.0,0.0,0.0,0.0,0.0,0.0,0.0,0.0,0.0,0.0,0.0,0.0,0.0,0.0,0.0,0.0,0.0,0.0,0.0,0.0,0.0,0.0,0.0,0.0,0.0,0.0,0.0,0.0,0.0,0.0,0.0,0.0,0.0,0.0,0.0,0.0,0.0,0.0,0.0,0.0,0.0,0.0,0.0,0.0,0.0,0.0,0.0,0.0,0.0,0.0,0.0,0.0,0.0,0.0,0.0,0.0,0.0,0.0,0.0,0.0,0.0,0.0,0.0,0.0,0.0,0.0,0.0,0.0,0.0,0.0,0.0,0.0,0.0,0.0,0.0,0.0,0.0,0.0,0.0,0.0,0.0,0.0,0.0,0.0,0.0,0.0,0.0,0.0,0.0,0.0,0.0,0.0,0.0,0.0,0.0,0.0,0.0,0.0,0.0,0.0,0.0,0.0,0.0,0.0,0.0,0.0,0.0,0.0,0.0,0.0,0.0,0.0,0.0,0.0,0.0,0.0,0.0,0.0,0.0,0.0,0.0,0.0,0.0,0.0,0.0,0.0,0.0,0.0,0.0,0.0,0.0,0.0,0.0,0.0,0.0,0.0,0.0,0.0,0.0,0.0,0.0,0.0,0.0,0.0,0.0,0.0,0.0,0.0,0.0,0.0,0.0,0.0,0.0,0.0,0.0,0.0,0.0,0.0,0.0,0.0,0.0,0.0,0.0,0.0,0.0,0.0,0.0,0.0,0.0,0.0,0.0,0.0,0.0,0.0,0.0,0.0,0.0,0.0,0.0,0.0,0.0,0.0,0.0,0.0,0.0,0.0,0.0,0.0,0.0,0.0,0.0,0.0,0.0,0.0,0.0,0.0,0.0,0.0,0.0,0.0,0.0,0.0,0.0,0.0,0.0,0.0,0.0,0.0,0.0,0.0,0.0,0.0,0.0,0.0,0.0,0.0,0.0,0.0,0.0,0.0,0.0,0.0,0.0,0.0,0.0,0.0,0.0,0.0,0.0,0.0,0.0,0.0,0.0,0.0,0.0,0.0,0.0,0.0,0.0,0.0,0.0,0.0,0.0,0.0,0.0,0.0,0.0,0.0,0.0,0.0,0.0,0.0,0.0,0.0,0.0,0.0,0.0,0.0,0.0,0.0,0.0,0.0,0.0,0.0,0.0,0.0,0.0,0.0,0.0,0.0,0.0,0.0,0.0,0.0,0.0,0.0,0.0,0.0,0.0,0.0,0.0,0.0,0.0,0.0,0.0,0.0,0.0,0.0,0.0,0.0,0.0,0.0,0.0,0.0,0.0,0.0,0.0,0.0,0.0,0.0,0.0,0.0,0.0,0.0,0.0,0.0,0.0,0.0,0.0,0.0,0.0,0.0,0.0,0.0,0.0,0.0,0.0,0.0,0.0,0.0,0.0,0.0,0.0,0.0,0.0,0.0,0.0,0.0,0.0,0.0,0.0,0.0,0.0,0.0,0.0,0.0,0.0,0.0,0.0,0.0,0.0,0.0,0.0,0.0,0.0,0.0,0.0,0.0,0.0,0.0,0.0,0.0,0.0,0.0,0.0,0.0,0.0,0.0,0.0,0.0,0.0,0.0,0.0,0.0,0.0,0.0,0.0,0.0,0.0,-0.7896,0.0,0.0,0.0,0.0,0.0,0.0,0.0,0.0,0.0,0.0,0.0,0.0,0.0,0.0,0.0,0.0,0.0,0.0,0.0,0.0,0.0,0.0,0.0,0.0,0.0,0.0,0.0,0.0,0.0,0.0,0.0,0.0,0.0,0.0,0.0,0.0,0.0,0.0,0.0,0.0,0.0,0.0,0.0,0.0,0.0,0.0,0.0,0.0,0.0,0.0,0.0,0.0,0.0,0.0,0.0,0.0,0.0,0.0,0.0,0.0,0.0,0.0,0.0,0.0,0.0,0.0,0.0,0.0,0.0,0.0,0.0,0.0,0.0,0.0,0.0,0.0,0.0,0.0,0.0,0.0,0.0,0.0,0.0,0.0,0.0,0.0,0.0,0.0,0.0,0.0,0.0,0.0,0.0,0.0,0.0,0.0,0.0,0.0,0.0,0.0,0.0,0.0,0.0,0.0,0.0,0.0,0.0,0.0,0.0,0.0,-0.6834,-0.7812,-0.8917,-0.908,-0.8345,0.0,0.0,0.0,0.0,0.0,0.0,0.0,0.0,0.0,0.0,0.0,0.0,0.0,0.0,0.0,0.0,0.0,0.0,0.0,0.0,0.0,0.0,0.0,0.0,0.0,0.0,0.0,0.0,0.0,0.0,0.0,0.0,0.0,0.0,0.0,0.0,0.0,0.0,0.0,0.0,0.0,0.0,0.0,0.0,0.0,0.0,0.0,0.0,0.0,0.0,0.0,0.0,0.0,0.0,0.0,0.0,0.0,0.0,0.0,0.0,0.0,0.0,0.0,0.0,0.0,0.0,0.0,0.0,0.0,0.0,0.0,0.0,0.0,0.0,0.0,0.0,0.0,0.0,0.0,0.0,0.0,0.0,0.0,0.0,0.0,0.0,0.0,0.0,0.0,0.0,0.0,0.0,0.0,0.0,0.0,0.0,0.0,0.0,0.0,0.0,0.0,0.0,0.0,0.0,0.0,0.0,0.0,0.0,0.0,0.0,0.0,0.0,-1.0291,-1.0553,-0.9438,0.0,0.0,0.0,0.0,0.0,0.0,0.0,0.0,0.0,0.0,0.0,0.0,0.0,0.0,0.0,0.0,0.0,0.0,0.0,0.0,0.0,0.0,0.0,0.0,0.0,0.0,0.0,0.0,0.0,0.0,0.0,0.0,0.0,0.0,0.0,0.0,0.0,0.0,0.0,0.0,0.0,0.0,0.0,0.0,0.0,0.0,0.0,0.0,0.0,0.0,0.0,0.0,0.0,0.0,0.0,0.0,0.0,0.0,0.0,0.0,0.0,0.0,0.0,0.0,0.0,0.0,0.0,0.0,0.0,0.0,0.0,0.0,0.0,0.0,0.0,0.0,0.0,0.0,0.0,0.0,0.0,0.0,0.0,0.0,0.0,0.0,0.0,0.0,0.0,0.0,0.0,0.0,0.0,0.0,0.0,0.0,0.0,0.0,0.0,0.0,0.0,0.0,0.0,0.0,0.0,0.0,0.0,0.0,0.0,0.0,-0.8763,-0.8836,-1.0877,0.0,-1.2148,0.0,0.0,0.0,0.0,0.0,0.0,0.0,0.0,0.0,0.0,0.0,0.0,0.0,0.0,0.0,0.0,0.0,0.0,0.0,0.0,0.0,0.0,0.0,0.0,0.0,0.0,0.0,0.0,0.0,0.0,0.0,0.0,0.0,0.0,0.0,0.0,0.0,0.0,0.0,0.0,0.0,0.0,0.0,0.0,0.0,0.0,0.0,0.0,0.0,0.0,0.0,0.0,0.0,0.0,0.0,0.0,0.0,0.0,0.0,0.0,0.0,0.0,0.0,0.0,0.0,0.0,0.0,0.0,0.0,0.0,0.0,0.0,0.0,0.0,0.0,0.0,0.0,0.0,0.0,0.0,0.0,0.0,0.0,0.0,0.0,0.0,0.0,0.0,0.0,0.0,0.0,0.0,0.0,0.0,0.0,0.0,0.0,0.0,0.0,0.0,0.0,0.0,0.0,0.0,0.0,0.0,0.0,0.0,0.0,0.0,-0.9552,-0.8831,-1.1064,-1.2405,0.0,0.0,0.0,0.0,0.0,0.0,0.0,0.0,0.0,0.0,0.0,0.0,0.0,0.0,0.0,0.0,0.0,0.0,0.0,0.0,0.0,0.0,0.0,0.0,0.0,0.0,0.0,0.0,0.0,0.0,0.0,0.0,0.0,0.0,0.0,0.0,0.0,0.0,0.0,0.0,0.0,0.0,0.0,0.0,0.0,0.0,0.0,0.0,0.0,0.0,0.0,0.0,0.0,0.0,0.0,0.0,0.0,0.0,0.0,0.0,0.0,0.0,0.0,0.0,0.0,0.0,0.0,0.0,0.0,0.0,0.0,0.0,0.0,0.0,0.0,0.0,0.0,0.0,0.0,0.0,0.0,0.0,0.0,0.0,0.0,0.0,0.0,0.0,0.0,0.0,0.0,0.0,0.0,0.0,0.0,0.0,0.0,0.0,0.0,0.0,0.0,0.0,0.0,0.0,0.0,0.0,0.0,0.0,0.0,0.0,-1.0812,-1.108,-1.0841,-1.2271,-1.3109,-1.3283,0.0,0.0,0.0,0.0,0.0,0.0,0.0,0.0,0.0,0.0,0.0,0.0,0.0,0.0,0.0,0.0,0.0,0.0,0.0,0.0,0.0,0.0,0.0,0.0,0.0,0.0,0.0,0.0,0.0,0.0,0.0,0.0,0.0,0.0,0.0,0.0,0.0,0.0,0.0,0.0,0.0,0.0,0.0,0.0,0.0,0.0,0.0,0.0,0.0,0.0,0.0,0.0,0.0,0.0,0.0,0.0,0.0,0.0,0.0,0.0,0.0,0.0,0.0,0.0,0.0,0.0,0.0,0.0,0.0,0.0,0.0,0.0,0.0,0.0,0.0,0.0,0.0,0.0,0.0,0.0,0.0,0.0,0.0,0.0,0.0,0.0,0.0,0.0,0.0,0.0,0.0,0.0,0.0,0.0,0.0,0.0,0.0,0.0,0.0,0.0,0.0,0.0,0.0,0.0,0.0,0.0,0.0,0.0,-1.2578,-1.2733,-1.3741,-1.5539,-1.5011,-1.4499,0.0,0.0,0.0,0.0,0.0,0.0,0.0,0.0,0.0,0.0,0.0,0.0,0.0,0.0,0.0,0.0,0.0,0.0,0.0,0.0,0.0,0.0,0.0,0.0,0.0,0.0,0.0,0.0,0.0,0.0,0.0,0.0,0.0,0.0,0.0,0.0,0.0,0.0,0.0,0.0,0.0,0.0,0.0,0.0,0.0,0.0,0.0,0.0,0.0,0.0,0.0,0.0,0.0,0.0,0.0,0.0,0.0,0.0,0.0,0.0,0.0,0.0,0.0,0.0,0.0,0.0,0.0,0.0,0.0,0.0,0.0,0.0,0.0,0.0,0.0,0.0,0.0,0.0,0.0,0.0,0.0,0.0,0.0,0.0,0.0,0.0,0.0,0.0,0.0,0.0,0.0,0.0,0.0,0.0,0.0,0.0,0.0,0.0,0.0,0.0,0.0,0.0,0.0,0.0,0.0,0.0,0.0,0.0,0.0,-1.2871,-1.3936,-1.5812,-1.8426,-1.681,-1.5665,0.0,0.0,0.0,0.0,0.0,0.0,0.0,0.0,0.0,0.0,0.0,0.0,0.0,0.0,0.0,0.0,0.0,0.0,0.0,0.0,0.0,0.0,0.0,0.0,0.0,0.0,0.0,0.0,0.0,0.0,0.0,0.0,0.0,0.0,0.0,0.0,0.0,0.0,0.0,0.0,0.0,0.0,0.0,0.0,0.0,0.0,0.0,0.0,0.0,0.0,0.0,0.0,0.0,0.0,0.0,0.0,0.0,0.0,0.0,0.0,0.0,0.0,0.0,0.0,0.0,0.0,0.0,0.0,0.0,0.0,0.0,0.0,0.0,0.0,0.0,0.0,0.0,0.0,0.0,0.0,0.0,0.0,0.0,0.0,0.0,0.0,0.0,0.0,0.0,0.0,0.0,0.0,0.0,0.0,0.0,0.0,0.0,0.0,0.0,0.0,0.0,0.0,0.0,0.0,0.0,0.0,0.0,0.0,0.0,-1.292,0.0,-1.6321,-1.9855,-1.8866,-1.7564,0.0,0.0,0.0,0.0,0.0,0.0,0.0,0.0,0.0,0.0,0.0,0.0,0.0,0.0,0.0,0.0,0.0,0.0,0.0,0.0,0.0,0.0,0.0,0.0,0.0,0.0,0.0,0.0,0.0,0.0,0.0,0.0,0.0,0.0,0.0,0.0,0.0,0.0,0.0,0.0,0.0,0.0,0.0,0.0,0.0,0.0,0.0,0.0,0.0,0.0,0.0,0.0,0.0,0.0,0.0,0.0,0.0,0.0,0.0,0.0,0.0,0.0,0.0,0.0,0.0,0.0,0.0,0.0,0.0,0.0,0.0,0.0,0.0,0.0,0.0,0.0,0.0,0.0,0.0,0.0,0.0,0.0,0.0,0.0,0.0,0.0,0.0,0.0,0.0,0.0,0.0,0.0,0.0,0.0,0.0,0.0,0.0,0.0,0.0,0.0,0.0,0.0,0.0,0.0,0.0,0.0,0.0,0.0,-1.2949,-1.3027,-1.3125,-1.5527,-1.9943,-2.099,-2.0271,0.0,0.0,0.0,0.0,0.0,0.0,0.0,0.0,0.0,0.0,0.0,0.0,0.0,0.0,0.0,0.0,0.0,0.0,0.0,0.0,0.0,0.0,0.0,0.0,0.0,0.0,0.0,0.0,0.0,0.0,0.0,0.0,0.0,0.0,0.0,0.0,0.0,0.0,0.0,0.0,0.0,0.0,0.0,0.0,0.0,0.0,0.0,0.0,0.0,0.0,0.0,0.0,0.0,0.0,0.0,0.0,0.0,0.0,0.0,0.0,0.0,0.0,0.0,0.0,0.0,0.0,0.0,0.0,0.0,0.0,0.0,0.0,0.0,0.0,0.0,0.0,0.0,0.0,0.0,0.0,0.0,0.0,0.0,0.0,0.0,0.0,0.0,0.0,0.0,0.0,0.0,0.0,0.0,0.0,0.0,0.0,0.0,0.0,0.0,0.0,0.0,0.0,0.0,0.0,0.0,0.0,0.0,0.0,0.0,-1.7553,-1.7639,-1.8714,-2.094,-2.0781,-2.0117,0.0,0.0,0.0,0.0,0.0,0.0,0.0,0.0,0.0,0.0,0.0,0.0,0.0,0.0,0.0,0.0,0.0,0.0,0.0,0.0,0.0,0.0,0.0,0.0,0.0,0.0,0.0,0.0,0.0,0.0,0.0,0.0,0.0,0.0,0.0,0.0,0.0,0.0,0.0,0.0,0.0,0.0,0.0,0.0,0.0,0.0,0.0,0.0,0.0,0.0,0.0,0.0,0.0,0.0,0.0,0.0,0.0,0.0,0.0,0.0,0.0,0.0,0.0,0.0,0.0,0.0,0.0,0.0,0.0,0.0,0.0,0.0,0.0,0.0,0.0,0.0,0.0,0.0,0.0,0.0,0.0,0.0,0.0,0.0,0.0,0.0,0.0,0.0,0.0,0.0,0.0,0.0,0.0,0.0,0.0,0.0,0.0,0.0,0.0,0.0,0.0,0.0,0.0,0.0,0.0,0.0,0.0,0.0,0.0,-1.8434,-1.9384,-1.9949,-2.0263,-2.0466,-2.0303,-1.9587,0.0,0.0,0.0,0.0,0.0,0.0,0.0,0.0,0.0,0.0,0.0,0.0,0.0,0.0,0.0,0.0,0.0,0.0,0.0,0.0,0.0,0.0,0.0,0.0,0.0,0.0,0.0,0.0,0.0,0.0,0.0,0.0,0.0,0.0,0.0,0.0,0.0,0.0,0.0,0.0,0.0,0.0,0.0,0.0,0.0,0.0,0.0,0.0,0.0,0.0,0.0,0.0,0.0,0.0,0.0,0.0,0.0,0.0,0.0,0.0,0.0,0.0,0.0,0.0,0.0,0.0,0.0,0.0,0.0,0.0,0.0,0.0,0.0,0.0,0.0,0.0,0.0,0.0,0.0,0.0,0.0,0.0,0.0,0.0,0.0,0.0,0.0,0.0,0.0,0.0,0.0,0.0,0.0,0.0,0.0,0.0,0.0,0.0,0.0,0.0,0.0,0.0,0.0,0.0,0.0,0.0,0.0,0.0,-1.625,-1.8607,-1.9334,-1.8405,-2.0278,-2.0654,0.0,0.0,0.0,0.0,0.0,0.0,0.0,0.0,0.0,0.0,0.0,0.0,0.0,0.0,0.0,0.0,0.0,0.0,0.0,0.0,0.0,0.0,0.0,0.0,0.0,0.0,0.0,0.0,0.0,0.0,0.0,0.0,0.0,0.0,0.0,0.0,0.0,0.0,0.0,0.0,0.0,0.0,0.0,0.0,0.0,0.0,0.0,0.0,0.0,0.0,0.0,0.0,0.0,0.0,0.0,0.0,0.0,0.0,0.0,0.0,0.0,0.0,0.0,0.0,0.0,0.0,0.0,0.0,0.0,0.0,0.0,0.0,0.0,0.0,0.0,0.0,0.0,0.0,0.0,0.0,0.0,0.0,0.0,0.0,0.0,0.0,0.0,0.0,0.0,0.0,0.0,0.0,0.0,0.0,0.0,0.0,0.0,0.0,0.0,0.0,0.0,0.0,0.0,0.0,0.0,0.0,0.0,0.0,0.0,-1.4041,-1.7745,-1.9673,-1.9384,-1.9183,-1.9459,0.0,0.0,0.0,0.0,0.0,0.0,0.0,0.0,0.0,0.0,0.0,0.0,0.0,0.0,0.0,0.0,0.0,0.0,0.0,0.0,0.0,0.0,0.0,0.0,0.0,0.0,0.0,0.0,0.0,0.0,0.0,0.0,0.0,0.0,0.0,0.0,0.0,0.0,0.0,0.0,0.0,0.0,0.0,0.0,0.0,0.0,0.0,0.0,0.0,0.0,0.0,0.0,0.0,0.0,0.0,0.0,0.0,0.0,0.0,0.0,0.0,0.0,0.0,0.0,0.0,0.0,0.0,0.0,0.0,0.0,0.0,0.0,0.0,0.0,0.0,0.0,0.0,0.0,0.0,0.0,0.0,0.0,0.0,0.0,0.0,0.0,0.0,0.0,0.0,0.0,0.0,0.0,0.0,0.0,0.0,0.0,0.0,0.0,0.0,0.0,0.0,0.0,0.0,0.0,0.0,0.0,0.0,0.0,-1.6771,-1.4512,-1.7944,-1.9798,-1.9798,-1.9208,-1.9231,0.0,0.0,0.0,0.0,0.0,0.0,0.0,0.0,0.0,0.0,0.0,0.0,0.0,0.0,0.0,0.0,0.0,0.0,0.0,0.0,0.0,0.0,0.0,0.0,0.0,0.0,0.0,0.0,0.0,0.0,0.0,0.0,0.0,0.0,0.0,0.0,0.0,0.0,0.0,0.0,0.0,0.0,0.0,0.0,0.0,0.0,0.0,0.0,0.0,0.0,0.0,0.0,0.0,0.0,0.0,0.0,0.0,0.0,0.0,0.0,0.0,0.0,0.0,0.0,0.0,0.0,0.0,0.0,0.0,0.0,0.0,0.0,0.0,0.0,0.0,0.0,0.0,0.0,0.0,0.0,0.0,0.0,0.0,0.0,0.0,0.0,0.0,0.0,0.0,0.0,0.0,0.0,0.0,0.0,0.0,0.0,0.0,0.0,0.0,0.0,0.0,0.0,0.0,0.0,0.0,0.0,0.0,0.0,-1.8618,-1.6892,-1.8781,-1.985,-1.9991,-1.9991,-1.9731,0.0,0.0,0.0,0.0,0.0,0.0,0.0,0.0,0.0,0.0,0.0,0.0,0.0,0.0,0.0,0.0,0.0,0.0,0.0,0.0,0.0,0.0,0.0,0.0,0.0,0.0,0.0,0.0,0.0,0.0,0.0,0.0,0.0,0.0,0.0,0.0,0.0,0.0,0.0,0.0,0.0,0.0,0.0,0.0,0.0,0.0,0.0,0.0,0.0,0.0,0.0,0.0,0.0,0.0,0.0,0.0,0.0,0.0,0.0,0.0,0.0,0.0,0.0,0.0,0.0,0.0,0.0,0.0,0.0,0.0,0.0,0.0,0.0,0.0,0.0,0.0,0.0,0.0,0.0,0.0,0.0,0.0,0.0,0.0,0.0,0.0,0.0,0.0,0.0,0.0,0.0,0.0,0.0,0.0,0.0,0.0,0.0,0.0,0.0,0.0,0.0,0.0,0.0,0.0,0.0,0.0,0.0,0.0,-1.784,-1.9083,-1.956,-2.0283,-2.1266,-2.1266,-2.0571,0.0,0.0,0.0,0.0,0.0,0.0,0.0,0.0,0.0,0.0,0.0,0.0,0.0,0.0,0.0,0.0,0.0,0.0,0.0,0.0,0.0,0.0,0.0,0.0,0.0,0.0,0.0,0.0,0.0,0.0,0.0,0.0,0.0,0.0,0.0,0.0,0.0,0.0,0.0,0.0,0.0,0.0,0.0,0.0,0.0,0.0,0.0,0.0,-4.8789,0.0,0.0,0.0,0.0,0.0,0.0,0.0,0.0,0.0,0.0,0.0,0.0,0.0,0.0,0.0,0.0,0.0,0.0,0.0,0.0,0.0,0.0,0.0,0.0,0.0,0.0,0.0,0.0,0.0,0.0,0.0,0.0,0.0,0.0,0.0,0.0,0.0,0.0,0.0,0.0,0.0,0.0,0.0,0.0,0.0,0.0,0.0,0.0,0.0,0.0,0.0,0.0,0.0,0.0,0.0,0.0,0.0,0.0,0.0,-1.8631,-1.9761,-1.9798,-2.0718,-2.2525,-2.263,-2.1513,0.0,0.0,0.0,0.0,0.0,0.0,0.0,0.0,0.0,0.0,0.0,0.0,0.0,0.0,0.0,0.0,0.0,0.0,0.0,0.0,0.0,0.0,0.0,0.0,0.0,0.0,0.0,0.0,0.0,0.0,0.0,0.0,0.0,0.0,0.0,0.0,0.0,0.0,0.0,0.0,0.0,0.0,0.0,0.0,0.0,0.0,0.0,0.0,0.0,0.0,0.0,0.0,0.0,0.0,0.0,0.0,0.0,0.0,0.0,0.0,0.0,0.0,0.0,0.0,0.0,0.0,0.0,0.0,0.0,0.0,0.0,0.0,0.0,0.0,0.0,0.0,0.0,0.0,0.0,0.0,0.0,0.0,0.0,0.0,0.0,0.0,0.0,0.0,0.0,0.0,0.0,0.0,0.0,0.0,0.0,0.0,0.0,0.0,0.0,0.0,0.0,0.0,0.0,0.0,0.0,0.0,0.0,-1.9582,-1.9798,-1.9798,-1.9798,-2.1119,-2.3884,-2.3406,-2.1899,-1.9494,0.0,0.0,0.0,0.0,0.0,0.0,0.0,0.0,0.0,0.0,0.0,0.0,0.0,0.0,0.0,0.0,0.0,0.0,0.0,0.0,0.0,0.0,0.0,0.0,0.0,0.0,0.0,0.0,0.0,0.0,0.0,0.0,0.0,0.0,0.0,0.0,0.0,0.0,-3.838,-4.2266,0.0,0.0,0.0,0.0,0.0,0.0,0.0,0.0,-4.7539,0.0,0.0,0.0,0.0,0.0,0.0,0.0,0.0,0.0,0.0,0.0,0.0,0.0,0.0,0.0,0.0,0.0,0.0,0.0,0.0,0.0,0.0,0.0,0.0,0.0,0.0,0.0,0.0,0.0,0.0,0.0,0.0,0.0,0.0,0.0,0.0,0.0,0.0,0.0,0.0,0.0,0.0,0.0,0.0,0.0,0.0,0.0,0.0,0.0,0.0,0.0,0.0,0.0,0.0,0.0,0.0,-1.7005,-1.8862,-1.9798,-1.9798,-1.9798,-2.1562,-2.5041,-2.2366,-2.0555,-2.0086,0.0,0.0,0.0,0.0,0.0,0.0,0.0,0.0,0.0,0.0,0.0,0.0,0.0,0.0,0.0,0.0,0.0,0.0,0.0,0.0,0.0,0.0,0.0,0.0,0.0,0.0,0.0,0.0,0.0,0.0,0.0,0.0,0.0,0.0,0.0,0.0,0.0,0.0,0.0,-4.4742,-4.6891,0.0,0.0,0.0,0.0,0.0,0.0,0.0,0.0,-4.6543,0.0,0.0,0.0,0.0,0.0,0.0,0.0,0.0,0.0,0.0,0.0,0.0,0.0,0.0,0.0,0.0,0.0,0.0,0.0,0.0,0.0,0.0,0.0,0.0,0.0,0.0,0.0,0.0,0.0,0.0,0.0,0.0,0.0,0.0,0.0,0.0,0.0,0.0,0.0,0.0,0.0,0.0,0.0,0.0,0.0,0.0,0.0,0.0,0.0,0.0,0.0,0.0,0.0,0.0,0.0,-1.6535,-1.8694,-1.9798,-1.9798,-1.9798,-2.1305,-2.4372,-2.2386,-2.1023,0.0,0.0,0.0,0.0,0.0,0.0,0.0,0.0,0.0,0.0,0.0,0.0,0.0,0.0,0.0,0.0,0.0,0.0,0.0,0.0,0.0,0.0,0.0,0.0,0.0,0.0,0.0,0.0,0.0,0.0,0.0,0.0,0.0,0.0,0.0,0.0,0.0,0.0,0.0,0.0,-4.4994,-4.6561,-4.6026,0.0,0.0,0.0,0.0,0.0,0.0,-4.6787,-4.719,0.0,0.0,0.0,0.0,0.0,0.0,0.0,0.0,0.0,0.0,0.0,0.0,0.0,0.0,0.0,0.0,0.0,0.0,0.0,0.0,0.0,0.0,0.0,0.0,0.0,0.0,0.0,0.0,0.0,0.0,0.0,0.0,0.0,0.0,0.0,0.0,0.0,0.0,0.0,0.0,0.0,0.0,0.0,0.0,0.0,0.0,0.0,0.0,0.0,0.0,0.0,0.0,0.0,0.0,0.0,-1.7167,-1.8907,-1.9798,-1.9811,-2.0823,-2.222,-2.3911,-2.2489,-2.1499,0.0,0.0,0.0,0.0,0.0,0.0,0.0,0.0,0.0,0.0,0.0,0.0,0.0,0.0,0.0,0.0,0.0,0.0,0.0,0.0,0.0,0.0,0.0,0.0,0.0,0.0,0.0,0.0,0.0,0.0,0.0,0.0,0.0,0.0,0.0,0.0,0.0,0.0,0.0,0.0,0.0,-4.6042,-4.5848,-4.6346,0.0,0.0,0.0,0.0,-4.659,-4.825,0.0,0.0,0.0,0.0,0.0,0.0,0.0,0.0,0.0,0.0,0.0,0.0,0.0,0.0,0.0,0.0,0.0,0.0,0.0,0.0,0.0,0.0,0.0,0.0,0.0,0.0,0.0,0.0,0.0,0.0,0.0,0.0,0.0,0.0,0.0,0.0,0.0,0.0,0.0,0.0,0.0,0.0,0.0,0.0,0.0,0.0,0.0,0.0,0.0,0.0,0.0,0.0,0.0,0.0,0.0,0.0,-1.9346,-1.9673,-1.9798,-1.9989,-2.4323,-2.6298,-2.5344,-2.2116,-2.0502,0.0,0.0,0.0,0.0,0.0,0.0,0.0,0.0,0.0,0.0,0.0,0.0,0.0,0.0,0.0,0.0,0.0,0.0,0.0,0.0,0.0,0.0,0.0,0.0,0.0,0.0,0.0,0.0,0.0,0.0,0.0,0.0,0.0,0.0,0.0,0.0,0.0,0.0,0.0,0.0,0.0,-4.6803,-4.5932,-4.7213,-4.7794,0.0,0.0,-4.6741,-4.9644,-5.1702,0.0,0.0,0.0,0.0,0.0,0.0,0.0,0.0,0.0,0.0,0.0,0.0,0.0,0.0,0.0,0.0,0.0,0.0,0.0,0.0,0.0,0.0,0.0,0.0,0.0,0.0,0.0,0.0,0.0,0.0,0.0,0.0,0.0,0.0,0.0,0.0,0.0,0.0,0.0,0.0,0.0,0.0,0.0,0.0,0.0,0.0,0.0,0.0,0.0,0.0,0.0,0.0,0.0,0.0,0.0,-1.7601,-1.9762,-2.1232,-2.1979,-2.2039,-2.5315,-2.5926,-2.3443,-2.0576,-1.915,0.0,0.0,0.0,0.0,0.0,0.0,0.0,0.0,0.0,0.0,0.0,0.0,0.0,0.0,0.0,0.0,0.0,0.0,0.0,0.0,0.0,0.0,0.0,0.0,0.0,0.0,0.0,0.0,0.0,0.0,0.0,0.0,0.0,0.0,0.0,0.0,0.0,0.0,0.0,0.0,0.0,0.0,-4.6317,-4.8342,0.0,0.0,0.0,-4.8692,-4.9248,0.0,0.0,0.0,0.0,0.0,0.0,0.0,0.0,0.0,0.0,0.0,0.0,0.0,0.0,0.0,0.0,0.0,0.0,0.0,0.0,0.0,0.0,0.0,0.0,0.0,0.0,0.0,0.0,0.0,0.0,0.0,0.0,0.0,0.0,0.0,0.0,0.0,0.0,0.0,0.0,0.0,0.0,0.0,0.0,0.0,0.0,0.0,0.0,0.0,0.0,0.0,0.0,0.0,0.0,0.0,0.0,0.0,-1.8994,-2.205,-2.4197,-2.5477,-2.6274,-2.5217,-2.2148,-1.9586,0.0,0.0,0.0,0.0,0.0,0.0,0.0,0.0,0.0,0.0,0.0,0.0,0.0,0.0,0.0,0.0,0.0,0.0,0.0,0.0,0.0,0.0,0.0,0.0,0.0,0.0,0.0,-3.16,0.0,0.0,0.0,0.0,0.0,0.0,0.0,0.0,0.0,0.0,0.0,0.0,0.0,0.0,-4.5493,-4.7009,-4.9202,-4.9779,0.0,0.0,-5.0272,-4.9094,-4.8815,-4.8894,0.0,0.0,0.0,0.0,0.0,0.0,0.0,0.0,0.0,0.0,0.0,0.0,0.0,0.0,0.0,0.0,0.0,0.0,0.0,0.0,0.0,0.0,0.0,0.0,0.0,0.0,0.0,0.0,0.0,0.0,0.0,0.0,0.0,0.0,0.0,0.0,0.0,0.0,0.0,0.0,0.0,0.0,0.0,0.0,0.0,0.0,0.0,0.0,0.0,0.0,0.0,0.0,0.0,0.0,-1.437,-1.6785,-2.1269,-2.5921,-3.0381,-2.8075,-2.5546,-2.3138,-1.985,-1.8053,0.0,0.0,0.0,0.0,0.0,0.0,0.0,0.0,0.0,0.0,0.0,0.0,0.0,0.0,0.0,0.0,0.0,0.0,0.0,0.0,0.0,0.0,0.0,0.0,0.0,0.0,0.0,0.0,0.0,0.0,0.0,0.0,0.0,0.0,0.0,0.0,0.0,0.0,0.0,0.0,0.0,-4.7875,-4.799,-4.9548,-5.0606,0.0,-5.0529,-5.0663,-5.0544,-5.0509,-4.949,-4.6451,0.0,0.0,0.0,0.0,0.0,0.0,0.0,0.0,0.0,0.0,0.0,0.0,0.0,0.0,0.0,0.0,0.0,0.0,0.0,0.0,0.0,0.0,0.0,0.0,0.0,0.0,0.0,0.0,0.0,0.0,0.0,0.0,0.0,0.0,0.0,0.0,0.0,0.0,0.0,0.0,0.0,0.0,0.0,0.0,0.0,0.0,0.0,0.0,0.0,0.0,0.0,0.0,0.0,-1.4029,-1.6396,-2.2415,-2.6908,-2.9633,-2.7797,-2.4958,-2.1401,-1.9237,-1.7555,0.0,0.0,0.0,0.0,0.0,0.0,0.0,0.0,0.0,0.0,0.0,0.0,0.0,0.0,0.0,0.0,0.0,0.0,0.0,0.0,0.0,0.0,0.0,0.0,0.0,0.0,0.0,0.0,-3.4422,-3.3987,-3.216,0.0,0.0,0.0,0.0,0.0,0.0,0.0,0.0,0.0,0.0,-4.8974,-4.9019,-4.9987,0.0,0.0,-5.0683,-5.0683,-5.0683,-5.0683,-5.026,-4.8933,-4.8486,0.0,0.0,0.0,0.0,0.0,0.0,0.0,0.0,0.0,0.0,0.0,0.0,0.0,0.0,0.0,0.0,0.0,0.0,0.0,0.0,0.0,0.0,0.0,0.0,0.0,0.0,0.0,0.0,0.0,0.0,0.0,0.0,0.0,0.0,0.0,0.0,0.0,0.0,0.0,0.0,0.0,0.0,0.0,0.0,0.0,0.0,0.0,0.0,0.0,0.0,0.0,0.0,-1.4139,-1.6695,-2.3731,-2.7672,-2.8272,-2.6672,-2.3959,-2.0259,-1.8494,-1.7053,0.0,0.0,0.0,0.0,0.0,0.0,0.0,0.0,0.0,0.0,0.0,0.0,0.0,0.0,0.0,0.0,0.0,0.0,0.0,0.0,0.0,0.0,0.0,0.0,0.0,0.0,0.0,0.0,-3.4603,-3.4353,-3.3757,0.0,0.0,0.0,0.0,0.0,0.0,0.0,0.0,0.0,0.0,-5.0013,-5.0007,-5.0405,-5.0683,-5.0683,-5.0683,-5.1048,-5.2029,-5.1779,-5.1047,-4.9827,0.0,0.0,0.0,0.0,0.0,0.0,0.0,0.0,0.0,0.0,0.0,0.0,0.0,0.0,0.0,0.0,0.0,0.0,0.0,0.0,0.0,0.0,0.0,0.0,0.0,0.0,0.0,0.0,0.0,0.0,0.0,0.0,0.0,0.0,0.0,0.0,0.0,0.0,0.0,0.0,0.0,0.0,0.0,0.0,0.0,0.0,0.0,0.0,0.0,0.0,0.0,0.0,0.0,-1.4462,-1.7584,-2.5,-2.8166,-2.6724,-2.4721,-2.2539,-2.0059,-1.7761,-1.6484,-1.6336,0.0,0.0,0.0,0.0,0.0,0.0,0.0,0.0,0.0,0.0,0.0,0.0,0.0,0.0,0.0,0.0,0.0,0.0,0.0,0.0,0.0,0.0,0.0,0.0,0.0,0.0,-3.5463,-3.5488,-3.5507,0.0,0.0,0.0,0.0,0.0,0.0,0.0,0.0,0.0,-4.7425,-4.9458,-5.1083,-5.086,-5.0771,-5.0702,-5.0683,-5.0741,-5.1837,-5.4914,-5.4107,-5.1785,0.0,0.0,0.0,0.0,0.0,0.0,0.0,0.0,0.0,0.0,0.0,0.0,0.0,0.0,0.0,0.0,0.0,0.0,0.0,0.0,0.0,0.0,0.0,0.0,0.0,0.0,0.0,0.0,0.0,0.0,0.0,0.0,0.0,0.0,0.0,0.0,0.0,0.0,0.0,0.0,-1.0047,-1.2224,0.0,0.0,0.0,0.0,0.0,0.0,0.0,0.0,0.0,0.0,0.0,0.0,-1.5266,-1.7768,-2.4116,-2.6572,-2.4681,-2.3933,-2.1325,-1.6667,-1.6511,-1.6324,-1.5884,0.0,0.0,0.0,0.0,0.0,0.0,0.0,0.0,0.0,0.0,0.0,0.0,0.0,0.0,0.0,0.0,0.0,0.0,0.0,0.0,0.0,0.0,0.0,0.0,0.0,-3.5777,0.0,0.0,0.0,0.0,0.0,0.0,0.0,0.0,0.0,0.0,-4.7221,-4.8912,-4.6691,-4.8786,-5.0455,-5.0208,-5.0615,-5.0908,0.0,0.0,0.0,0.0,0.0,0.0,0.0,0.0,0.0,0.0,0.0,0.0,0.0,0.0,-5.2026,-5.0837,-5.3356,-5.4818,-5.2029,0.0,0.0,0.0,0.0,0.0,0.0,0.0,0.0,0.0,0.0,0.0,0.0,0.0,0.0,0.0,0.0,0.0,0.0,0.0,0.0,0.0,0.0,0.0,0.0,0.0,-0.5856,-0.8563,-1.0408,-1.3817,-1.4834,-1.3857,-1.4893,-1.443,0.0,0.0,0.0,0.0,0.0,0.0,0.0,0.0,-1.5719,-1.7843,-2.2034,-2.3264,-2.1241,-2.1126,-1.887,-1.428,-1.5683,-1.6324,-1.5908,-1.5522,-1.5499,0.0,0.0,0.0,0.0,0.0,0.0,0.0,0.0,0.0,0.0,0.0,0.0,0.0,0.0,0.0,0.0,0.0,0.0,0.0,0.0,0.0,0.0,0.0,-3.6226,0.0,0.0,0.0,0.0,0.0,0.0,0.0,0.0,0.0,-4.4473,-4.709,-4.841,-4.7112,-4.8775,-5.0152,-5.0235,0.0,0.0,0.0,0.0,0.0,0.0,0.0,-5.1068,-5.2145,-5.1836,-5.1662,-5.249,-5.4337,-5.5338,-5.426,0.0,0.0,-5.5684,-5.6549,-5.6626,-5.4491,-5.4953,-5.4857,-5.2106,-5.2433,-5.2722,0.0,0.0,0.0,0.0,0.0,0.0,0.0,0.0,0.0,0.0,0.0,0.0,0.0,0.0,0.0,0.0,-0.0,-0.3483,0.0,0.0,-0.5216,-0.6867,-0.9708,-1.3368,-1.5216,-1.5235,-1.5342,-1.688,-1.9465,-1.8317,0.0,0.0,0.0,0.0,0.0,0.0,-1.5816,-1.7959,-1.9139,-1.8588,-1.6547,-1.6405,-1.5322,-1.3222,-1.528,-1.6497,-1.6541,-1.6504,-1.6976,-1.8016,-1.7277,0.0,0.0,0.0,0.0,0.0,0.0,0.0,0.0,0.0,0.0,0.0,0.0,0.0,0.0,0.0,0.0,0.0,0.0,0.0,0.0,-3.6397,0.0,0.0,0.0,0.0,0.0,0.0,0.0,0.0,0.0,-4.625,-4.6211,-4.7793,-4.8845,-4.8688,0.0,0.0,0.0,0.0,-5.1941,-5.3271,-5.2046,-5.0971,-5.0933,-5.0837,-5.0818,-5.0837,0.0,0.0,-5.4047,-5.4991,-5.5742,-5.5684,-5.5742,-5.5761,-5.5722,-5.3376,-5.2279,-5.4972,-5.5645,-5.5145,-5.3722,-5.3433,-5.3453,0.0,0.0,0.0,0.0,0.0,0.0,0.0,0.0,0.0,0.0,0.0,0.0,0.0,0.0,0.0,0.0,0.0,0.0,-0.2894,-0.5217,-0.4938,-0.5423,-0.6757,-1.0283,-1.1958,-1.2081,-1.4323,-1.689,-1.9695,-1.9359,-1.9162,-1.9113,0.0,0.0,0.0,0.0,-1.5454,-1.6854,-1.7271,-1.6293,-1.3978,-1.3931,-1.4403,-1.5367,-1.608,-1.6812,-1.7656,-1.6948,-1.7017,-1.8151,-2.0351,0.0,0.0,0.0,0.0,0.0,0.0,0.0,0.0,0.0,0.0,0.0,0.0,0.0,0.0,0.0,0.0,0.0,0.0,0.0,-3.6447,-3.7346,-3.8182,0.0,0.0,0.0,0.0,0.0,0.0,0.0,0.0,0.0,-4.6308,-4.7812,-4.8845,0.0,0.0,-5.0828,-5.0366,-5.1542,-5.2362,-5.2072,-5.3654,0.0,-5.4323,-5.3241,-5.2491,-5.2491,-5.353,-5.453,-5.5126,-5.5992,-5.6415,-5.5838,-5.6722,-5.7184,-5.5915,-5.4991,-5.4626,-5.5491,-5.5684,-5.5568,-5.5145,-5.5453,-5.5511,0.0,0.0,0.0,0.0,0.0,0.0,0.0,0.0,0.0,0.0,0.0,0.0,0.0,0.0,0.0,0.0,0.0,0.0,-0.1197,-0.329,-0.4382,-0.5065,-0.5567,-0.8503,-1.0114,-1.073,-1.3897,-1.6946,-1.9798,-1.9798,-1.9475,-1.8915,0.0,-1.7252,-1.7642,-1.7051,-1.6618,-1.6529,-1.6534,-1.5788,-1.4398,-1.5188,-1.6118,-1.7071,-1.7243,-1.7706,-1.8516,-1.7675,-1.7715,-1.8917,-2.1886,-2.2661,0.0,0.0,0.0,0.0,0.0,0.0,0.0,0.0,0.0,0.0,0.0,-3.2105,-3.3399,0.0,0.0,0.0,-3.6188,-3.6828,-3.7374,-3.8284,0.0,0.0,0.0,0.0,0.0,0.0,0.0,-4.5976,-4.6289,-4.6582,-4.7246,-4.8242,-4.8845,-4.8732,-4.9887,-5.0664,-5.0465,0.0,-5.1743,-5.2201,-5.4049,-5.5478,-5.5654,-5.4299,-5.3203,-5.3203,-5.3606,-5.4414,-5.5511,-5.6145,-5.628,-5.5972,-5.6569,-5.6953,-5.5895,-5.5684,-5.5684,-5.5684,-5.5684,-5.5684,-5.5684,-5.6126,-5.6165,0.0,0.0,0.0,0.0,0.0,0.0,0.0,0.0,0.0,0.0,0.0,0.0,0.0,0.0,0.0,0.0,0.0414,0.0103,-0.0,-0.0,-0.3443,-0.5122,-0.5529,-0.7699,-0.9372,-1.0532,-1.3652,-1.665,-1.9294,-1.9527,-1.9004,-1.7841,-1.9085,-1.9183,-1.8271,-1.9046,-1.8631,-1.6823,-1.6798,-1.6654,-1.6547,-1.8675,-1.9383,-1.8532,-1.8798,-1.9072,-1.9277,-1.881,-1.9041,-2.021,-2.251,-2.4784,-2.6606,0.0,0.0,0.0,0.0,0.0,0.0,0.0,0.0,0.0,0.0,0.0,0.0,0.0,0.0,0.0,-3.7318,0.0,-3.8325,-3.9234,0.0,0.0,0.0,-4.1429,-3.9238,-4.1636,-4.4167,-4.6073,0.0,0.0,-4.8476,-4.8691,-4.8669,-4.861,-4.9347,-5.0198,-5.0996,-5.0409,-5.0687,-5.2921,-5.3475,-5.3992,-5.4785,-5.3972,-5.3241,-5.3299,-5.328,-5.3933,-5.5222,-5.5568,-5.5588,-5.5703,-5.5703,-5.5722,-5.5703,-5.5684,-5.5645,-5.5453,-5.5568,-5.5684,-5.5703,-5.5742,-5.5742,0.0,0.0,0.0,0.0,0.0,0.0,0.0,0.0,0.0,0.0,0.0,0.0,0.0,0.0,0.0,0.1511,0.3973,0.1265,-0.0,-0.0,-0.0882,-0.2742,-0.5464,-0.7749,-0.8951,-0.9425,-1.2149,-1.4503,-1.6465,-1.7567,-1.8501,-1.9254,-1.9097,-1.8614,-1.7953,-1.7511,-1.7877,-1.902,-1.902,-1.8204,-1.6635,-1.8674,-2.0148,-2.0874,-2.0947,-2.1027,-2.1082,-2.131,-2.1356,-2.1421,-2.4304,-2.6721,-2.8342,-2.7386,0.0,0.0,0.0,0.0,0.0,0.0,0.0,0.0,0.0,-3.4961,-3.5455,0.0,-3.5203,0.0,-3.8355,-3.9957,-3.9338,-4.0216,0.0,0.0,-4.201,-4.2421,-4.248,-4.3161,-4.4311,-4.6074,-4.6289,-4.6445,-4.6875,-4.6914,-4.7106,-4.7658,-4.9533,-5.092,-5.1084,-5.1367,-5.1527,-5.175,-5.2603,-5.2935,-5.2223,-5.2683,-5.328,-5.376,-5.3991,-5.4337,-5.4722,-5.4799,-5.4991,-5.5549,-5.5684,-5.5684,-5.5684,-5.5684,-5.5184,-5.4222,-5.4799,-5.5684,-5.5684,-5.5684,-5.5684,0.0,0.0,0.0,0.0,0.0,0.0,0.0,0.0,0.0,0.0,0.0,0.0,0.0,0.0,0.0,0.1082,0.2905,0.2563,0.1535,-0.0,-0.0,-0.1772,-0.5097,-0.8161,-0.9593,-0.9694,-1.2625,-1.4492,-1.5371,-1.6244,-1.7069,-1.7818,-1.7786,-1.7441,-1.6976,-1.7146,-1.7639,-1.8329,-1.9309,-1.9208,-1.8113,-2.0273,-2.1368,-2.0983,-2.1265,-2.1251,-2.0955,-2.1865,-2.2438,-2.2622,-2.5859,-2.8294,-2.9551,-2.9625,-2.824,0.0,0.0,0.0,0.0,0.0,0.0,0.0,0.0,0.0,0.0,0.0,-3.6122,-3.7603,-3.9596,-4.0626,-4.0178,-4.0756,-4.1523,-4.2324,-4.2754,-4.3183,-4.3652,-4.4394,-4.5234,-4.6191,-4.6289,-4.6289,-4.6289,-4.62,-4.644,-4.7197,-4.8811,-5.0024,-5.0386,-5.0734,-5.0893,-5.0928,-5.1582,-5.1798,-5.0798,-5.1561,-5.25,-5.3147,-5.3299,-5.3453,-5.3837,-5.3914,-5.4299,-5.5395,-5.5684,-5.5684,-5.5684,-5.5684,-5.5164,-5.376,-5.3299,-5.3818,-5.4741,-5.5357,-5.5684,0.0,0.0,0.0,0.0,0.0,0.0,0.0,0.0,0.0,0.0,0.0,0.0,0.0,0.0,0.0,0.0,0.0,0.3778,0.3678,0.0765,0.0238,-0.1658,-0.4745,-0.8694,-1.0618,-1.0744,-1.3897,-1.542,-1.542,-1.542,-1.542,-1.541,-1.6161,-1.6294,-1.5896,-1.7357,-1.7591,-1.6572,-1.8681,-1.994,-2.032,-2.2455,-2.2483,-2.0257,-2.0354,-2.0396,-2.0184,-2.1591,-2.2773,-2.3651,-2.6725,-2.9018,-3.0161,-3.0603,-2.9888,0.0,-3.1787,0.0,0.0,0.0,0.0,0.0,0.0,0.0,0.0,-3.5979,-3.745,-4.0566,-4.102,-4.1132,-4.1132,-4.1361,-4.1836,-4.2656,-4.3398,-4.3886,-4.4062,-4.5391,-4.6289,-4.6289,-4.6289,-4.6289,-4.623,-4.6039,-4.621,-4.6883,-4.7517,-4.8302,-4.9064,-4.9384,-4.9817,-5.0567,-5.0683,-5.0875,-5.0835,-5.1017,-5.1418,-5.2009,-5.2145,-5.2183,-5.2914,-5.3029,-5.3453,-5.4645,-5.5068,-5.5203,-5.5126,-5.4953,-5.4491,-5.3029,-5.1798,-5.1741,-5.378,-5.4761,-5.5338,0.0,0.0,0.0,0.0,0.0,0.0,0.0,0.0,0.0,0.0,0.0,0.0,0.0,0.0,0.0,0.0,0.0,0.3755,0.5042,0.4259,0.1378,-0.1844,-0.5325,-0.8935,-1.0618,-1.0807,-1.3828,-1.542,-1.542,-1.542,-1.542,-1.541,-1.6151,-1.644,-1.6413,0.0,0.0,0.0,-1.8694,-2.0805,-2.2786,-2.3363,-2.2483,-2.0158,-1.8339,0.0,-2.1355,-2.2201,-2.2882,-2.3608,-2.507,0.0,0.0,0.0,0.0,0.0,0.0,0.0,0.0,0.0,0.0,0.0,-3.8389,-3.819,-3.7053,-3.8525,-4.0412,-4.239,-4.2795,-4.2911,-4.2902,-4.3099,-4.3574,-4.4414,-4.456,-4.4906,-4.5683,-4.6113,-4.6289,-4.6289,-4.6289,-4.6211,-4.6001,-4.5924,-4.594,-4.6104,-4.619,-4.6573,-4.7328,-4.8527,-4.9663,-5.051,-5.0683,-5.0844,-5.121,-5.1152,-5.1056,-5.114,-5.1568,-5.1914,-5.2106,-5.2145,-5.1875,-5.1952,-5.276,-5.3203,-5.201,-5.1625,-5.1741,-5.1241,-5.0914,-5.1645,-5.4648,-5.4416,-5.3683,0.0,0.0,0.0,0.0,0.0,0.0,0.0,0.0,0.0,0.0,0.0,0.0,0.0,0.0,0.0,0.0,0.0,0.1925,0.1773,0.0199,0.1876,-0.1117,-0.8033,-0.9775,-1.0618,-1.0744,-1.3897,-1.4971,-1.4238,-1.501,-1.542,-1.542,-1.6036,-1.6323,-1.6313,-1.6415,-1.7064,-1.8094,-1.9233,-2.0421,-2.1663,-2.1744,-2.1451,-2.0851,-1.9694,0.0,0.0,0.0,0.0,0.0,0.0,0.0,0.0,-3.3437,0.0,-3.4694,-3.7281,-3.8491,-3.7824,-3.8005,-3.8272,-3.862,-3.9471,-3.9673,-3.8895,-3.9854,-4.0906,-4.1899,-4.3559,-4.4133,-4.3013,-4.3344,-4.4062,-4.4863,-4.4887,-4.5152,-4.5933,-4.6089,-4.6064,-4.5986,-4.6144,-4.617,-4.5794,-4.5751,-4.5751,-4.5777,-4.5752,-4.5835,-4.6275,-4.7336,-4.8702,-5.0356,-5.0683,-5.0771,-5.0981,-5.0996,-5.0863,-5.0798,-5.1048,-5.1279,-5.1318,-5.1318,-5.1144,-5.0818,-5.1433,-5.1625,-5.0952,-5.0683,-5.0683,-5.0683,-5.0683,-5.1126,-5.2974,-5.3204,-5.2913,0.0,0.0,0.0,0.0,0.0,0.0,0.0,0.0,0.0,0.0,0.0,0.0,0.0,0.0,0.0,0.0,0.0,-0.0326,-0.2094,-0.4599,0.1064,-0.0723,-0.8924,-1.0104,-1.0618,-1.0744,-1.3897,-1.4687,-1.3418,-1.4746,-1.542,-1.5449,-1.5781,-1.6025,-1.6133,-1.5674,-1.6834,-1.9631,-1.9798,-1.9991,-2.0421,-2.0471,-2.0961,-2.2013,-2.2413,-2.2744,-2.298,-2.5061,-2.5572,-2.4302,-2.5499,-2.8635,-3.3722,-3.5016,-3.5776,-3.6469,-3.8984,-3.9857,-3.8427,-3.8775,-3.929,-3.9838,-4.05,-4.0788,-4.0563,-4.0515,-4.0571,-4.0777,-4.342,-4.4338,-4.2694,-4.3392,-4.4219,-4.4922,-4.4998,-4.5247,-4.5799,-4.5852,-4.5782,-4.5677,-4.5929,-4.6053,-4.5661,-4.562,-4.5635,-4.5737,-4.568,-4.5586,-4.5682,-4.6278,-4.7548,-4.9567,-5.0337,-5.0702,-5.0702,-5.0702,-5.0683,-5.0702,-5.0702,-5.0683,-5.0683,-5.0683,-5.0683,-5.0702,-5.0683,-5.0721,-5.0702,-5.0683,-5.0683,-5.0683,-5.0683,-5.0683,-5.0798,-5.1779,-5.2221,0.0,0.0,0.0,0.0,0.0,0.0,0.0,0.0,0.0,0.0,0.0,0.0,0.0,0.0,0.0,0.0,0.0,-0.1631,-0.2595,-0.3062,-0.2507,-0.2488,-0.3222,-0.8194,-1.0618,-1.0863,-1.3888,-1.5293,-1.5107,-1.5293,-1.542,-1.542,-1.5469,-1.5889,-1.6514,-1.582,-1.6834,-1.9695,-1.9798,-2.0841,-2.3024,-2.3069,-2.3142,-2.3428,-2.543,-2.5617,-2.3766,-2.5799,-2.7241,-2.791,-2.9425,-3.1819,-3.4996,-3.5398,-3.6776,-3.9508,-4.0246,-3.9844,-3.8427,-3.8863,-3.9701,-4.0851,-4.109,-4.1026,-4.0788,-4.0597,-4.0571,-4.0796,-4.1581,-4.2331,-4.3267,-4.4212,-4.4824,-4.5,-4.5436,-4.5799,-4.5899,-4.5738,-4.5629,-4.562,-4.5648,-4.5718,-4.5618,-4.5586,-4.5603,-4.5637,-4.562,-4.5586,-4.5605,-4.5682,-4.6509,-4.8182,-4.976,-5.0567,-5.0683,-5.0683,-5.0683,-5.0683,-5.0664,-5.0587,-5.0567,-5.051,-5.0491,-5.0644,-5.0644,-5.0683,-5.0683,-5.0683,-5.0683,-5.0683,-5.0625,-5.0548,-5.0606,-5.1029,-5.1048,0.0,0.0,0.0,0.0,0.0,0.0,0.0,0.0,0.0,0.0,0.0,0.0,0.0,0.0,0.0,0.0,-0.0128,-0.2882,-0.4655,-0.5575,-0.5836,-0.5671,-0.5509,-0.8897,-1.0618,-1.08,-1.3837,-1.542,-1.542,-1.542,-1.542,-1.543,-1.5635,-1.6094,-1.666,-1.6328,-1.8002,-2.1758,-2.1885,-2.2409,-2.3551,-2.3595,-2.3879,-2.4471,-2.6404,-2.7187,-2.6639,-2.8545,-2.9992,-3.0732,-3.2198,-3.3809,-3.5369,-3.5507,-3.618,-3.7738,-3.9495,-3.9431,-3.7024,-3.7688,-3.9047,-4.1016,-4.1191,-4.1169,-4.1026,-4.0933,-4.0922,-4.1,-4.1147,-4.1659,-4.2863,-4.4178,-4.5019,-4.5019,-4.5543,-4.5888,-4.5872,-4.5722,-4.5603,-4.5586,-4.5586,-4.5586,-4.5586,-4.5586,-4.5586,-4.5586,-4.5586,-4.5586,-4.5586,-4.5586,-4.5817,-4.6778,-4.8933,-5.0491,-5.0683,-5.0683,-5.0683,-5.0683,-5.0279,-5.0048,-4.9933,-4.9683,-4.9471,-4.976,-5.0221,-5.0644,-5.0683,-5.0683,-5.0683,-5.0587,-4.9817,-4.9663,-5.0298,-5.0683,-5.0683,0.0,0.0,0.0,0.0,0.0,0.0,0.0,0.0,0.0,0.0,0.0,0.0,0.0,0.0,0.0,0.0,0.0,-0.2906,-0.5329,-0.7331,-0.7952,-0.8143,-0.8161,-0.9779,-1.0989,-1.1717,-1.3528,-1.4688,-1.5294,-1.542,-1.5459,-1.5576,-1.5898,-1.6191,-1.6426,-1.6725,-1.9124,-2.3304,-2.3595,-2.3595,-2.3595,-2.3595,-2.4254,-2.5671,-2.7234,-2.8436,-2.9263,-3.1146,-3.2365,-3.2724,-3.3963,-3.4944,-3.5446,-3.5507,-3.5507,-3.5738,-3.7921,-3.8581,-3.6812,-3.7346,-3.8848,-4.0996,-4.1191,-4.1191,-4.1191,-4.1191,-4.1191,-4.1191,-4.1191,-4.1465,-4.2207,-4.3672,-4.4707,-4.4746,-4.5445,-4.5888,-4.5881,-4.5722,-4.5586,-4.5586,-4.5586,-4.5586,-4.5586,-4.5586,-4.5586,-4.5586,-4.5586,-4.5586,-4.5586,-4.5586,-4.5586,-4.6067,-4.7894,-4.9702,-5.0375,-5.0683,-5.0683,-5.0683,-4.999,-4.9606,-4.9336,-4.8721,-4.824,-4.8682,-4.9394,-5.0125,-5.0491,-4.9837,-4.9837,-5.0164,-4.9452,-4.8625,-4.9663,-4.9952,-5.0279,0.0,0.0,0.0,0.0,0.0,0.0,0.0,0.0,0.0,0.0,0.0,0.0,0.0,0.0,0.0,0.0,0.0,0.0,-0.2403,-0.5677,-0.7772,-0.849,-0.8221,-0.9773,-1.2143,-1.4136,-1.2389,-1.281,-1.5294,-1.5391,-1.5635,-1.6017,-1.6045,-1.5908,-1.5733,-1.6857,-1.9517,-2.3493,-2.3595,-2.3595,-2.3595,-2.3595,-2.474,-2.7178,-2.9042,-3.0109,-3.0314,-3.2306,-3.335,-3.3321,-3.4184,-3.4944,-3.5432,-3.5507,-3.5507,-3.5507,-3.5872,-3.6733,-3.8714,-3.9396,-4.0039,-4.1055,-4.1133,-4.1152,-4.1191,-4.1191,-4.1191,-4.1191,-4.1191,-4.1269,-4.1387,-4.2832,-4.3808,-4.3906,-4.503,-4.5899,-4.5872,-4.5736,-4.5586,-4.5586,-4.5586,-4.5586,-4.5586,-4.5586,-4.5586,-4.5531,-4.5493,-4.5475,-4.5495,-4.5586,-4.5586,-4.5586,-4.6086,-4.7567,-4.9798,-5.0683,-5.0683,-5.0625,-4.9933,-4.9413,-4.9067,-4.8529,-4.799,-4.7509,-4.7875,-4.8779,-4.9183,-4.8529,-4.7394,-4.9163,-4.8894,-4.8086,-4.8336,-4.849,-4.899,0.0,0.0,0.0,0.0,0.0,0.0,0.0,0.0,0.0,0.0,0.0,0.0,0.0,0.0,0.0,0.0,0.0,0.0,-0.1356,-0.3954,-0.6547,-0.8409,-0.9582,-1.0231,-1.1358,-1.2451,-1.117,-1.2266,-1.4831,-1.4796,-1.4872,-1.5638,-1.6129,-1.6299,-1.6325,-1.7868,-2.0374,-2.345,-2.3595,-2.3595,-2.3595,-2.3595,-2.5384,-2.8886,-3.1052,-3.1926,-3.1844,-3.3222,-3.4087,-3.4166,-3.4794,-3.5273,-3.5493,-3.5507,-3.5507,-3.5559,-3.6566,-3.8063,-4.0096,-3.9571,-3.9726,-4.1094,-4.0234,-4.0059,-4.1094,-4.1191,-4.1191,-4.1191,-4.1191,-4.1191,-4.1308,-4.2266,-4.2968,-4.3247,-4.4345,-4.5373,-4.586,-4.5717,-4.5586,-4.5586,-4.5586,-4.5586,-4.5586,-4.5586,-4.5513,-4.5342,-4.5149,-4.5032,-4.5039,-4.5342,-4.5586,-4.5586,-4.5586,-4.7048,-4.9875,-5.0683,-5.0683,-5.0452,-4.9529,-4.8663,-4.8509,-4.7451,-4.6509,-4.6336,-4.6586,-4.6913,-4.7336,-4.6932,-4.622,-4.7605,-4.7528,-4.674,-4.7278,-4.7778,-4.8606,0.0,0.0,0.0,0.0,0.0,0.0,0.0,0.0,0.0,0.0,0.0,0.0,0.0,0.0,0.0,0.0,0.0,0.0,-0.0982,-0.2917,-0.5899,-0.828,-0.9779,-1.0428,-1.0618,-1.0618,-1.0618,-1.2119,-1.4827,-1.5149,-1.534,-1.6251,-1.7242,-1.7771,-1.7926,-1.9209,-2.1095,-2.3363,-2.3595,-2.4255,-2.5534,-2.6142,-2.7904,-3.0945,-3.2763,-3.3469,-3.3072,-3.4024,-3.4699,-3.4926,-3.5304,-3.5507,-3.5507,-3.5507,-3.5507,-3.5707,-3.7715,-3.9383,-4.0416,-3.973,-3.9844,-4.0918,-3.998,-3.9844,-4.0898,-4.1191,-4.1172,-4.1094,-4.1152,-4.1191,-4.1269,-4.2148,-4.2598,-4.2428,-4.3792,-4.5276,-4.5812,-4.5736,-4.5586,-4.5586,-4.5586,-4.5586,-4.5605,-4.559,-4.5496,-4.518,-4.4646,-4.4417,-4.4588,-4.5011,-4.5322,-4.5322,-4.5182,-4.6598,-4.9777,-5.0087,-5.0183,-5.0202,-4.9202,-4.7894,-4.7894,-4.6663,-4.5643,-4.5913,-4.5682,-4.5701,-4.622,-4.5874,-4.5605,-4.5586,-4.5663,-4.5855,-4.6413,-4.7201,-4.8009,0.0,0.0,0.0,0.0,0.0,0.0,0.0,0.0,0.0,0.0,0.0,0.0,0.0,0.0,0.0,0.0,0.0,0.0,-0.0967,-0.2951,-0.6294,-0.8027,-0.8221,-0.9779,-1.0618,-1.0618,-1.0624,-1.1988,-1.4555,-1.6562,-1.7869,-1.8437,-1.9817,-2.0618,-2.0461,-2.0754,-2.1743,-2.3703,-2.4053,-2.5994,-3.0246,-3.2286,-3.2893,-3.3146,-3.411,-3.4484,-3.4354,-3.4793,-3.5171,-3.5465,-3.546,-3.5507,-3.5507,-3.5507,-3.5507,-3.5957,-3.8782,-4.0253,-3.9765,-4.04,-4.1035,-4.1172,-4.1016,-4.1055,-4.1152,-4.1191,-4.1094,-4.0857,-4.1023,-4.1152,-4.1328,-4.2344,-4.2708,-4.169,-4.3922,-4.5471,-4.5784,-4.5631,-4.5601,-4.5586,-4.5586,-4.5586,-4.5605,-4.559,-4.5428,-4.4992,-4.4208,-4.3811,-4.435,-4.458,-4.4631,-4.4527,-4.4458,-4.5226,-4.928,-4.9586,-4.9317,-4.9144,-4.8202,-4.724,-4.7163,-4.6894,-4.6124,-4.5586,-4.5586,-4.5586,-4.5586,-4.5586,-4.5586,-4.5586,-4.5586,-4.5778,-4.5951,-4.6471,-4.7201,0.0,0.0,0.0,0.0,0.0,0.0,0.0,0.0,0.0,0.0,0.0,0.0,0.0,0.0,0.0,0.0,0.0,0.0,-0.0967,-0.2985,-0.6344,-0.8027,-0.8156,-0.9779,-1.0618,-1.0618,-1.0624,-1.2729,-1.6531,-1.8598,-1.9414,-1.9447,-2.0595,-2.1486,-2.2104,-2.3173,-2.4549,-2.6138,-2.7597,-2.9939,-3.2499,-3.3476,-3.3924,-3.4226,-3.4868,-3.5083,-3.4849,-3.5168,-3.5398,-3.5493,-3.5507,-3.5507,-3.5507,-3.5507,-3.6526,-3.8546,-4.0193,-4.0847,-4.0457,-4.0869,-4.1191,-4.1191,-4.1191,-4.1191,-4.1191,-4.1191,-4.1082,-4.0864,-4.0752,-4.0866,-4.1198,-4.1706,-4.2143,-4.2649,-4.3461,-4.4238,-4.4349,-4.4954,-4.5586,-4.5586,-4.5586,-4.5586,-4.5589,-4.559,-4.5376,-4.4819,-4.4033,-4.3706,-4.3782,-4.3899,-4.3931,-4.3886,-4.3749,-4.4066,-4.5413,-4.7567,-4.8144,-4.7509,-4.6836,-4.6951,-4.6951,-4.6432,-4.5682,-4.5586,-4.5586,-4.5586,-4.5586,-4.5586,-4.5586,-4.5586,-4.5586,-4.5586,-4.5586,-4.6163,-4.6644,0.0,0.0,0.0,0.0,0.0,0.0,0.0,0.0,0.0,0.0,0.0,0.0,0.0,0.0,0.0,0.0,0.0,0.0,-0.0661,-0.2145,-0.6118,-0.7702,-0.7572,-0.9518,-1.0618,-1.08,-1.1717,-1.405,-1.717,-2.0193,-2.1195,-2.0723,-2.2284,-2.327,-2.3882,-2.5301,-2.6923,-2.8794,-3.0948,-3.2645,-3.3716,-3.4165,-3.4532,-3.4907,-3.5138,-3.5239,-3.5223,-3.5417,-3.5507,-3.5507,-3.5507,-3.5507,-3.5526,-3.6526,-3.8104,-4.0232,-4.0908,-4.113,-4.1033,-4.1108,-4.1191,-4.1191,-4.1191,-4.1191,-4.1191,-4.1191,-4.1074,-4.0836,-4.0616,-4.0654,-4.0865,-4.0949,-4.1357,-4.2369,-4.2892,-4.3162,-4.3214,-4.4622,-4.5451,-4.5586,-4.5586,-4.5586,-4.5589,-4.5604,-4.5276,-4.4681,-4.3959,-4.3523,-4.3474,-4.3479,-4.3479,-4.3479,-4.3513,-4.3532,-4.4206,-4.5482,-4.6619,-4.6205,-4.6129,-4.6359,-4.6569,-4.5991,-4.5663,-4.5605,-4.5586,-4.5586,-4.5586,-4.5586,-4.5586,-4.5586,-4.5586,-4.5586,-4.5701,-4.5893,-4.6394,0.0,0.0,0.0,0.0,0.0,0.0,0.0,0.0,0.0,0.0,0.0,0.0,0.0,0.0,0.0,0.0,0.0,0.0,0.0,0.0,-0.5456,-0.6926,-0.5873,-0.9064,-1.0863,-1.1288,-1.3999,-1.541,-1.627,-2.0581,-2.2797,-2.3244,-2.4804,-2.5506,-2.537,-2.6768,-2.8716,-3.1029,-3.2879,-3.3734,-3.3954,-3.4832,-3.535,-3.5403,-3.4999,-3.5,-3.5412,-3.5446,-3.5446,-3.5474,-3.5507,-3.5507,-3.5911,-3.8315,-4.0373,-4.0472,-4.0953,-4.1172,-4.1191,-4.1191,-4.1191,-4.1191,-4.1191,-4.1191,-4.1191,-4.1191,-4.108,-4.0796,-4.0623,-4.0519,-4.0549,-4.0649,-4.0734,-4.0769,-4.217,-4.3115,-4.3227,-4.4528,-4.5586,-4.5586,-4.555,-4.5605,-4.5591,-4.5592,-4.5332,-4.4678,-4.396,-4.3505,-4.3477,-4.3479,-4.3479,-4.3681,-4.4213,-4.4727,-4.4121,-4.3704,-4.453,-4.5115,-4.5273,-4.5509,-4.6052,-4.5879,-4.5682,-4.5586,-4.5586,-4.5586,-4.5586,-4.5586,-4.5586,-4.5586,-4.5586,-4.5586,-4.5701,-4.5874,-4.6259,0.0,0.0,0.0,0.0,0.0,0.0,0.0,0.0,0.0,0.0,0.0,0.0,0.0,0.0,0.0,0.0,0.0,0.0,0.0,0.0,-0.4317,-0.5995,-0.6269,-0.9,-1.1779,-1.4109,-1.6948,-1.8436,-1.8709,-2.0229,-2.1721,-2.3366,-2.4567,-2.5716,-2.6725,-2.7414,-2.9611,-3.3685,-3.391,-3.4141,-3.4888,-3.5285,-3.5474,-3.5446,-3.4981,-3.487,-3.519,-3.5034,-3.5138,-3.546,-3.5507,-3.5507,-3.6089,-3.8661,-4.0412,-4.0559,-4.0933,-4.1191,-4.1191,-4.1191,-4.1191,-4.1191,-4.1191,-4.1191,-4.1191,-4.1191,-4.1012,-4.0657,-4.0526,-4.0489,-4.0504,-4.0549,-4.0535,-4.0501,-4.2063,-4.2622,-4.2082,-4.3895,-4.5355,-4.5531,-4.5222,-4.514,-4.5477,-4.5567,-4.5332,-4.4719,-4.3968,-4.35,-4.3508,-4.3513,-4.4066,-4.4856,-4.5663,-4.6305,-4.5975,-4.5002,-4.4562,-4.4749,-4.4706,-4.5014,-4.5531,-4.5879,-4.5683,-4.5586,-4.5586,-4.5586,-4.5586,-4.5586,-4.5586,-4.5586,-4.5586,-4.5605,-4.5605,-4.5817,-4.6144,0.0,0.0,0.0,0.0,0.0,0.0,0.0,0.0,0.0,0.0,0.0,0.0,0.0,0.0,0.0,0.0,0.0,0.0,-0.0726,-0.2024,-0.4015,-0.5903,-0.7298,-0.9448,-1.2258,-1.5419,-1.837,-1.9798,-1.9823,-2.0278,-2.129,-2.288,-2.4671,-2.6503,-2.7996,-2.837,-3.0626,-3.4251,-3.4605,-3.4794,-3.5335,-3.5507,-3.5507,-3.5432,-3.4981,-3.487,-3.5034,-3.4735,-3.4715,-3.5318,-3.6064,-3.667,-3.6899,-3.9103,-4.0489,-4.0577,-4.0898,-4.1191,-4.1191,-4.1191,-4.1191,-4.1191,-4.1191,-4.1191,-4.1172,-4.1094,-4.0791,-4.0568,-4.0489,-4.0489,-4.0489,-4.0489,-4.0489,-4.0527,-4.172,-4.222,-4.1841,-4.3401,-4.4621,-4.4743,-4.4881,-4.5055,-4.517,-4.5491,-4.5356,-4.4819,-4.4055,-4.3571,-4.3601,-4.3563,-4.4469,-4.5663,-4.6874,-4.7443,-4.7902,-4.6691,-4.4984,-4.4525,-4.4195,-4.4687,-4.5194,-4.5554,-4.5586,-4.5586,-4.5586,-4.5586,-4.5586,-4.5586,-4.5586,-4.5586,-4.5586,-4.5586,-4.5605,-4.5605,-4.5797,0.0,0.0,0.0,0.0,0.0,0.0,0.0,0.0,0.0,0.0,0.0,0.0,0.0,0.0,0.0,0.0,0.0,0.0,-0.2026,-0.4398,-0.582,-0.722,-1.0208,-1.1611,-1.3698,-1.6089,-1.8596,-1.9747,-1.9849,-2.1059,-2.1759,-2.2874,-2.5732,-2.8045,-2.9106,-2.9452,-3.0836,-3.3442,-3.4812,-3.5412,-3.5507,-3.5507,-3.5661,-3.5705,-3.5166,-3.4964,-3.517,-3.4691,-3.4476,-3.5055,-3.7169,-3.8364,-3.8803,-3.9823,-4.0489,-4.0515,-4.0953,-4.1152,-4.1191,-4.1191,-4.1191,-4.1191,-4.1191,-4.1191,-4.1113,-4.0799,-4.0582,-4.0504,-4.0489,-4.0489,-4.0489,-4.0642,-4.0719,-4.0873,-4.1777,-4.2357,-4.3079,-4.3509,-4.3719,-4.3881,-4.4619,-4.5342,-4.4787,-4.5203,-4.5126,-4.5014,-4.4256,-4.3949,-4.3955,-4.4114,-4.4412,-4.5663,-4.726,-4.7939,-4.8214,-4.7939,-4.6324,-4.5674,-4.4848,-4.4369,-4.4909,-4.5303,-4.5586,-4.5586,-4.5586,-4.5586,-4.5586,-4.5586,-4.5586,-4.5586,-4.5586,-4.5586,-4.5586,-4.5586,-4.5586,0.0,0.0,0.0,0.0,0.0,0.0,0.0,0.0,0.0,0.0,0.0,0.0,0.0,0.0,0.0,0.0,0.0,0.0,-0.2667,-0.6511,-0.7086,-0.909,-1.2615,-1.5796,-1.7564,-1.8638,-1.9085,-1.9798,-1.9989,-2.2049,-2.397,-2.5776,-2.6701,-2.7952,-2.9058,-2.9985,-3.1145,-3.287,-3.466,-3.546,-3.5446,-3.5474,-3.6142,-3.7147,-3.6063,-3.5646,-3.5848,-3.5057,-3.5025,-3.5917,-3.7632,-3.8689,-3.8792,-3.9821,-4.0489,-4.0568,-4.0918,-4.1191,-4.1191,-4.1191,-4.1191,-4.1191,-4.1191,-4.1113,-4.0914,-4.0665,-4.05,-4.0489,-4.0489,-4.0527,-4.0604,-4.1104,-4.1873,-4.3028,-4.2893,-4.3042,-4.3809,-4.3759,-4.3479,-4.3563,-4.3899,-4.4382,-4.4919,-4.4741,-4.4527,-4.484,-4.4651,-4.428,-4.4314,-4.4299,-4.4452,-4.5736,-4.7095,-4.7847,-4.8306,-4.8306,-4.781,-4.7132,-4.5842,-4.4082,-4.4675,-4.5222,-4.5476,-4.5586,-4.5586,-4.5586,-4.5586,-4.5586,-4.5586,-4.5586,-4.5586,-4.5586,-4.5586,-4.5586,-4.5586,0.0,0.0,0.0,0.0,0.0,0.0,0.0,0.0,0.0,0.0,0.0,0.0,0.0,0.0,0.0,0.0,0.0,0.0,0.0,-0.7481,-0.9982,-1.1733,-1.3638,-1.6602,-1.8596,-1.9592,-1.8543,-1.7938,-1.8863,-2.2679,-2.6056,-2.7702,-2.8207,-2.8771,-2.9739,-3.0844,-3.1969,-3.3057,-3.4259,-3.4794,-3.4794,-3.527,-3.6397,-3.77,-3.7526,-3.7533,-3.6856,-3.5699,-3.5549,-3.6671,-3.7903,-3.8707,-3.8822,-3.9842,-4.0473,-4.0534,-4.0848,-4.1074,-4.1191,-4.1191,-4.1191,-4.1191,-4.1191,-4.1133,-4.0969,-4.071,-4.0489,-4.0489,-4.0489,-4.0873,-4.1511,-4.1944,-4.2716,-4.3599,-4.3497,-4.3522,-4.4506,-4.5244,-4.4724,-4.403,-4.3563,-4.3881,-4.5055,-4.4603,-4.4617,-4.4748,-4.4575,-4.4458,-4.4505,-4.4428,-4.4782,-4.6085,-4.715,-4.7976,-4.8324,-4.8324,-4.8159,-4.7591,-4.6539,-4.4724,-4.4707,-4.5273,-4.5419,-4.5608,-4.5587,-4.5586,-4.5586,-4.5586,-4.5586,-4.5586,-4.5586,-4.5586,-4.5586,-4.5586,-4.5586,0.0,0.0,0.0,0.0,0.0,0.0,0.0,0.0,0.0,0.0,0.0,0.0,0.0,0.0,0.0,0.0,0.0,0.0,0.0,-0.6956,-1.1257,-1.4415,-1.367,-1.508,-1.6991,-1.8317,-1.6518,-1.5853,-1.7644,-2.3307,-2.7811,-2.9371,-2.9947,-3.0306,-3.1029,-3.2077,-3.3015,-3.3715,-3.4171,-3.4237,-3.4284,-3.5001,-3.632,-3.7853,-3.9181,-3.885,-3.768,-3.6565,-3.631,-3.7258,-3.8305,-3.882,-3.897,-3.9842,-4.0422,-4.0526,-4.0713,-4.095,-4.1152,-4.1191,-4.1191,-4.1191,-4.1191,-4.1191,-4.1094,-4.0762,-4.0489,-4.0489,-4.0662,-4.1662,-4.2744,-4.2929,-4.3269,-4.3975,-4.3675,-4.3933,-4.4964,-4.6869,-4.7058,-4.4085,-4.3516,-4.3855,-4.4373,-4.4924,-4.5182,-4.4829,-4.4656,-4.4648,-4.4624,-4.4578,-4.5289,-4.6489,-4.7407,-4.8196,-4.8324,-4.8324,-4.8104,-4.772,-4.6762,-4.5536,-4.5198,-4.5456,-4.5532,-4.5592,-4.5589,-4.5586,-4.5586,-4.5586,-4.5586,-4.5586,-4.5586,-4.5586,-4.5586,-4.5586,-4.5586,0.0,0.0,0.0,0.0,0.0,0.0,0.0,0.0,0.0,0.0,0.0,0.0,0.0,0.0,0.0,0.0,0.0,0.0,0.0,-0.251,-1.1494,-1.4857,-1.4855,-1.5294,-1.5738,-1.6291,-1.5853,-1.5498,-1.7505,-2.342,-2.8796,-3.1379,-3.1328,-3.1673,-3.2541,-3.3027,-3.3839,-3.4464,-3.487,-3.4615,-3.4264,-3.5191,-3.6565,-3.8065,-3.9123,-3.9012,-3.8193,-3.7613,-3.7598,-3.8134,-3.9108,-3.9599,-3.9119,-3.9778,-4.037,-4.0526,-4.069,-4.0908,-4.1133,-4.1191,-4.1191,-4.1191,-4.1191,-4.1191,-4.1172,-4.079,-4.054,-4.0739,-4.17,-4.2777,-4.3742,-4.4287,-4.4388,-4.4589,-4.4827,-4.5281,-4.6412,-4.7519,-4.6783,-4.469,-4.3736,-4.3618,-4.3818,-4.4011,-4.4337,-4.4713,-4.4868,-4.4821,-4.4787,-4.4768,-4.5386,-4.6359,-4.7572,-4.8269,-4.8324,-4.8233,-4.8015,-4.7813,-4.6979,-4.6345,-4.5999,-4.6058,-4.6273,-4.6033,-4.5587,-4.5586,-4.5586,-4.5586,-4.5586,-4.5586,-4.5624,-4.572,-4.5778,-4.5701,-4.5605,0.0,0.0,0.0,0.0,0.0,0.0,0.0,0.0,0.0,0.0,0.0,0.0,0.0,0.0,0.0,0.0,0.0,0.0,0.0,0.0,-0.626,-1.0566,-1.5234,-1.542,-1.542,-1.5488,-1.542,-1.643,-2.016,-2.5168,-3.0135,-3.2331,-3.2345,-3.2556,-3.3166,-3.3606,-3.4068,-3.4674,-3.5207,-3.5171,-3.4908,-3.6795,-3.8084,-3.9008,-3.9604,-3.9585,-3.9238,-3.9181,-3.9161,-3.9392,-3.9973,-3.9945,-3.8998,-3.9301,-3.9863,-4.045,-4.0584,-4.0855,-4.1097,-4.115,-4.1152,-4.1191,-4.1191,-4.1191,-4.1172,-4.0933,-4.0712,-4.0935,-4.197,-4.3412,-4.4203,-4.4543,-4.4801,-4.4808,-4.4786,-4.5244,-4.6359,-4.7534,-4.7829,-4.614,-4.5957,-4.5406,-4.5001,-4.4428,-4.4296,-4.4995,-4.4988,-4.4972,-4.5067,-4.5031,-4.4978,-4.5885,-4.739,-4.8214,-4.8288,-4.8179,-4.7905,-4.7701,-4.7321,-4.693,-4.6657,-4.6915,-4.7264,-4.6819,-4.6317,-4.5624,-4.5586,-4.5586,-4.5643,-4.5759,-4.5855,-4.597,-4.6047,-4.6067,-4.5874,0.0,0.0,0.0,0.0,0.0,0.0,0.0,0.0,0.0,0.0,0.0,0.0,0.0,0.0,0.0,0.0,0.0,0.0,0.0,0.0,0.0,0.0,-1.3311,-1.5781,-1.6567,-1.6433,-1.7137,-1.9479,-2.3783,-2.8216,-3.1127,-3.2548,-3.284,-3.3057,-3.3302,-3.3634,-3.4087,-3.4694,-3.4907,-3.527,-3.5891,-3.8362,-4.0046,-4.0239,-4.031,-4.0361,-4.0242,-4.0277,-4.0373,-4.0489,-4.0317,-3.969,-3.9064,-3.898,-3.9327,-4.0473,-4.0515,-4.0721,-4.0988,-4.1055,-4.1055,-4.1191,-4.1191,-4.1191,-4.1191,-4.1133,-4.089,-4.1357,-4.2258,-4.3951,-4.4435,-4.4908,-4.4846,-4.4716,-4.4234,-4.4646,-4.5498,-4.7095,-4.7976,-4.8086,-4.7444,-4.6893,-4.6138,-4.5525,-4.5327,-4.5125,-4.5133,-4.5135,-4.5247,-4.5426,-4.5469,-4.6393,-4.813,-4.8747,-4.8829,-4.7853,-4.7642,-4.7471,-4.7266,-4.6911,-4.6719,-4.6534,-4.6634,-4.7472,-4.7124,-4.6355,-4.5701,-4.5586,-4.5682,-4.5893,-4.6336,-4.6721,-4.6701,-4.649,-4.6144,0.0,0.0,0.0,0.0,0.0,0.0,0.0,0.0,0.0,0.0,0.0,0.0,0.0,0.0,0.0,0.0,0.0,0.0,0.0,0.0,0.0,0.0,-1.4189,-1.7367,-1.8955,-2.1197,-2.1736,-2.3489,-2.6608,-2.9718,-3.1757,-3.3039,-3.2965,-3.2965,-3.3522,-3.3815,-3.4062,-3.4636,-3.491,-3.5363,-3.6615,-3.8577,-4.0367,-4.0386,-4.0456,-4.0492,-4.0476,-4.0489,-4.0489,-4.0406,-3.9529,-3.9008,-3.9036,-3.9645,-4.0175,-4.0406,-4.0489,-4.0648,-4.0857,-4.0959,-4.1052,-4.1152,-4.1191,-4.1191,-4.1191,-4.1387,-4.1601,-4.1783,-4.3316,-4.5163,-4.5374,-4.5526,-4.5366,-4.524,-4.5597,-4.5901,-4.5164,-4.6269,-4.8141,-4.8269,-4.818,-4.7941,-4.6962,-4.6166,-4.5848,-4.5508,-4.535,-4.5381,-4.5514,-4.5841,-4.6162,-4.7522,-4.9271,-4.9467,-4.9504,-4.8087,-4.7249,-4.7108,-4.6817,-4.6142,-4.5898,-4.5529,-4.5795,-4.6743,-4.7221,-4.6778,-4.624,-4.574,-4.5893,-4.6201,-4.6855,-4.7567,-4.7048,-4.6567,-4.6336,0.0,0.0,0.0,0.0,0.0,0.0,0.0,0.0,0.0,0.0,0.0,0.0,0.0,0.0,0.0,0.0,0.0,0.0,0.0,0.0,0.0,-0.6074,-1.5783,-1.9062,-2.1214,-2.3157,-2.46,-2.6725,-2.9313,-3.0502,-3.1897,-3.2777,-3.289,-3.3196,-3.3634,-3.3807,-3.3954,-3.4437,-3.602,-3.7395,-3.7855,-3.9425,-3.9605,-4.0024,-4.0345,-4.0417,-4.0342,-4.0457,-4.0336,-3.9944,-3.9208,-3.9154,-3.9599,-4.0063,-4.0504,-4.0519,-4.05,-4.0584,-4.0751,-4.087,-4.0968,-4.1172,-4.1211,-4.1191,-4.1738,-4.2598,-4.334,-4.3608,-4.3951,-4.5586,-4.5566,-4.5704,-4.5285,-4.4983,-4.5769,-4.5793,-4.5438,-4.636,-4.7297,-4.8159,-4.8329,-4.8002,-4.7146,-4.6529,-4.6241,-4.5936,-4.5609,-4.5616,-4.5703,-4.6246,-4.674,-4.7567,-4.9087,-5.004,-4.9929,-4.8808,-4.7612,-4.7239,-4.6809,-4.6153,-4.5769,-4.5741,-4.5764,-4.6223,-4.6471,-4.6605,-4.6297,-4.5682,-4.6086,-4.6682,-4.7451,-4.7894,-4.7144,-4.6624,-4.6528,0.0,0.0,0.0,0.0,0.0,0.0,0.0,0.0,0.0,0.0,0.0,0.0,0.0,0.0,0.0,0.0,0.0,0.0,0.0,0.0,0.0,-0.5771,-1.2882,-2.096,-2.4168,-2.4813,-2.7018,-2.93,-3.0502,-3.1095,-3.16,-3.2162,-3.2699,-3.334,-3.3777,-3.3881,-3.3853,-3.5157,-3.8118,-4.0377,-4.0219,-3.9643,-3.9264,-3.9719,-4.0252,-4.0382,-4.0196,-4.025,-4.0082,-3.9716,-3.9432,-3.9524,-4.0317,-4.0596,-4.0655,-4.0636,-4.0604,-4.0657,-4.0761,-4.0857,-4.1066,-4.1523,-4.1289,-4.1387,-4.2363,-4.4101,-4.5826,-4.5713,-4.5642,-4.5648,-4.5601,-4.5438,-4.514,-4.4921,-4.5125,-4.5462,-4.584,-4.6507,-4.7315,-4.7978,-4.8384,-4.7939,-4.6953,-4.6474,-4.6081,-4.6017,-4.5723,-4.5661,-4.5887,-4.675,-4.7259,-4.749,-4.8548,-5.0106,-5.0294,-4.9716,-4.8692,-4.8048,-4.7532,-4.6908,-4.6589,-4.6377,-4.6355,-4.6278,-4.5874,-4.5951,-4.574,-4.6355,-4.7663,-4.8452,-4.8567,-4.8125,-4.7259,-4.7105,-4.7201,0.0,0.0,0.0,0.0,0.0,0.0,0.0,0.0,0.0,0.0,0.0,0.0,0.0,0.0,0.0,0.0,0.0,0.0,0.0,0.0,0.0,0.0,-0.5366,-2.0272,-2.555,-2.7054,-2.9383,-3.0683,-3.1275,-3.1275,-3.1348,-3.1713,-3.2352,-3.2822,-3.428,-3.4292,-3.3825,-3.4648,-3.8251,-4.0489,-4.0469,-4.0274,-4.026,-4.0341,-4.0367,-4.031,-4.0041,-4.0003,-3.9819,-3.9712,-4.0043,-4.03,-4.0554,-4.0916,-4.1074,-4.1049,-4.0933,-4.0777,-4.085,-4.0908,-4.1254,-4.1699,-4.168,-4.2109,-4.3476,-4.4863,-4.6104,-4.5661,-4.5725,-4.5776,-4.5688,-4.5673,-4.5451,-4.5447,-4.5597,-4.5667,-4.5893,-4.6985,-4.7755,-4.7872,-4.8287,-4.7513,-4.6577,-4.6219,-4.591,-4.5899,-4.5891,-4.5867,-4.6119,-4.702,-4.8105,-4.8452,-4.8798,-5.0221,-5.0644,-5.0087,-4.9663,-4.8912,-4.8164,-4.7607,-4.7357,-4.7048,-4.674,-4.6547,-4.6028,-4.5663,-4.5701,-4.6913,-4.9202,-4.9798,-4.9336,-4.8355,-4.724,-4.7394,-4.774,0.0,0.0,0.0,0.0,0.0,0.0,0.0,0.0,0.0,0.0,0.0,0.0,0.0,0.0,0.0,0.0,0.0,0.0,0.0,0.0,0.0,0.0,0.0,-1.6668,-2.6077,-2.9319,-3.0518,-3.0918,-3.1376,-3.2059,-3.2442,-3.2587,-3.3144,-3.4073,-3.4975,-3.5148,-3.5247,-3.624,-3.8514,-4.0361,-4.0489,-4.0489,-4.0489,-4.0473,-4.0158,-3.996,-3.9835,-3.9641,-3.9618,-3.9668,-4.0175,-4.0489,-4.0617,-4.0918,-4.1191,-4.1191,-4.1103,-4.1026,-4.1026,-4.1019,-4.1333,-4.1875,-4.2305,-4.3457,-4.4883,-4.5742,-4.625,-4.6034,-4.5927,-4.5862,-4.5776,-4.579,-4.587,-4.5937,-4.6091,-4.5556,-4.583,-4.7371,-4.8237,-4.818,-4.798,-4.7089,-4.6344,-4.6122,-4.59,-4.5878,-4.6028,-4.6181,-4.6561,-4.7332,-4.849,-4.9644,-4.999,-5.0587,-5.0683,-5.0452,-5.0375,-4.9682,-4.8568,-4.8126,-4.801,-4.774,-4.7625,-4.7028,-4.6374,-4.6086,-4.5951,-4.6528,-4.7913,-4.8933,-4.9856,-4.8721,-4.7663,-4.774,-4.7932,0.0,0.0,0.0,0.0,0.0,0.0,0.0,0.0,0.0,0.0,0.0,0.0,0.0,0.0,0.0,0.0,0.0,0.0,0.0,0.0,0.0,0.0,0.0,-1.3084,-2.1581,-3.0402,-3.0821,-3.1134,-3.1749,-3.2764,-3.3928,-3.4288,-3.4421,-3.5169,-3.5645,-3.576,-3.586,-3.7116,-3.8827,-4.0043,-4.0422,-4.0489,-4.0283,-4.0043,-3.9768,-3.958,-3.9486,-3.9595,-3.9641,-3.9402,-4.012,-4.0489,-4.0568,-4.0918,-4.1172,-4.1191,-4.1152,-4.1504,-4.1562,-4.1576,-4.1302,-4.1953,-4.3027,-4.4433,-4.4355,-4.5449,-4.6289,-4.625,-4.614,-4.6014,-4.5927,-4.589,-4.596,-4.6197,-4.6415,-4.5651,-4.5273,-4.6663,-4.8203,-4.8965,-4.8336,-4.6642,-4.6079,-4.599,-4.592,-4.5875,-4.6067,-4.6394,-4.6918,-4.7527,-4.8509,-4.9683,-5.0394,-5.0683,-5.0683,-5.0683,-5.0683,-5.0433,-4.9317,-4.8894,-4.8971,-4.9009,-4.8971,-4.8144,-4.7163,-4.7413,-4.7817,-4.7067,-4.6509,-4.8452,-4.9798,-4.8971,-4.8298,-4.8298,-4.8221,0.0,0.0,0.0,0.0,0.0,0.0,0.0,0.0,0.0,0.0,0.0,0.0,0.0,0.0,0.0,0.0,0.0,0.0,0.0,0.0,0.0,0.0,0.0,0.0,-1.2287,-2.6549,-3.0192,-3.1134,-3.1948,-3.409,-3.5539,-3.6622,-3.5812,-3.595,-3.6152,-3.6233,-3.6785,-3.7809,-3.8915,-3.9607,-4.0157,-4.0319,-3.9944,-3.9275,-3.9333,-3.9486,-3.9205,-3.9622,-3.9641,-3.9064,-3.9842,-4.053,-4.0657,-4.0974,-4.1191,-4.1191,-4.1191,-4.1816,-4.2519,-4.1953,-4.1641,-4.2734,-4.3808,-4.416,-4.2793,-4.4844,-4.5879,-4.6094,-4.5937,-4.5867,-4.5864,-4.5974,-4.5846,-4.6153,-4.6493,-4.6767,-4.6141,-4.5737,-4.7327,-4.9086,-4.8664,-4.6839,-4.655,-4.661,-4.6066,-4.5968,-4.6399,-4.6738,-4.6904,-4.7471,-4.8317,-4.9317,-5.0279,-5.0664,-5.0683,-5.0683,-5.0683,-5.0683,-5.0087,-5.0029,-5.024,-5.024,-4.9913,-4.9625,-4.8856,-4.9279,-4.9375,-4.8394,-4.8125,-4.9336,-4.9606,-4.8336,-4.8259,-4.849,-4.849,0.0,0.0,0.0,0.0,0.0,0.0,0.0,0.0,0.0,0.0,0.0,0.0,0.0,0.0,0.0,0.0,0.0,0.0,0.0,0.0,0.0,0.0,0.0,0.0,-1.0331,-2.5285,-3.0336,-3.119,-3.1533,-3.5012,-3.7022,-3.7667,-3.7066,-3.7108,-3.714,-3.7196,-3.7854,-3.8186,-3.8792,-3.9301,-4.0063,-3.9735,-3.9352,-3.9383,-3.9377,-3.9534,-3.9462,-3.9645,-3.9524,-3.9457,-3.9778,-4.0277,-4.0801,-4.1094,-4.1191,-4.1191,-4.1191,-4.209,-4.3086,-4.2266,-4.1426,-4.1601,-4.248,-4.2637,-4.1269,-4.2754,-4.4453,-4.5058,-4.543,-4.5234,-4.5399,-4.5356,-4.5382,-4.5871,-4.6491,-4.717,-4.7062,-4.641,-4.6931,-4.8932,-4.8296,-4.6839,-4.705,-4.7456,-4.67,-4.6106,-4.6622,-4.7075,-4.7334,-4.7567,-4.8432,-4.9067,-4.9971,-5.0625,-5.0683,-5.0683,-5.0683,-5.0683,-5.0683,-5.0683,-5.0683,-5.0644,-5.0394,-5.0317,-5.026,-5.0164,-4.9894,-4.9394,-4.899,-4.8452,-4.7913,-4.7182,-4.7586,-4.8625,-4.8971,0.0,0.0,0.0,0.0,0.0,0.0,0.0,0.0,0.0,0.0,0.0,0.0,0.0,0.0,0.0,0.0,0.0,0.0,0.0,0.0,0.0,0.0,0.0,0.0,-0.6712,-2.1295,-2.9929,-3.1291,-3.2354,-3.6594,-3.826,-3.8674,-3.8511,-3.8295,-3.8282,-3.8491,-3.8689,-3.8707,-3.8792,-3.9008,-3.9735,-3.9242,-3.9064,-3.9505,-3.9778,-3.9757,-3.969,-3.9731,-3.9731,-3.969,-3.9908,-4.0372,-4.0859,-4.1191,-4.1191,-4.1191,-4.1367,-4.2012,-4.2851,-4.2812,-4.1953,-4.2324,-4.1523,-4.1543,-4.1308,-4.2031,-4.4746,-4.5762,-4.5234,-4.4707,-4.5351,-4.552,-4.5648,-4.6179,-4.6854,-4.7437,-4.7236,-4.6816,-4.7649,-4.8753,-4.8139,-4.8262,-4.7358,-4.7789,-4.7805,-4.7187,-4.7336,-4.7852,-4.8277,-4.8471,-4.8702,-4.924,-4.9702,-5.026,-5.0683,-5.0683,-5.0683,-5.0683,-5.0683,-5.0683,-5.0683,-5.0683,-5.0683,-5.0548,-5.0548,-5.0664,-5.0433,-4.999,-4.824,-4.6355,-4.6182,-4.6336,-4.8182,-4.9279,-4.9836,0.0,0.0,0.0,0.0,0.0,0.0,0.0,0.0,0.0,0.0,0.0,0.0,0.0,0.0,0.0,0.0,0.0,0.0,0.0,0.0,0.0,0.0,0.0,0.0,0.0,0.0,-1.9607,-3.1933,-3.3577,-3.7114,-3.8831,-3.9301,-3.9167,-3.9007,-3.9026,-3.8796,-3.8719,-3.8719,-3.8822,-3.8803,-3.8902,-3.8931,-3.9327,-3.9712,-4.012,-4.012,-3.984,-3.9963,-3.9903,-3.969,-4.012,-4.0599,-4.1094,-4.1191,-4.1191,-4.1191,-4.1191,-4.2031,-4.3457,-4.3574,-4.3574,-4.3223,-4.2266,-4.1719,-4.209,-4.375,-4.5625,-4.625,-4.5976,-4.5976,-4.6191,-4.6191,-4.6191,-4.6601,-4.7305,-4.7715,-4.7558,-4.75,-4.8281,-4.9355,-5.0254,-5.0516,-4.889,-4.8047,-4.8489,-4.8451,-4.8335,-4.8567,-4.8971,-4.8913,-4.8894,-4.9606,-4.9952,-5.024,-5.0683,-5.0683,-5.0683,-5.0683,-5.0683,-5.0683,-5.0683,-5.0683,-5.0683,-5.0683,-5.0683,-5.0683,-5.0683,-5.0606,-4.9009,-4.7528,-4.6047,-4.6278,-4.8297,-4.9836,-5.0279,0.0,0.0,0.0,0.0,0.0,0.0,0.0,0.0,0.0,0.0,0.0,0.0,0.0,0.0,0.0,0.0,0.0,0.0,0.0,0.0,0.0,0.0,0.0,0.0,0.0,0.0,-1.9757,-3.2213,-3.3789,-3.7493,-3.9064,-3.9534,-3.969,-3.9626,-3.9462,-3.9352,-3.9432,-3.9645,-3.9242,-3.8719,-3.8822,-3.9427,-3.9925,-4.0175,-4.0406,-4.0302,-3.9983,-4.0213,-4.0101,-3.9802,-4.0247,-4.0713,-4.1094,-4.1191,-4.1191,-4.123,-4.1289,-4.2207,-4.3887,-4.4726,-4.4785,-4.3965,-4.332,-4.2851,-4.3223,-4.4902,-4.5976,-4.6367,-4.6484,-4.6465,-4.6269,-4.6289,-4.6465,-4.7246,-4.7871,-4.832,-4.8398,-4.8379,-4.8867,-5.0176,-5.123,-5.0996,-4.9881,-4.9144,-4.9375,-4.9394,-4.9202,-4.9067,-4.9336,-4.8856,-4.8663,-4.9817,-5.0452,-5.0567,-5.0683,-5.0683,-5.0683,-5.0683,-5.0683,-5.0683,-5.0683,-5.0683,-5.0683,-5.0683,-5.0683,-5.0683,-5.0683,-5.0625,-5.0298,-4.9163,-4.7625,-4.6778,-4.8182,-4.9625,-5.049,0.0,0.0,0.0,0.0,0.0,0.0,0.0,0.0,0.0,0.0,0.0,0.0,0.0,0.0,0.0,0.0,0.0,0.0,0.0,0.0,0.0,0.0,0.0,0.0,0.0,0.0,-1.9805,-3.2903,-3.4007,-3.7935,-3.9612,-3.9882,-4.0062,-4.0082,-3.9964,-3.9965,-4.0043,-4.0157,-3.9716,-3.9457,-3.9622,-3.9985,-4.0422,-4.0473,-4.0473,-4.0406,-4.0339,-4.0319,-4.0317,-4.0137,-4.0327,-4.077,-4.1074,-4.1191,-4.1191,-4.123,-4.2656,-4.3183,-4.3984,-4.5508,-4.5195,-4.4141,-4.4295,-4.457,-4.4707,-4.5723,-4.6094,-4.6406,-4.6797,-4.6914,-4.6875,-4.6855,-4.7441,-4.8242,-4.8691,-4.916,-4.9062,-4.9043,-4.9707,-5.1016,-5.1172,-5.0937,-5.0786,-5.0641,-5.0356,-5.0221,-5.0086,-4.9894,-4.9644,-4.9086,-4.8836,-4.9913,-5.0644,-5.0664,-5.0683,-5.0683,-5.0683,-5.0683,-5.0683,-5.0683,-5.0683,-5.0683,-5.0683,-5.0683,-5.0702,-5.0702,-5.0683,-5.0567,-5.0433,-5.0048,-4.9125,-4.8625,-4.8625,-4.9452,-5.0587,0.0,0.0,0.0,0.0,0.0,0.0,0.0,0.0,0.0,0.0,0.0,0.0,0.0,0.0,0.0,0.0,0.0,0.0,0.0,0.0,0.0,0.0,0.0,0.0,0.0,0.0,-2.0679,-3.4661,-3.4674,-3.821,-4.0136,-4.0195,-4.0302,-4.0353,-4.0353,-4.0353,-4.0406,-4.037,-4.03,-4.0101,-4.023,-4.0353,-4.0489,-4.0489,-4.0489,-4.0473,-4.0457,-4.0485,-4.0504,-4.0501,-4.066,-4.0914,-4.1094,-4.1191,-4.1191,-4.1992,-4.416,-4.375,-4.3576,-4.4996,-4.5323,-4.4507,-4.5151,-4.5859,-4.6152,-4.6172,-4.6465,-4.709,-4.7695,-4.7832,-4.791,-4.8359,-4.8828,-4.9355,-4.9785,-4.9844,-4.9629,-4.9961,-5.0742,-5.123,-5.0937,-5.0773,-5.0739,-5.0683,-5.0683,-5.0587,-5.0414,-5.0394,-5.0067,-4.9413,-4.9394,-5.0144,-5.0683,-5.0683,-5.0683,-5.0683,-5.0683,-5.0683,-5.0683,-5.0683,-5.0683,-5.0818,-5.1029,-5.1048,-5.0798,-5.0702,-5.0683,-5.0741,-5.0798,-5.0414,-5.0471,-4.9663,-4.9413,-4.9836,-5.0683,0.0,0.0,0.0,0.0,0.0,0.0,0.0,0.0,0.0,0.0,0.0,0.0,0.0,0.0,0.0,0.0,0.0,0.0,0.0,0.0,0.0,0.0,0.0,0.0,0.0,0.0,-2.1198,-3.4852,-3.7588,-3.9926,-4.0485,-4.0422,-4.0466,-4.05,-4.0504,-4.0489,-4.0489,-4.0489,-4.0489,-4.0489,-4.0489,-4.0489,-4.0489,-4.0489,-4.0489,-4.0489,-4.0504,-4.0602,-4.0602,-4.0549,-4.0703,-4.0937,-4.1172,-4.1191,-4.1211,-4.125,-4.2207,-4.2478,-4.2831,-4.3784,-4.4386,-4.4294,-4.4638,-4.5234,-4.5801,-4.6406,-4.6816,-4.7695,-4.8535,-4.8789,-4.8948,-4.9316,-4.9827,-5.0298,-5.0613,-5.0527,-5.0371,-5.0625,-5.1348,-5.1133,-5.0844,-5.072,-5.0702,-5.0683,-5.0683,-5.0683,-5.0683,-5.0683,-5.0548,-4.9894,-4.976,-5.0491,-5.0683,-5.0683,-5.0683,-5.0683,-5.0683,-5.0683,-5.0683,-5.0721,-5.0798,-5.0991,-5.1375,-5.151,-5.1395,-5.1048,-5.0683,-5.1029,-5.1895,-5.2279,-5.2279,-5.1125,-5.0337,-5.0798,-5.0952,0.0,0.0,0.0,0.0,0.0,0.0,0.0,0.0,0.0,0.0,0.0,0.0,0.0,0.0,0.0,0.0,0.0,0.0,0.0,0.0,0.0,0.0,0.0,0.0,0.0,0.0,0.0,-2.6395,-3.5647,-4.0003,-4.0604,-4.0582,-4.0584,-4.0549,-4.053,-4.0489,-4.0489,-4.0489,-4.0489,-4.0489,-4.0489,-4.0489,-4.0489,-4.0489,-4.0489,-4.0489,-4.0519,-4.0649,-4.0655,-4.0616,-4.0788,-4.0918,-4.1133,-4.1191,-4.1191,-4.1211,-4.123,-4.1592,-4.1944,-4.3025,-4.3456,-4.3816,-4.4258,-4.5351,-4.584,-4.6367,-4.7344,-4.8359,-4.918,-4.982,-4.9962,-5.0146,-5.0684,-5.1201,-5.1215,-5.1229,-5.1269,-5.1328,-5.125,-5.1035,-5.0865,-5.0738,-5.0683,-5.0683,-5.0683,-5.0683,-5.0683,-5.0683,-5.0683,-5.0452,-5.0279,-5.0606,-5.0683,-5.0683,-5.0683,-5.0683,-5.0683,-5.0683,-5.0683,-5.0741,-5.0856,-5.1337,-5.1895,-5.2068,-5.2106,-5.2068,-5.2318,-5.2779,-5.3472,-5.376,-5.3818,-5.2991,-5.2125,-5.1875,-5.1818,0.0,0.0,0.0,0.0,0.0,0.0,0.0,0.0,0.0,0.0,0.0,0.0,0.0,0.0,0.0,0.0,0.0,0.0,0.0,0.0,0.0,0.0,0.0,0.0,0.0,0.0,0.0,-1.8817,-3.5334,-4.061,-4.0653,-4.0703,-4.0722,-4.069,-4.0584,-4.0577,-4.061,-4.0676,-4.0582,-4.0489,-4.0489,-4.0489,-4.0489,-4.0489,-4.0504,-4.0504,-4.054,-4.0642,-4.0742,-4.0779,-4.087,-4.0972,-4.1113,-4.1094,-4.1094,-4.1113,-4.0996,-4.1214,-4.1552,-4.2377,-4.2624,-4.3378,-4.459,-4.5508,-4.5937,-4.625,-4.7207,-4.8711,-4.9609,-5.0199,-5.0419,-5.0527,-5.0927,-5.1152,-5.1187,-5.1258,-5.1367,-5.1387,-5.1328,-5.1133,-5.1,-5.0863,-5.0683,-5.0683,-5.0683,-5.0683,-5.0683,-5.0683,-5.0683,-5.0683,-5.0779,-5.076,-5.0702,-5.0702,-5.0683,-5.0683,-5.0683,-5.0683,-5.0741,-5.0933,-5.1164,-5.176,-5.2472,-5.2991,-5.3568,-5.4184,-5.4568,-5.4626,-5.4607,-5.4934,-5.4914,-5.4645,-5.4087,-5.3337,-5.276,0.0,0.0,0.0,0.0,0.0,0.0,0.0,0.0,0.0,0.0,0.0,0.0,0.0,0.0,0.0,0.0,0.0,0.0,0.0,0.0,0.0,0.0,0.0,0.0,0.0,0.0,0.0,-1.2579,-3.0956,-3.8009,-4.0623,-4.0692,-4.0752,-4.0722,-4.0743,-4.0743,-4.0788,-4.0909,-4.0721,-4.059,-4.0582,-4.0515,-4.0489,-4.0489,-4.0504,-4.054,-4.0617,-4.0722,-4.077,-4.0809,-4.1019,-4.1128,-4.1191,-4.0855,-4.0896,-4.1072,-4.0959,-4.1237,-4.1694,-4.1985,-4.1973,-4.2555,-4.3646,-4.487,-4.5683,-4.6074,-4.7051,-4.8672,-4.9898,-5.0439,-5.0831,-5.0922,-5.0991,-5.1044,-5.1117,-5.1249,-5.1387,-5.1387,-5.1387,-5.1269,-5.1133,-5.0966,-5.0773,-5.0683,-5.0683,-5.0683,-5.0683,-5.0683,-5.0683,-5.0721,-5.0991,-5.0971,-5.0741,-5.0702,-5.0702,-5.0798,-5.0856,-5.0914,-5.0991,-5.1202,-5.1548,-5.2529,-5.353,-5.453,-5.528,-5.5395,-5.5395,-5.5434,-5.553,-5.5684,-5.5607,-5.5164,-5.5011,-5.4414,-5.3857,0.0,0.0,0.0,0.0,0.0,0.0,0.0,0.0,0.0,0.0,0.0,0.0,0.0,0.0,0.0,0.0,0.0,0.0,0.0,0.0,0.0,0.0,0.0,0.0,0.0,0.0,0.0,-0.9406,-2.4005,-3.6978,-4.0588,-4.0696,-4.0762,-4.0855,-4.0937,-4.0976,-4.1035,-4.117,-4.0898,-4.082,-4.0742,-4.0636,-4.0515,-4.0489,-4.0515,-4.0582,-4.0672,-4.0771,-4.0805,-4.0773,-4.0834,-4.0831,-4.0827,-4.066,-4.0641,-4.079,-4.0971,-4.1354,-4.1986,-4.208,-4.1874,-4.2806,-4.2951,-4.4268,-4.5624,-4.6113,-4.6973,-4.8547,-5.0199,-5.0928,-5.0894,-5.0981,-5.0865,-5.0856,-5.1035,-5.1206,-5.1328,-5.1387,-5.1387,-5.1348,-5.118,-5.0966,-5.0805,-5.0683,-5.0683,-5.0683,-5.0683,-5.0683,-5.0683,-5.0721,-5.101,-5.1144,-5.0894,-5.0741,-5.0683,-5.0894,-5.1125,-5.1183,-5.1375,-5.2087,-5.2799,-5.3703,-5.4664,-5.5241,-5.5607,-5.5626,-5.5665,-5.5684,-5.5684,-5.5684,-5.5645,-5.553,-5.5434,-5.5278,-5.4732,0.0,0.0,0.0,0.0,0.0,0.0,0.0,0.0,0.0,0.0,0.0,0.0,0.0,0.0,0.0,0.0,0.0,0.0,0.0,0.0,0.0,0.0,0.0,0.0,0.0,0.0,0.0,0.0,-0.5366,-2.5159,-4.0582,-4.0712,-4.0877,-4.1035,-4.1152,-4.1191,-4.1191,-4.1191,-4.1113,-4.1152,-4.0996,-4.0762,-4.0604,-4.053,-4.054,-4.0604,-4.0721,-4.079,-4.0836,-4.0775,-4.0688,-4.0621,-4.059,-4.0545,-4.053,-4.0655,-4.1291,-4.1951,-4.2575,-4.2456,-4.3096,-4.3737,-4.3393,-4.3875,-4.5291,-4.6251,-4.7131,-4.8814,-5.0455,-5.0969,-5.0947,-5.0899,-5.0797,-5.0768,-5.0975,-5.1167,-5.1289,-5.1387,-5.1387,-5.1387,-5.123,-5.1016,-5.0889,-5.0773,-5.0702,-5.0721,-5.0702,-5.0683,-5.0702,-5.076,-5.0933,-5.1048,-5.0991,-5.0856,-5.1318,-5.1818,-5.2414,-5.2049,-5.2395,-5.3203,-5.3953,-5.4549,-5.5049,-5.5415,-5.5684,-5.5684,-5.5684,-5.5684,-5.5684,-5.5684,-5.5665,-5.5645,-5.5564,-5.5423,-5.5303,0.0,0.0,0.0,0.0,0.0,0.0,0.0,0.0,0.0,0.0,0.0,0.0,0.0,0.0,0.0,0.0,0.0,0.0,0.0,0.0,0.0,0.0,0.0,0.0,0.0,0.0,0.0,0.0,0.0,-2.5284,-4.05,-4.0544,-4.0761,-4.0957,-4.1172,-4.1191,-4.1191,-4.1191,-4.1191,-4.1191,-4.1094,-4.0882,-4.0679,-4.0668,-4.0752,-4.0828,-4.0902,-4.095,-4.1023,-4.0973,-4.0738,-4.0563,-4.0489,-4.0489,-4.0489,-4.087,-4.1517,-4.2652,-4.3082,-4.3028,-4.3778,-4.4739,-4.4427,-4.4114,-4.5273,-4.6103,-4.7572,-4.9957,-5.1083,-5.0869,-5.0816,-5.0794,-5.0717,-5.0829,-5.0996,-5.1191,-5.1348,-5.1387,-5.1387,-5.1387,-5.1348,-5.1191,-5.1074,-5.0933,-5.0778,-5.0767,-5.0721,-5.0721,-5.0683,-5.0779,-5.0856,-5.0952,-5.1029,-5.2876,-5.4126,-5.4049,-5.428,-5.3703,-5.3318,-5.3933,-5.453,-5.5088,-5.553,-5.5645,-5.5684,-5.5684,-5.5684,-5.5684,-5.5684,-5.5684,-5.5684,-5.5684,-5.5599,-5.5446,-5.5212]},{"header":{"parameterUnit":"m.s-1","parameterCategory":1,"la1":31.0,"la2":29.5877,"lo1":-88.7671,"lo2":-86.6584,"dy":0.0162,"dx":0.0185,"nx":115,"ny":88,"refTime":"2024-04-30T12:00:00:Z","depth":0,"parameterNumber":3,"parameterNumberName":"V-component_of_WINDS"},"data":[0.0,0.0,0.0,0.0,0.0,0.0,0.0,0.0,0.0,0.0,0.0,0.0,0.0,0.0,0.0,0.0,0.0,0.0,0.0,0.0,0.0,0.0,0.0,0.0,0.0,0.0,0.0,0.0,0.0,0.0,0.0,0.0,0.0,0.0,0.0,0.0,0.0,0.0,0.0,0.0,0.0,0.0,0.0,0.0,0.0,0.0,0.0,0.0,0.0,0.0,0.0,0.0,0.0,0.0,0.0,0.0,0.0,0.0,0.0,0.0,0.0,0.0,0.0,0.0,0.0,0.0,0.0,0.0,0.0,0.0,0.0,0.0,0.0,0.0,0.0,0.0,0.0,0.0,0.0,0.0,0.0,0.0,0.0,0.0,0.0,0.0,0.0,0.0,0.0,0.0,0.0,0.0,0.0,0.0,0.0,0.0,0.0,0.0,0.0,0.0,0.0,0.0,0.0,0.0,0.0,0.0,0.0,0.0,0.0,0.0,0.0,0.0,0.0,0.0,0.0,0.0,0.0,0.0,0.0,0.0,0.0,0.0,0.0,0.0,0.0,0.0,0.0,0.0,0.0,0.0,0.0,0.0,0.0,0.0,0.0,0.0,0.0,0.0,0.0,0.0,0.0,0.0,0.0,0.0,0.0,0.0,0.0,0.0,0.0,0.0,0.0,0.0,0.0,0.0,0.0,0.0,0.0,0.0,0.0,0.0,0.0,0.0,0.0,0.0,0.0,0.0,0.0,0.0,0.0,0.0,0.0,0.0,0.0,0.0,0.0,0.0,0.0,0.0,0.0,0.0,0.0,0.0,0.0,0.0,0.0,0.0,0.0,0.0,0.0,0.0,0.0,0.0,0.0,0.0,0.0,0.0,0.0,0.0,0.0,0.0,0.0,0.0,0.0,0.0,0.0,0.0,0.0,0.0,0.0,0.0,0.0,0.0,0.0,0.0,0.0,0.0,0.0,0.0,0.0,0.0,0.0,0.0,0.0,0.0,0.0,0.0,0.0,0.0,0.0,0.0,0.0,0.0,0.0,0.0,0.0,0.0,0.0,0.0,0.0,0.0,0.0,0.0,0.0,0.0,0.0,0.0,0.0,0.0,0.0,0.0,0.0,0.0,0.0,0.0,0.0,0.0,0.0,0.0,0.0,0.0,0.0,0.0,0.0,0.0,0.0,0.0,0.0,0.0,0.0,0.0,0.0,0.0,0.0,0.0,0.0,0.0,0.0,0.0,0.0,0.0,0.0,0.0,0.0,0.0,0.0,0.0,0.0,0.0,0.0,0.0,0.0,0.0,0.0,0.0,0.0,0.0,0.0,0.0,0.0,0.0,0.0,0.0,0.0,0.0,0.0,0.0,0.0,0.0,0.0,0.0,0.0,0.0,0.0,0.0,0.0,0.0,0.0,0.0,0.0,0.0,0.0,0.0,0.0,0.0,0.0,0.0,0.0,0.0,0.0,0.0,0.0,0.0,0.0,0.0,0.0,0.0,0.0,0.0,0.0,0.0,0.0,0.0,0.0,0.0,0.0,0.0,0.0,0.0,0.0,0.0,0.0,0.0,0.0,0.0,0.0,0.0,0.0,0.0,0.0,0.0,0.0,0.0,0.0,0.0,0.0,0.0,0.0,0.0,0.0,0.0,0.0,0.0,0.0,0.0,0.0,0.0,0.0,0.0,0.0,0.0,0.0,0.0,0.0,0.0,0.0,0.0,0.0,0.0,0.0,0.0,0.0,0.0,0.0,0.0,0.0,0.0,0.0,0.0,0.0,0.0,0.0,0.0,0.0,0.0,0.0,0.0,0.0,0.0,0.0,0.0,0.0,0.0,0.0,0.0,0.0,0.0,0.0,0.0,0.0,0.0,0.0,0.0,0.0,0.0,0.0,0.0,0.0,0.0,0.0,0.0,0.0,0.0,0.0,0.0,0.0,0.0,0.0,0.0,0.0,0.0,0.0,0.0,0.0,0.0,0.0,0.0,0.0,0.0,0.0,0.0,0.0,0.0,0.0,0.0,0.0,0.0,0.0,0.0,0.0,0.0,0.0,0.0,0.0,0.0,0.0,0.0,0.0,0.0,0.0,0.0,0.0,0.0,0.0,0.0,0.0,0.0,0.0,0.0,0.0,0.0,0.0,0.0,0.0,0.0,0.0,0.0,0.0,0.0,0.0,0.0,0.0,0.0,0.0,0.0,0.0,0.0,0.0,0.0,0.0,0.0,0.0,0.0,0.0,0.0,0.0,0.0,0.0,0.0,0.0,0.0,0.0,0.0,0.0,0.0,0.0,0.0,0.0,0.0,0.0,0.0,0.0,0.0,0.0,0.0,0.0,0.0,0.0,0.0,0.0,0.0,0.0,0.0,0.0,0.0,0.0,0.0,0.0,0.0,0.0,0.0,0.0,0.0,0.0,0.0,0.0,0.0,0.0,0.0,0.0,0.0,0.0,0.0,0.0,0.0,0.0,0.0,0.0,0.0,0.0,0.0,0.0,0.0,0.0,0.0,0.0,0.0,0.0,0.0,0.0,0.0,0.0,0.0,0.0,0.0,0.0,0.0,0.0,0.0,0.0,0.0,0.0,0.0,0.0,0.0,0.0,0.0,0.0,0.0,0.0,0.0,0.0,0.0,0.0,0.0,0.0,0.0,0.0,0.0,0.0,0.0,0.0,0.0,0.0,0.0,0.0,0.0,0.0,0.0,0.0,0.0,0.0,0.0,0.0,0.0,0.0,0.0,0.0,0.0,0.0,0.0,0.0,0.0,0.0,0.0,0.0,0.0,0.0,0.0,0.0,0.0,0.0,0.0,0.0,0.0,0.0,0.0,0.0,0.0,0.0,0.0,0.0,0.0,0.0,0.0,0.0,0.0,0.0,0.0,0.0,0.0,0.0,0.0,0.0,0.0,0.0,0.0,0.0,0.0,0.0,0.0,0.0,0.0,0.0,0.0,0.0,0.0,0.0,0.0,0.0,0.0,0.0,0.0,0.0,0.0,0.0,0.0,0.0,0.0,0.0,0.0,0.0,0.0,0.0,0.0,0.0,0.0,0.0,0.0,0.0,0.0,0.0,0.0,0.0,0.0,0.0,0.0,0.0,0.0,0.0,0.0,0.0,0.0,0.0,0.0,0.0,0.0,0.0,0.0,0.0,0.0,0.0,0.0,0.0,0.0,0.0,0.0,0.0,0.0,0.0,0.0,0.0,0.0,0.0,0.0,0.0,0.0,0.0,0.0,0.0,0.0,0.0,0.0,0.0,0.0,0.0,0.0,0.0,0.0,0.0,0.0,0.0,0.0,0.0,0.0,0.0,0.0,0.0,0.0,0.0,0.0,0.0,0.0,0.0,0.0,0.0,0.0,0.0,0.0,0.0,0.0,0.0,0.0,0.0,0.0,0.0,0.0,0.0,0.0,0.0,0.0,0.0,0.0,0.0,0.0,0.0,0.0,0.0,0.0,0.0,0.0,0.0,0.0,0.0,0.0,0.0,0.0,0.0,0.0,0.0,0.0,0.0,0.0,0.0,0.0,0.0,0.0,0.0,0.0,0.0,0.0,0.0,0.0,0.0,0.0,0.0,0.0,0.0,0.0,0.0,0.0,0.0,0.0,0.0,0.0,0.0,0.0,0.0,0.0,0.0,0.0,0.0,0.0,0.0,0.0,0.0,0.0,0.0,0.0,0.0,0.0,0.0,0.0,0.0,0.0,0.0,0.0,0.0,0.0,0.0,0.0,0.0,0.0,0.0,0.0,0.0,0.0,0.0,0.0,0.0,0.0,0.0,0.0,0.0,0.0,0.0,0.0,0.0,0.0,0.0,0.0,0.0,0.0,0.0,0.0,0.0,0.0,0.0,0.0,0.0,0.0,0.0,0.0,0.0,0.0,0.0,0.0,0.0,0.0,0.0,0.0,0.0,0.0,0.0,0.0,0.0,0.0,0.0,0.0,0.0,0.0,0.0,0.0,0.0,0.0,0.0,0.0,0.0,0.0,0.0,0.0,0.0,0.0,0.0,0.0,0.0,0.0,0.0,0.0,0.0,0.0,0.0,0.0,0.0,0.0,0.0,0.0,0.0,0.0,0.0,0.0,0.0,0.0,0.0,0.0,0.0,0.0,0.0,0.0,0.0,0.0,0.0,0.0,0.0,0.0,0.0,0.0,0.0,0.0,0.0,0.0,0.0,0.0,0.0,0.0,0.0,0.0,0.0,0.0,0.0,0.0,0.0,0.0,0.0,0.0,0.0,0.0,0.0,0.0,0.0,0.0,0.0,0.0,0.0,0.0,0.0,0.0,-2.1402,0.0,0.0,0.0,0.0,0.0,0.0,0.0,0.0,0.0,0.0,0.0,0.0,0.0,0.0,0.0,0.0,0.0,0.0,0.0,0.0,0.0,0.0,0.0,0.0,0.0,0.0,0.0,0.0,0.0,0.0,0.0,0.0,0.0,0.0,0.0,0.0,0.0,0.0,0.0,0.0,0.0,0.0,0.0,0.0,0.0,0.0,0.0,0.0,0.0,0.0,0.0,0.0,0.0,0.0,0.0,0.0,0.0,0.0,0.0,0.0,0.0,0.0,0.0,0.0,0.0,0.0,0.0,0.0,0.0,0.0,0.0,0.0,0.0,0.0,0.0,0.0,0.0,0.0,0.0,0.0,0.0,0.0,0.0,0.0,0.0,0.0,0.0,0.0,0.0,0.0,0.0,0.0,0.0,0.0,0.0,0.0,0.0,0.0,0.0,0.0,0.0,0.0,0.0,0.0,0.0,0.0,0.0,0.0,0.0,0.0,-2.3072,-2.4405,-2.323,-2.2473,-2.2319,0.0,0.0,0.0,0.0,0.0,0.0,0.0,0.0,0.0,0.0,0.0,0.0,0.0,0.0,0.0,0.0,0.0,0.0,0.0,0.0,0.0,0.0,0.0,0.0,0.0,0.0,0.0,0.0,0.0,0.0,0.0,0.0,0.0,0.0,0.0,0.0,0.0,0.0,0.0,0.0,0.0,0.0,0.0,0.0,0.0,0.0,0.0,0.0,0.0,0.0,0.0,0.0,0.0,0.0,0.0,0.0,0.0,0.0,0.0,0.0,0.0,0.0,0.0,0.0,0.0,0.0,0.0,0.0,0.0,0.0,0.0,0.0,0.0,0.0,0.0,0.0,0.0,0.0,0.0,0.0,0.0,0.0,0.0,0.0,0.0,0.0,0.0,0.0,0.0,0.0,0.0,0.0,0.0,0.0,0.0,0.0,0.0,0.0,0.0,0.0,0.0,0.0,0.0,0.0,0.0,0.0,0.0,0.0,0.0,0.0,0.0,0.0,-2.3809,-2.3565,-2.3213,0.0,0.0,0.0,0.0,0.0,0.0,0.0,0.0,0.0,0.0,0.0,0.0,0.0,0.0,0.0,0.0,0.0,0.0,0.0,0.0,0.0,0.0,0.0,0.0,0.0,0.0,0.0,0.0,0.0,0.0,0.0,0.0,0.0,0.0,0.0,0.0,0.0,0.0,0.0,0.0,0.0,0.0,0.0,0.0,0.0,0.0,0.0,0.0,0.0,0.0,0.0,0.0,0.0,0.0,0.0,0.0,0.0,0.0,0.0,0.0,0.0,0.0,0.0,0.0,0.0,0.0,0.0,0.0,0.0,0.0,0.0,0.0,0.0,0.0,0.0,0.0,0.0,0.0,0.0,0.0,0.0,0.0,0.0,0.0,0.0,0.0,0.0,0.0,0.0,0.0,0.0,0.0,0.0,0.0,0.0,0.0,0.0,0.0,0.0,0.0,0.0,0.0,0.0,0.0,0.0,0.0,0.0,0.0,0.0,0.0,-2.3914,-2.3324,-2.4575,0.0,-2.3841,0.0,0.0,0.0,0.0,0.0,0.0,0.0,0.0,0.0,0.0,0.0,0.0,0.0,0.0,0.0,0.0,0.0,0.0,0.0,0.0,0.0,0.0,0.0,0.0,0.0,0.0,0.0,0.0,0.0,0.0,0.0,0.0,0.0,0.0,0.0,0.0,0.0,0.0,0.0,0.0,0.0,0.0,0.0,0.0,0.0,0.0,0.0,0.0,0.0,0.0,0.0,0.0,0.0,0.0,0.0,0.0,0.0,0.0,0.0,0.0,0.0,0.0,0.0,0.0,0.0,0.0,0.0,0.0,0.0,0.0,0.0,0.0,0.0,0.0,0.0,0.0,0.0,0.0,0.0,0.0,0.0,0.0,0.0,0.0,0.0,0.0,0.0,0.0,0.0,0.0,0.0,0.0,0.0,0.0,0.0,0.0,0.0,0.0,0.0,0.0,0.0,0.0,0.0,0.0,0.0,0.0,0.0,0.0,0.0,0.0,-2.6245,-2.4596,-2.4706,-2.4215,0.0,0.0,0.0,0.0,0.0,0.0,0.0,0.0,0.0,0.0,0.0,0.0,0.0,0.0,0.0,0.0,0.0,0.0,0.0,0.0,0.0,0.0,0.0,0.0,0.0,0.0,0.0,0.0,0.0,0.0,0.0,0.0,0.0,0.0,0.0,0.0,0.0,0.0,0.0,0.0,0.0,0.0,0.0,0.0,0.0,0.0,0.0,0.0,0.0,0.0,0.0,0.0,0.0,0.0,0.0,0.0,0.0,0.0,0.0,0.0,0.0,0.0,0.0,0.0,0.0,0.0,0.0,0.0,0.0,0.0,0.0,0.0,0.0,0.0,0.0,0.0,0.0,0.0,0.0,0.0,0.0,0.0,0.0,0.0,0.0,0.0,0.0,0.0,0.0,0.0,0.0,0.0,0.0,0.0,0.0,0.0,0.0,0.0,0.0,0.0,0.0,0.0,0.0,0.0,0.0,0.0,0.0,0.0,0.0,0.0,-2.5942,-2.6423,-2.4933,-2.3954,-2.317,-2.2437,0.0,0.0,0.0,0.0,0.0,0.0,0.0,0.0,0.0,0.0,0.0,0.0,0.0,0.0,0.0,0.0,0.0,0.0,0.0,0.0,0.0,0.0,0.0,0.0,0.0,0.0,0.0,0.0,0.0,0.0,0.0,0.0,0.0,0.0,0.0,0.0,0.0,0.0,0.0,0.0,0.0,0.0,0.0,0.0,0.0,0.0,0.0,0.0,0.0,0.0,0.0,0.0,0.0,0.0,0.0,0.0,0.0,0.0,0.0,0.0,0.0,0.0,0.0,0.0,0.0,0.0,0.0,0.0,0.0,0.0,0.0,0.0,0.0,0.0,0.0,0.0,0.0,0.0,0.0,0.0,0.0,0.0,0.0,0.0,0.0,0.0,0.0,0.0,0.0,0.0,0.0,0.0,0.0,0.0,0.0,0.0,0.0,0.0,0.0,0.0,0.0,0.0,0.0,0.0,0.0,0.0,0.0,0.0,-2.246,-2.262,-2.2869,-2.3255,-2.215,-2.1906,0.0,0.0,0.0,0.0,0.0,0.0,0.0,0.0,0.0,0.0,0.0,0.0,0.0,0.0,0.0,0.0,0.0,0.0,0.0,0.0,0.0,0.0,0.0,0.0,0.0,0.0,0.0,0.0,0.0,0.0,0.0,0.0,0.0,0.0,0.0,0.0,0.0,0.0,0.0,0.0,0.0,0.0,0.0,0.0,0.0,0.0,0.0,0.0,0.0,0.0,0.0,0.0,0.0,0.0,0.0,0.0,0.0,0.0,0.0,0.0,0.0,0.0,0.0,0.0,0.0,0.0,0.0,0.0,0.0,0.0,0.0,0.0,0.0,0.0,0.0,0.0,0.0,0.0,0.0,0.0,0.0,0.0,0.0,0.0,0.0,0.0,0.0,0.0,0.0,0.0,0.0,0.0,0.0,0.0,0.0,0.0,0.0,0.0,0.0,0.0,0.0,0.0,0.0,0.0,0.0,0.0,0.0,0.0,0.0,-2.2406,-2.4137,-2.3777,-2.1197,-2.1516,-2.1861,0.0,0.0,0.0,0.0,0.0,0.0,0.0,0.0,0.0,0.0,0.0,0.0,0.0,0.0,0.0,0.0,0.0,0.0,0.0,0.0,0.0,0.0,0.0,0.0,0.0,0.0,0.0,0.0,0.0,0.0,0.0,0.0,0.0,0.0,0.0,0.0,0.0,0.0,0.0,0.0,0.0,0.0,0.0,0.0,0.0,0.0,0.0,0.0,0.0,0.0,0.0,0.0,0.0,0.0,0.0,0.0,0.0,0.0,0.0,0.0,0.0,0.0,0.0,0.0,0.0,0.0,0.0,0.0,0.0,0.0,0.0,0.0,0.0,0.0,0.0,0.0,0.0,0.0,0.0,0.0,0.0,0.0,0.0,0.0,0.0,0.0,0.0,0.0,0.0,0.0,0.0,0.0,0.0,0.0,0.0,0.0,0.0,0.0,0.0,0.0,0.0,0.0,0.0,0.0,0.0,0.0,0.0,0.0,0.0,-2.2378,0.0,-2.3526,-2.0029,-2.0409,-2.0932,0.0,0.0,0.0,0.0,0.0,0.0,0.0,0.0,0.0,0.0,0.0,0.0,0.0,0.0,0.0,0.0,0.0,0.0,0.0,0.0,0.0,0.0,0.0,0.0,0.0,0.0,0.0,0.0,0.0,0.0,0.0,0.0,0.0,0.0,0.0,0.0,0.0,0.0,0.0,0.0,0.0,0.0,0.0,0.0,0.0,0.0,0.0,0.0,0.0,0.0,0.0,0.0,0.0,0.0,0.0,0.0,0.0,0.0,0.0,0.0,0.0,0.0,0.0,0.0,0.0,0.0,0.0,0.0,0.0,0.0,0.0,0.0,0.0,0.0,0.0,0.0,0.0,0.0,0.0,0.0,0.0,0.0,0.0,0.0,0.0,0.0,0.0,0.0,0.0,0.0,0.0,0.0,0.0,0.0,0.0,0.0,0.0,0.0,0.0,0.0,0.0,0.0,0.0,0.0,0.0,0.0,0.0,0.0,-2.2316,-2.2338,-2.2394,-2.1768,-1.9943,-1.8983,-1.8986,0.0,0.0,0.0,0.0,0.0,0.0,0.0,0.0,0.0,0.0,0.0,0.0,0.0,0.0,0.0,0.0,0.0,0.0,0.0,0.0,0.0,0.0,0.0,0.0,0.0,0.0,0.0,0.0,0.0,0.0,0.0,0.0,0.0,0.0,0.0,0.0,0.0,0.0,0.0,0.0,0.0,0.0,0.0,0.0,0.0,0.0,0.0,0.0,0.0,0.0,0.0,0.0,0.0,0.0,0.0,0.0,0.0,0.0,0.0,0.0,0.0,0.0,0.0,0.0,0.0,0.0,0.0,0.0,0.0,0.0,0.0,0.0,0.0,0.0,0.0,0.0,0.0,0.0,0.0,0.0,0.0,0.0,0.0,0.0,0.0,0.0,0.0,0.0,0.0,0.0,0.0,0.0,0.0,0.0,0.0,0.0,0.0,0.0,0.0,0.0,0.0,0.0,0.0,0.0,0.0,0.0,0.0,0.0,0.0,-2.3188,-2.3196,-2.3422,-2.3668,-2.0872,-2.0293,0.0,0.0,0.0,0.0,0.0,0.0,0.0,0.0,0.0,0.0,0.0,0.0,0.0,0.0,0.0,0.0,0.0,0.0,0.0,0.0,0.0,0.0,0.0,0.0,0.0,0.0,0.0,0.0,0.0,0.0,0.0,0.0,0.0,0.0,0.0,0.0,0.0,0.0,0.0,0.0,0.0,0.0,0.0,0.0,0.0,0.0,0.0,0.0,0.0,0.0,0.0,0.0,0.0,0.0,0.0,0.0,0.0,0.0,0.0,0.0,0.0,0.0,0.0,0.0,0.0,0.0,0.0,0.0,0.0,0.0,0.0,0.0,0.0,0.0,0.0,0.0,0.0,0.0,0.0,0.0,0.0,0.0,0.0,0.0,0.0,0.0,0.0,0.0,0.0,0.0,0.0,0.0,0.0,0.0,0.0,0.0,0.0,0.0,0.0,0.0,0.0,0.0,0.0,0.0,0.0,0.0,0.0,0.0,0.0,-2.2164,-2.3101,-2.3774,-2.4148,-2.273,-2.206,-2.2335,0.0,0.0,0.0,0.0,0.0,0.0,0.0,0.0,0.0,0.0,0.0,0.0,0.0,0.0,0.0,0.0,0.0,0.0,0.0,0.0,0.0,0.0,0.0,0.0,0.0,0.0,0.0,0.0,0.0,0.0,0.0,0.0,0.0,0.0,0.0,0.0,0.0,0.0,0.0,0.0,0.0,0.0,0.0,0.0,0.0,0.0,0.0,0.0,0.0,0.0,0.0,0.0,0.0,0.0,0.0,0.0,0.0,0.0,0.0,0.0,0.0,0.0,0.0,0.0,0.0,0.0,0.0,0.0,0.0,0.0,0.0,0.0,0.0,0.0,0.0,0.0,0.0,0.0,0.0,0.0,0.0,0.0,0.0,0.0,0.0,0.0,0.0,0.0,0.0,0.0,0.0,0.0,0.0,0.0,0.0,0.0,0.0,0.0,0.0,0.0,0.0,0.0,0.0,0.0,0.0,0.0,0.0,0.0,-1.9889,-2.2274,-2.3041,-2.1934,-2.4059,-2.397,0.0,0.0,0.0,0.0,0.0,0.0,0.0,0.0,0.0,0.0,0.0,0.0,0.0,0.0,0.0,0.0,0.0,0.0,0.0,0.0,0.0,0.0,0.0,0.0,0.0,0.0,0.0,0.0,0.0,0.0,0.0,0.0,0.0,0.0,0.0,0.0,0.0,0.0,0.0,0.0,0.0,0.0,0.0,0.0,0.0,0.0,0.0,0.0,0.0,0.0,0.0,0.0,0.0,0.0,0.0,0.0,0.0,0.0,0.0,0.0,0.0,0.0,0.0,0.0,0.0,0.0,0.0,0.0,0.0,0.0,0.0,0.0,0.0,0.0,0.0,0.0,0.0,0.0,0.0,0.0,0.0,0.0,0.0,0.0,0.0,0.0,0.0,0.0,0.0,0.0,0.0,0.0,0.0,0.0,0.0,0.0,0.0,0.0,0.0,0.0,0.0,0.0,0.0,0.0,0.0,0.0,0.0,0.0,0.0,-2.1622,-2.2918,-2.3445,-2.3101,-2.2862,-2.2986,0.0,0.0,0.0,0.0,0.0,0.0,0.0,0.0,0.0,0.0,0.0,0.0,0.0,0.0,0.0,0.0,0.0,0.0,0.0,0.0,0.0,0.0,0.0,0.0,0.0,0.0,0.0,0.0,0.0,0.0,0.0,0.0,0.0,0.0,0.0,0.0,0.0,0.0,0.0,0.0,0.0,0.0,0.0,0.0,0.0,0.0,0.0,0.0,0.0,0.0,0.0,0.0,0.0,0.0,0.0,0.0,0.0,0.0,0.0,0.0,0.0,0.0,0.0,0.0,0.0,0.0,0.0,0.0,0.0,0.0,0.0,0.0,0.0,0.0,0.0,0.0,0.0,0.0,0.0,0.0,0.0,0.0,0.0,0.0,0.0,0.0,0.0,0.0,0.0,0.0,0.0,0.0,0.0,0.0,0.0,0.0,0.0,0.0,0.0,0.0,0.0,0.0,0.0,0.0,0.0,0.0,0.0,0.0,-2.1274,-2.1214,-2.2762,-2.3595,-2.3595,-2.2892,-2.2617,0.0,0.0,0.0,0.0,0.0,0.0,0.0,0.0,0.0,0.0,0.0,0.0,0.0,0.0,0.0,0.0,0.0,0.0,0.0,0.0,0.0,0.0,0.0,0.0,0.0,0.0,0.0,0.0,0.0,0.0,0.0,0.0,0.0,0.0,0.0,0.0,0.0,0.0,0.0,0.0,0.0,0.0,0.0,0.0,0.0,0.0,0.0,0.0,0.0,0.0,0.0,0.0,0.0,0.0,0.0,0.0,0.0,0.0,0.0,0.0,0.0,0.0,0.0,0.0,0.0,0.0,0.0,0.0,0.0,0.0,0.0,0.0,0.0,0.0,0.0,0.0,0.0,0.0,0.0,0.0,0.0,0.0,0.0,0.0,0.0,0.0,0.0,0.0,0.0,0.0,0.0,0.0,0.0,0.0,0.0,0.0,0.0,0.0,0.0,0.0,0.0,0.0,0.0,0.0,0.0,0.0,0.0,0.0,-2.2188,-2.022,-2.2383,-2.3551,-2.3406,-2.3406,-2.2598,0.0,0.0,0.0,0.0,0.0,0.0,0.0,0.0,0.0,0.0,0.0,0.0,0.0,0.0,0.0,0.0,0.0,0.0,0.0,0.0,0.0,0.0,0.0,0.0,0.0,0.0,0.0,0.0,0.0,0.0,0.0,0.0,0.0,0.0,0.0,0.0,0.0,0.0,0.0,0.0,0.0,0.0,0.0,0.0,0.0,0.0,0.0,0.0,0.0,0.0,0.0,0.0,0.0,0.0,0.0,0.0,0.0,0.0,0.0,0.0,0.0,0.0,0.0,0.0,0.0,0.0,0.0,0.0,0.0,0.0,0.0,0.0,0.0,0.0,0.0,0.0,0.0,0.0,0.0,0.0,0.0,0.0,0.0,0.0,0.0,0.0,0.0,0.0,0.0,0.0,0.0,0.0,0.0,0.0,0.0,0.0,0.0,0.0,0.0,0.0,0.0,0.0,0.0,0.0,0.0,0.0,0.0,0.0,-2.1261,-2.2742,-2.331,-2.3128,-2.2118,-2.2118,-2.2157,0.0,0.0,0.0,0.0,0.0,0.0,0.0,0.0,0.0,0.0,0.0,0.0,0.0,0.0,0.0,0.0,0.0,0.0,0.0,0.0,0.0,0.0,0.0,0.0,0.0,0.0,0.0,0.0,0.0,0.0,0.0,0.0,0.0,0.0,0.0,0.0,0.0,0.0,0.0,0.0,0.0,0.0,0.0,0.0,0.0,0.0,0.0,0.0,0.0,0.0,0.0,0.0,0.0,0.0,0.0,0.0,0.0,0.0,0.0,0.0,0.0,0.0,0.0,0.0,0.0,0.0,0.0,0.0,0.0,0.0,0.0,0.0,0.0,0.0,0.0,0.0,0.0,0.0,0.0,0.0,0.0,0.0,0.0,0.0,0.0,0.0,0.0,0.0,0.0,0.0,0.0,0.0,0.0,0.0,0.0,0.0,0.0,0.0,0.0,0.0,0.0,0.0,0.0,0.0,0.0,0.0,0.0,0.0,-2.2203,-2.355,-2.3595,-2.3212,-2.2525,-2.1381,-2.1049,0.0,0.0,0.0,0.0,0.0,0.0,0.0,0.0,0.0,0.0,0.0,0.0,0.0,0.0,0.0,0.0,0.0,0.0,0.0,0.0,0.0,0.0,0.0,0.0,0.0,0.0,0.0,0.0,0.0,0.0,0.0,0.0,0.0,0.0,0.0,0.0,0.0,0.0,0.0,0.0,0.0,0.0,0.0,0.0,0.0,0.0,0.0,0.0,0.0,0.0,0.0,0.0,0.0,0.0,0.0,0.0,0.0,0.0,0.0,0.0,0.0,0.0,0.0,0.0,0.0,0.0,0.0,0.0,0.0,0.0,0.0,0.0,0.0,0.0,0.0,0.0,0.0,0.0,0.0,0.0,0.0,0.0,0.0,0.0,0.0,0.0,0.0,0.0,0.0,0.0,0.0,0.0,0.0,0.0,0.0,0.0,0.0,0.0,0.0,0.0,0.0,0.0,0.0,0.0,0.0,0.0,0.0,-2.1369,-2.3595,-2.3595,-2.3595,-2.3455,-2.3065,-2.1261,-2.0332,-2.0543,0.0,0.0,0.0,0.0,0.0,0.0,0.0,0.0,0.0,0.0,0.0,0.0,0.0,0.0,0.0,0.0,0.0,0.0,0.0,0.0,0.0,0.0,0.0,0.0,0.0,0.0,0.0,0.0,0.0,0.0,0.0,0.0,0.0,0.0,0.0,0.0,0.0,0.0,0.2431,0.2215,0.0,0.0,0.0,0.0,0.0,0.0,0.0,0.0,0.0,0.0,0.0,0.0,0.0,0.0,0.0,0.0,0.0,0.0,0.0,0.0,0.0,0.0,0.0,0.0,0.0,0.0,0.0,0.0,0.0,0.0,0.0,0.0,0.0,0.0,0.0,0.0,0.0,0.0,0.0,0.0,0.0,0.0,0.0,0.0,0.0,0.0,0.0,0.0,0.0,0.0,0.0,0.0,0.0,0.0,0.0,0.0,0.0,0.0,0.0,0.0,0.0,0.0,0.0,0.0,0.0,-1.9221,-2.2084,-2.3595,-2.3595,-2.3595,-2.3022,-2.1863,-2.2075,-2.1851,-2.1166,0.0,0.0,0.0,0.0,0.0,0.0,0.0,0.0,0.0,0.0,0.0,0.0,0.0,0.0,0.0,0.0,0.0,0.0,0.0,0.0,0.0,0.0,0.0,0.0,0.0,0.0,0.0,0.0,0.0,0.0,0.0,0.0,0.0,0.0,0.0,0.0,0.0,0.0,0.0,0.4013,0.3073,0.0,0.0,0.0,0.0,0.0,0.0,0.0,0.0,0.0,0.0,0.0,0.0,0.0,0.0,0.0,0.0,0.0,0.0,0.0,0.0,0.0,0.0,0.0,0.0,0.0,0.0,0.0,0.0,0.0,0.0,0.0,0.0,0.0,0.0,0.0,0.0,0.0,0.0,0.0,0.0,0.0,0.0,0.0,0.0,0.0,0.0,0.0,0.0,0.0,0.0,0.0,0.0,0.0,0.0,0.0,0.0,0.0,0.0,0.0,0.0,0.0,0.0,0.0,0.0,-1.9882,-2.2278,-2.3595,-2.3595,-2.3595,-2.2648,-2.0724,-2.1524,-2.1675,0.0,0.0,0.0,0.0,0.0,0.0,0.0,0.0,0.0,0.0,0.0,0.0,0.0,0.0,0.0,0.0,0.0,0.0,0.0,0.0,0.0,0.0,0.0,0.0,0.0,0.0,0.0,0.0,0.0,0.0,0.0,0.0,0.0,0.0,0.0,0.0,0.0,0.0,0.0,0.0,0.5525,0.4688,0.4128,0.0,0.0,0.0,0.0,0.0,0.0,0.3169,0.1854,0.0,0.0,0.0,0.0,0.0,0.0,0.0,0.0,0.0,0.0,0.0,0.0,0.0,0.0,0.0,0.0,0.0,0.0,0.0,0.0,0.0,0.0,0.0,0.0,0.0,0.0,0.0,0.0,0.0,0.0,0.0,0.0,0.0,0.0,0.0,0.0,0.0,0.0,0.0,0.0,0.0,0.0,0.0,0.0,0.0,0.0,0.0,0.0,0.0,0.0,0.0,0.0,0.0,0.0,0.0,-2.055,-2.2532,-2.3595,-2.361,-2.3536,-2.2415,-2.0242,-2.0788,-2.1035,0.0,0.0,0.0,0.0,0.0,0.0,0.0,0.0,0.0,0.0,0.0,0.0,0.0,0.0,0.0,0.0,0.0,0.0,0.0,0.0,0.0,0.0,0.0,0.0,0.0,0.0,0.0,0.0,0.0,0.0,0.0,0.0,0.0,0.0,0.0,0.0,0.0,0.0,0.0,0.0,0.0,0.5959,0.5934,0.3038,0.0,0.0,0.0,0.0,0.7483,0.6245,0.0,0.0,0.0,0.0,0.0,0.0,0.0,0.0,0.0,0.0,0.0,0.0,0.0,0.0,0.0,0.0,0.0,0.0,0.0,0.0,0.0,0.0,0.0,0.0,0.0,0.0,0.0,0.0,0.0,0.0,0.0,0.0,0.0,0.0,0.0,0.0,0.0,0.0,0.0,0.0,0.0,0.0,0.0,0.0,0.0,0.0,0.0,0.0,0.0,0.0,0.0,0.0,0.0,0.0,0.0,0.0,-2.3056,-2.3445,-2.3595,-2.3612,-2.3284,-2.256,-2.136,-2.0444,-2.0681,0.0,0.0,0.0,0.0,0.0,0.0,0.0,0.0,0.0,0.0,0.0,0.0,0.0,0.0,0.0,0.0,0.0,0.0,0.0,0.0,0.0,0.0,0.0,0.0,0.0,0.0,0.0,0.0,0.0,0.0,0.0,0.0,0.0,0.0,0.0,0.0,0.0,0.0,0.0,0.0,0.0,0.6162,0.6047,0.465,0.2714,0.0,0.0,0.7403,0.8642,0.6807,0.0,0.0,0.0,0.0,0.0,0.0,0.0,0.0,0.0,0.0,0.0,0.0,0.0,0.0,0.0,0.0,0.0,0.0,0.0,0.0,0.0,0.0,0.0,0.0,0.0,0.0,0.0,0.0,0.0,0.0,0.0,0.0,0.0,0.0,0.0,0.0,0.0,0.0,0.0,0.0,0.0,0.0,0.0,0.0,0.0,0.0,0.0,0.0,0.0,0.0,0.0,0.0,0.0,0.0,0.0,-2.0976,-2.3447,-2.2179,-2.1411,-2.1376,-1.9689,-1.901,-1.9584,-2.022,-2.0625,0.0,0.0,0.0,0.0,0.0,0.0,0.0,0.0,0.0,0.0,0.0,0.0,0.0,0.0,0.0,0.0,0.0,0.0,0.0,0.0,0.0,0.0,0.0,0.0,0.0,0.0,0.0,0.0,0.0,0.0,0.0,0.0,0.0,0.0,0.0,0.0,0.0,0.0,0.0,0.0,0.0,0.0,0.7336,0.7009,0.0,0.0,0.0,0.9796,1.3311,0.0,0.0,0.0,0.0,0.0,0.0,0.0,0.0,0.0,0.0,0.0,0.0,0.0,0.0,0.0,0.0,0.0,0.0,0.0,0.0,0.0,0.0,0.0,0.0,0.0,0.0,0.0,0.0,0.0,0.0,0.0,0.0,0.0,0.0,0.0,0.0,0.0,0.0,0.0,0.0,0.0,0.0,0.0,0.0,0.0,0.0,0.0,0.0,0.0,0.0,0.0,0.0,0.0,0.0,0.0,0.0,0.0,-2.2536,-2.0743,-1.9682,-1.9285,-1.6738,-1.6143,-1.7618,-1.9415,0.0,0.0,0.0,0.0,0.0,0.0,0.0,0.0,0.0,0.0,0.0,0.0,0.0,0.0,0.0,0.0,0.0,0.0,0.0,0.0,0.0,0.0,0.0,0.0,0.0,0.0,0.0,-0.8393,0.0,0.0,0.0,0.0,0.0,0.0,0.0,0.0,0.0,0.0,0.0,0.0,0.0,0.0,0.8226,0.8289,0.8676,0.8777,0.0,0.0,1.0457,1.4776,1.1607,0.8621,0.0,0.0,0.0,0.0,0.0,0.0,0.0,0.0,0.0,0.0,0.0,0.0,0.0,0.0,0.0,0.0,0.0,0.0,0.0,0.0,0.0,0.0,0.0,0.0,0.0,0.0,0.0,0.0,0.0,0.0,0.0,0.0,0.0,0.0,0.0,0.0,0.0,0.0,0.0,0.0,0.0,0.0,0.0,0.0,0.0,0.0,0.0,0.0,0.0,0.0,0.0,0.0,0.0,0.0,-2.1405,-2.0004,-1.9834,-1.9181,-1.8075,-1.6373,-1.5655,-1.6126,-1.7562,-1.9191,0.0,0.0,0.0,0.0,0.0,0.0,0.0,0.0,0.0,0.0,0.0,0.0,0.0,0.0,0.0,0.0,0.0,0.0,0.0,0.0,0.0,0.0,0.0,0.0,0.0,0.0,0.0,0.0,0.0,0.0,0.0,0.0,0.0,0.0,0.0,0.0,0.0,0.0,0.0,0.0,0.0,0.8442,0.8462,0.8737,0.8923,0.0,0.891,0.9047,0.9482,0.9133,0.8726,0.8191,0.0,0.0,0.0,0.0,0.0,0.0,0.0,0.0,0.0,0.0,0.0,0.0,0.0,0.0,0.0,0.0,0.0,0.0,0.0,0.0,0.0,0.0,0.0,0.0,0.0,0.0,0.0,0.0,0.0,0.0,0.0,0.0,0.0,0.0,0.0,0.0,0.0,0.0,0.0,0.0,0.0,0.0,0.0,0.0,0.0,0.0,0.0,0.0,0.0,0.0,0.0,0.0,0.0,-2.1397,-1.954,-1.791,-1.5929,-1.3583,-1.4702,-1.6363,-1.8278,-1.8175,-1.8908,0.0,0.0,0.0,0.0,0.0,0.0,0.0,0.0,0.0,0.0,0.0,0.0,0.0,0.0,0.0,0.0,0.0,0.0,0.0,0.0,0.0,0.0,0.0,0.0,0.0,0.0,0.0,0.0,-0.6225,-0.5993,-0.5671,0.0,0.0,0.0,0.0,0.0,0.0,0.0,0.0,0.0,0.0,0.6122,0.7107,0.8253,0.0,0.0,0.8937,0.8937,0.8937,0.8937,0.8862,0.8628,0.8114,0.0,0.0,0.0,0.0,0.0,0.0,0.0,0.0,0.0,0.0,0.0,0.0,0.0,0.0,0.0,0.0,0.0,0.0,0.0,0.0,0.0,0.0,0.0,0.0,0.0,0.0,0.0,0.0,0.0,0.0,0.0,0.0,0.0,0.0,0.0,0.0,0.0,0.0,0.0,0.0,0.0,0.0,0.0,0.0,0.0,0.0,0.0,0.0,0.0,0.0,0.0,0.0,-2.116,-1.887,-1.5633,-1.3347,-1.2074,-1.509,-1.7728,-1.9649,-1.8985,-1.9022,0.0,0.0,0.0,0.0,0.0,0.0,0.0,0.0,0.0,0.0,0.0,0.0,0.0,0.0,0.0,0.0,0.0,0.0,0.0,0.0,0.0,0.0,0.0,0.0,0.0,0.0,0.0,0.0,-0.6101,-0.6057,-0.5952,0.0,0.0,0.0,0.0,0.0,0.0,0.0,0.0,0.0,0.0,0.4706,0.6362,0.7871,0.8937,0.8937,0.8937,0.9001,0.9174,0.913,0.9231,0.9798,0.0,0.0,0.0,0.0,0.0,0.0,0.0,0.0,0.0,0.0,0.0,0.0,0.0,0.0,0.0,0.0,0.0,0.0,0.0,0.0,0.0,0.0,0.0,0.0,0.0,0.0,0.0,0.0,0.0,0.0,0.0,0.0,0.0,0.0,0.0,0.0,0.0,0.0,0.0,0.0,0.0,0.0,0.0,0.0,0.0,0.0,0.0,0.0,0.0,0.0,0.0,0.0,0.0,-2.075,-1.7661,-1.3223,-1.232,-1.5274,-1.8209,-1.968,-1.9798,-1.9725,-1.9645,-1.9641,0.0,0.0,0.0,0.0,0.0,0.0,0.0,0.0,0.0,0.0,0.0,0.0,0.0,0.0,0.0,0.0,0.0,0.0,0.0,0.0,0.0,0.0,0.0,0.0,0.0,0.0,-0.6173,-0.6257,-0.6261,0.0,0.0,0.0,0.0,0.0,0.0,0.0,0.0,0.0,0.4045,0.411,0.4806,0.647,0.7928,0.8826,0.8937,0.8947,0.914,0.9683,0.954,1.0066,0.0,0.0,0.0,0.0,0.0,0.0,0.0,0.0,0.0,0.0,0.0,0.0,0.0,0.0,0.0,0.0,0.0,0.0,0.0,0.0,0.0,0.0,0.0,0.0,0.0,0.0,0.0,0.0,0.0,0.0,0.0,0.0,0.0,0.0,0.0,0.0,0.0,0.0,0.0,0.0,-2.652,-2.6065,0.0,0.0,0.0,0.0,0.0,0.0,0.0,0.0,0.0,0.0,0.0,0.0,-2.0167,-1.7614,-1.507,-1.5264,-1.8263,-1.9294,-2.006,-2.0582,-2.0029,-1.9803,-2.0058,0.0,0.0,0.0,0.0,0.0,0.0,0.0,0.0,0.0,0.0,0.0,0.0,0.0,0.0,0.0,0.0,0.0,0.0,0.0,0.0,0.0,0.0,0.0,0.0,0.0,-0.5587,0.0,0.0,0.0,0.0,0.0,0.0,0.0,0.0,0.0,0.0,0.0721,0.1815,0.3675,0.245,0.2313,0.4724,0.5543,0.6702,0.0,0.0,0.0,0.0,0.0,0.0,0.0,0.0,0.0,0.0,0.0,0.0,0.0,0.0,0.8124,0.8735,0.9408,0.9666,0.9174,0.0,0.0,0.0,0.0,0.0,0.0,0.0,0.0,0.0,0.0,0.0,0.0,0.0,0.0,0.0,0.0,0.0,0.0,0.0,0.0,0.0,0.0,0.0,0.0,0.0,-2.6969,-2.6954,-2.7114,-2.6827,-2.5693,-2.4002,-2.5795,-2.5766,0.0,0.0,0.0,0.0,0.0,0.0,0.0,0.0,-1.994,-1.7843,-1.6454,-1.7058,-1.9635,-1.9787,-2.0325,-2.1371,-2.0438,-1.998,-2.0089,-2.0413,-2.0382,0.0,0.0,0.0,0.0,0.0,0.0,0.0,0.0,0.0,0.0,0.0,0.0,0.0,0.0,0.0,0.0,0.0,0.0,0.0,0.0,0.0,0.0,0.0,-0.5495,0.0,0.0,0.0,0.0,0.0,0.0,0.0,0.0,0.0,0.0,0.0,0.0845,0.2985,0.181,0.1532,0.3954,0.0,0.0,0.0,0.0,0.0,0.0,0.0,0.9005,0.9195,0.9257,0.9342,0.9373,0.9581,0.9758,0.9568,0.0,0.0,0.9819,0.9971,0.9985,0.9608,0.969,0.9673,0.9188,0.9245,0.9296,0.0,0.0,0.0,0.0,0.0,0.0,0.0,0.0,0.0,0.0,0.0,0.0,0.0,0.0,0.0,0.0,-2.7148,-2.7377,0.0,0.0,-2.9583,-2.9163,-2.6854,-2.6813,-2.6757,-2.6791,-2.6708,-2.5623,-2.3719,-2.4641,0.0,0.0,0.0,0.0,0.0,0.0,-2.0062,-1.8196,-1.7157,-1.7639,-1.972,-1.9812,-2.0613,-2.2224,-2.1031,-2.0192,-1.9801,-1.9756,-1.9273,-1.8333,-1.9188,0.0,0.0,0.0,0.0,0.0,0.0,0.0,0.0,0.0,0.0,0.0,0.0,0.0,0.0,0.0,0.0,0.0,0.0,0.0,0.0,-0.5277,0.0,0.0,0.0,0.0,0.0,0.0,0.0,0.0,0.0,0.0,0.0,0.0,0.0533,0.2019,0.0,0.0,0.0,0.0,0.1133,0.3959,0.6737,0.8644,0.8866,0.8964,0.896,0.8964,0.0,0.0,0.9652,0.9696,0.9829,0.9819,0.9829,0.9832,0.9825,0.9412,0.9218,0.9693,0.9812,0.9724,0.9473,0.9422,0.9425,0.0,0.0,0.0,0.0,0.0,0.0,0.0,0.0,0.0,0.0,0.0,0.0,0.0,0.0,0.0,0.0,0.0,0.0,-2.8741,-2.8848,-2.8739,-2.891,-2.9269,-2.864,-2.8342,-2.829,-2.7224,-2.564,-2.3681,-2.3906,-2.409,-2.4028,0.0,0.0,0.0,0.0,-2.0416,-1.9303,-1.893,-1.9677,-2.1524,-2.1554,-2.1969,-2.2782,-2.1631,-2.1042,-2.1135,-2.0198,-2.0013,-2.0607,-2.0086,0.0,0.0,0.0,0.0,0.0,0.0,0.0,0.0,0.0,0.0,0.0,0.0,0.0,0.0,0.0,0.0,0.0,0.0,0.0,-0.5203,-0.4172,-0.3257,0.0,0.0,0.0,0.0,0.0,0.0,0.0,0.0,0.0,0.0,0.0,0.0533,0.0,0.0,0.1109,0.2529,0.2476,0.2057,0.1364,0.1991,0.0,0.8847,0.9388,0.9256,0.9256,0.9439,0.9615,0.972,0.9873,0.9947,0.9846,1.0002,1.0083,0.9859,0.9696,0.9632,0.9785,0.9819,0.9798,0.9724,0.9778,0.9788,0.0,0.0,0.0,0.0,0.0,0.0,0.0,0.0,0.0,0.0,0.0,0.0,0.0,0.0,0.0,0.0,0.0,0.0,-2.8862,-2.8876,-2.8888,-2.9094,-2.932,-2.7811,-2.7787,-2.8892,-2.7422,-2.5603,-2.3595,-2.3595,-2.3837,-2.421,0.0,-2.2483,-2.2079,-2.2022,-2.127,-1.9786,-1.9705,-2.0208,-2.1245,-2.1792,-2.2185,-2.245,-2.1971,-2.1575,-2.13,-2.0786,-2.065,-2.0918,-2.0231,-1.9269,0.0,0.0,0.0,0.0,0.0,0.0,0.0,0.0,0.0,0.0,0.0,-0.9206,-0.7711,0.0,0.0,0.0,-0.5489,-0.5012,-0.4755,-0.3434,0.0,0.0,0.0,0.0,0.0,0.0,0.0,-0.01,0.0,0.0,0.0,0.0,0.0533,0.1915,0.1851,0.1991,0.2866,0.0,0.3959,0.2165,0.1887,0.3758,0.8939,0.9574,0.9381,0.9381,0.9452,0.9595,0.9788,0.99,0.9924,0.9869,0.9975,1.0042,0.9856,0.9819,0.9819,0.9819,0.9819,0.9819,0.9819,0.9897,0.9903,0.0,0.0,0.0,0.0,0.0,0.0,0.0,0.0,0.0,0.0,0.0,0.0,0.0,0.0,0.0,0.0,-1.3548,-2.3672,-2.832,-2.832,-2.9644,-2.9421,-2.7795,-2.5381,-2.575,-2.8549,-2.7086,-2.5517,-2.3933,-2.3794,-2.4214,-2.5012,-2.4101,-2.3065,-2.1969,-2.2798,-2.2203,-2.0049,-2.0019,-1.9936,-1.972,-2.1108,-2.1812,-2.1698,-2.201,-2.1748,-2.0854,-2.1354,-2.1148,-2.0034,-1.9654,-1.8089,-1.5284,0.0,0.0,0.0,0.0,0.0,0.0,0.0,0.0,0.0,0.0,0.0,0.0,0.0,0.0,0.0,-0.4417,0.0,-0.4706,-0.283,0.0,0.0,0.0,-0.1175,-0.0086,-0.1909,-0.2508,-0.0302,0.0,0.0,0.0,0.0,0.0531,0.2016,0.3234,0.4171,0.4462,0.5632,0.6111,0.4863,0.5031,0.6271,0.9168,0.9517,0.9388,0.9398,0.9395,0.951,0.9737,0.9798,0.9802,0.9822,0.9822,0.9825,0.9822,0.9819,0.9812,0.9778,0.9798,0.9819,0.9822,0.9829,0.9829,0.0,0.0,0.0,0.0,0.0,0.0,0.0,0.0,0.0,0.0,0.0,0.0,0.0,0.0,0.0,-0.5357,-1.5091,-2.4146,-2.8574,-2.9023,-2.8873,-2.8481,-2.7788,-2.5346,-2.4593,-2.521,-2.3972,-2.4257,-2.5845,-2.5205,-2.4552,-2.3991,-2.4116,-2.3825,-2.2978,-2.1432,-2.1306,-2.2667,-2.2667,-2.1695,-1.9824,-2.1962,-2.2673,-2.171,-2.1503,-2.1397,-2.1453,-2.131,-2.1263,-2.1142,-1.8148,-1.5041,-1.1958,-1.1908,0.0,0.0,0.0,0.0,0.0,0.0,0.0,0.0,0.0,-0.6638,-0.6331,0.0,-0.7322,0.0,-0.4624,-0.3584,-0.3701,-0.1756,0.0,0.0,-0.0367,-0.0278,0.0,-0.0471,-0.0677,0.0,0.0,0.0,0.0,0.0,0.0514,0.1873,0.2379,0.3114,0.4357,0.5853,0.6327,0.5211,0.6692,0.8502,0.8974,0.9289,0.9395,0.9479,0.952,0.9581,0.9649,0.9663,0.9696,0.9795,0.9819,0.9819,0.9819,0.9819,0.973,0.9561,0.9663,0.9819,0.9819,0.9819,0.9819,0.0,0.0,0.0,0.0,0.0,0.0,0.0,0.0,0.0,0.0,0.0,0.0,0.0,0.0,0.0,-0.3056,-0.9283,-2.2943,-2.9296,-2.918,-2.7793,-2.7032,-2.6845,-2.6486,-2.6355,-2.6277,-2.4913,-2.5101,-2.6623,-2.6123,-2.5545,-2.498,-2.5051,-2.4792,-2.4021,-2.175,-2.1021,-2.1844,-2.3011,-2.2892,-2.1491,-2.1741,-2.1555,-2.0891,-2.0716,-2.0702,-2.0864,-2.1023,-2.1015,-2.0729,-1.6002,-1.172,-0.8474,-0.8285,-1.1124,0.0,0.0,0.0,0.0,0.0,0.0,0.0,0.0,0.0,0.0,0.0,-0.6369,-0.663,-0.4774,-0.3554,-0.3515,-0.1423,0.0,0.0,0.0,0.0,0.0,0.0,0.0,0.0,0.0,0.0,0.0,0.1008,0.2028,0.2887,0.3627,0.4377,0.5296,0.6679,0.7379,0.6705,0.8054,0.9133,0.8957,0.7936,0.7729,0.9013,0.9398,0.9425,0.9493,0.9507,0.9574,0.9768,0.9819,0.9819,0.9819,0.9819,0.9727,0.9479,0.9398,0.949,0.9652,0.9761,0.9819,0.0,0.0,0.0,0.0,0.0,0.0,0.0,0.0,0.0,0.0,0.0,0.0,0.0,0.0,0.0,0.0,0.0,-1.9898,-2.8908,-2.9228,-2.7284,-2.6178,-2.5917,-2.7998,-2.8975,-2.8929,-2.7422,-2.6708,-2.6708,-2.6708,-2.6708,-2.6691,-2.6243,-2.57,-2.5073,-2.3139,-2.134,-1.975,-2.2263,-2.345,-2.3069,-2.0939,-1.9804,-1.9819,-1.9915,-1.9956,-1.9921,-2.0489,-2.0505,-1.967,-1.451,-0.985,-0.6342,-0.6226,-0.8853,0.0,-1.3085,0.0,0.0,0.0,0.0,0.0,0.0,0.0,0.0,-0.6506,-0.6603,-0.7153,-0.5037,-0.3599,-0.3599,-0.1444,0.0,0.0,0.0189,0.0191,0.0,0.0,0.0,0.0,0.0,0.0,0.0,0.2614,0.4043,0.4411,0.5309,0.6145,0.6786,0.7822,0.856,0.8916,0.8937,0.8628,0.7371,0.5813,0.5745,0.8354,0.9195,0.9201,0.933,0.9351,0.9425,0.9635,0.971,0.9734,0.972,0.969,0.9608,0.9351,0.9133,0.9123,0.9483,0.9656,0.9758,0.0,0.0,0.0,0.0,0.0,0.0,0.0,0.0,0.0,0.0,0.0,0.0,0.0,0.0,0.0,0.0,0.0,-1.2576,-2.2509,-3.0308,-3.0046,-2.9102,-2.7716,-2.8556,-2.8975,-2.8905,-2.7435,-2.6708,-2.6708,-2.6708,-2.6708,-2.6691,-2.6227,-2.5931,-2.5763,0.0,0.0,0.0,-2.2278,-2.2606,-2.0607,-2.0042,-1.9804,-1.9809,-1.9752,0.0,-1.9827,-1.9384,-1.9371,-1.9722,-1.7555,0.0,0.0,0.0,0.0,0.0,0.0,0.0,0.0,0.0,0.0,0.0,-0.608,-0.6562,-0.881,-0.775,-0.7126,-0.7379,-0.516,-0.366,-0.3753,-0.1505,0.0,0.0,0.0972,0.1176,0.0,0.0,0.0,0.0,0.0,0.0,0.2914,0.3715,0.4423,0.5457,0.5876,0.6545,0.7814,0.8338,0.8757,0.8906,0.8937,0.7033,0.246,0.3465,0.5817,0.81,0.9093,0.9154,0.9188,0.9195,0.9147,0.9161,0.9303,0.9381,0.9171,0.9103,0.9123,0.9035,0.8977,0.899,0.939,0.9473,0.9466,0.0,0.0,0.0,0.0,0.0,0.0,0.0,0.0,0.0,0.0,0.0,0.0,0.0,0.0,0.0,0.0,0.0,-1.0648,-2.0784,-3.037,-3.0665,-3.0116,-2.8965,-2.9003,-2.8975,-2.8929,-2.7422,-2.593,-2.4661,-2.5998,-2.6708,-2.6708,-2.6821,-2.69,-2.6883,-2.627,-2.4484,-2.1659,-2.2921,-2.298,-2.1758,-2.1649,-2.0805,-1.9106,-1.8771,0.0,0.0,0.0,0.0,0.0,0.0,0.0,0.0,-1.0143,0.0,-0.9296,-0.8779,-0.7919,-0.684,-0.7044,-0.6662,-0.517,-0.4497,-0.5399,-0.8179,-0.7567,-0.6662,-0.5702,-0.4482,-0.357,-0.2819,-0.1135,0.0,0.0,0.1175,0.1971,0.2005,0.2012,0.2515,0.3417,0.1611,0.1411,0.542,0.5922,0.5922,0.6027,0.6634,0.726,0.7951,0.8347,0.8587,0.8879,0.8937,0.7928,0.5246,0.5472,0.7035,0.8615,0.9001,0.9042,0.9049,0.9049,0.9018,0.896,0.9069,0.9103,0.8984,0.8937,0.8937,0.8937,0.8937,0.89,0.9103,0.9262,0.9449,0.0,0.0,0.0,0.0,0.0,0.0,0.0,0.0,0.0,0.0,0.0,0.0,0.0,0.0,0.0,0.0,0.0,-1.0679,-2.0793,-3.0317,-3.047,-3.0108,-2.9418,-2.9138,-2.8975,-2.8929,-2.7422,-2.5439,-2.3241,-2.5541,-2.6708,-2.6759,-2.7334,-2.7757,-2.7943,-2.7148,-2.5677,-2.3709,-2.3595,-2.3406,-2.298,-2.2935,-2.1517,-1.8553,-1.8069,-1.8092,-1.8609,-1.6983,-1.6057,-1.6009,-1.6245,-1.4827,-1.1365,-0.8084,-0.6308,-0.643,-0.6786,-0.6046,-0.3785,-0.5191,-0.5173,-0.3135,-0.2921,-0.3927,-0.6334,-0.6871,-0.6154,-0.3837,-0.3417,-0.2906,-0.1864,-0.0757,0.0,0.0,0.1375,0.2767,0.3806,0.4516,0.552,0.7132,0.4119,0.3019,0.7232,0.7839,0.7637,0.6734,0.7235,0.8038,0.8055,0.816,0.8384,0.874,0.8876,0.8826,0.8826,0.8712,0.8937,0.8826,0.894,0.8937,0.8937,0.8937,0.8937,0.894,0.8937,0.8944,0.894,0.8937,0.8937,0.8937,0.8937,0.8937,0.8957,0.913,0.9325,0.0,0.0,0.0,0.0,0.0,0.0,0.0,0.0,0.0,0.0,0.0,0.0,0.0,0.0,0.0,0.0,0.0,-1.0598,-2.0756,-3.0413,-3.0169,-2.9171,-2.7743,-2.8575,-2.8975,-2.8863,-2.7404,-2.6488,-2.6167,-2.6488,-2.6708,-2.6708,-2.6793,-2.752,-2.8602,-2.7402,-2.5677,-2.3681,-2.3595,-2.2546,-2.037,-2.032,-2.0117,-1.9571,-1.899,-1.8869,-1.916,-1.732,-1.6287,-1.6033,-1.3332,-1.0339,-0.7359,-0.6641,-0.6485,-0.6966,-0.6825,-0.5866,-0.3785,-0.3742,-0.2863,-0.0802,-0.0538,-0.1522,-0.3927,-0.5977,-0.6154,-0.3838,-0.1815,-0.1016,-0.17,-0.0772,0.0,0.0,0.2182,0.3806,0.4016,0.6022,0.7431,0.7839,0.7434,0.6731,0.7736,0.8038,0.7939,0.7739,0.7839,0.8038,0.8041,0.8055,0.8201,0.8496,0.8774,0.8916,0.8937,0.8937,0.8937,0.8937,0.8933,0.892,0.8916,0.8906,0.8903,0.893,0.893,0.8937,0.8937,0.8937,0.8937,0.8937,0.8927,0.8913,0.8923,0.8998,0.9001,0.0,0.0,0.0,0.0,0.0,0.0,0.0,0.0,0.0,0.0,0.0,0.0,0.0,0.0,0.0,0.0,-0.0471,-1.0571,-2.0574,-2.9716,-3.0024,-2.9519,-2.8675,-2.8875,-2.8975,-2.8887,-2.7452,-2.6708,-2.6708,-2.6708,-2.6708,-2.6725,-2.708,-2.7875,-2.8856,-2.8281,-2.583,-2.1663,-2.1506,-2.0988,-1.985,-1.9798,-1.9423,-1.8608,-1.8747,-1.8511,-1.7716,-1.566,-1.4872,-1.5574,-1.2038,-0.8901,-0.6475,-0.6261,-0.638,-0.6654,-0.6698,-0.5717,-0.3483,-0.2223,-0.1108,0.0,0.0,-0.0449,-0.1522,-0.2593,-0.2772,-0.17,-0.0628,-0.0273,-0.0842,-0.0386,0.0,0.0,0.2387,0.3914,0.4316,0.6426,0.7939,0.8038,0.8038,0.8038,0.8038,0.8038,0.8038,0.8038,0.8038,0.8038,0.8038,0.8038,0.8079,0.8248,0.8628,0.8903,0.8937,0.8937,0.8937,0.8937,0.8866,0.8825,0.8804,0.876,0.8723,0.8774,0.8855,0.893,0.8937,0.8937,0.8937,0.892,0.8784,0.8757,0.8869,0.8937,0.8937,0.0,0.0,0.0,0.0,0.0,0.0,0.0,0.0,0.0,0.0,0.0,0.0,0.0,0.0,0.0,0.0,0.0,-0.815,-1.8282,-2.9131,-2.9938,-2.9867,-2.968,-2.9228,-2.8815,-2.8464,-2.7584,-2.7051,-2.6758,-2.6708,-2.6776,-2.6979,-2.7537,-2.8044,-2.845,-2.8253,-2.5378,-2.0169,-1.9798,-1.9798,-1.9798,-1.9798,-1.9206,-1.8059,-1.7771,-1.7255,-1.6138,-1.403,-1.3323,-1.4229,-1.1199,-0.8389,-0.649,-0.6261,-0.6261,-0.6302,-0.6516,-0.5594,-0.3221,-0.1141,0.0,0.0,0.0,0.0,0.0,0.0,0.0,0.0,0.0,0.0,0.0,0.0,0.0,0.0,0.2382,0.3914,0.4216,0.6426,0.8038,0.8038,0.8038,0.8038,0.8038,0.8038,0.8038,0.8038,0.8038,0.8038,0.8038,0.8038,0.8038,0.8123,0.8445,0.8764,0.8882,0.8937,0.8937,0.8937,0.8815,0.8747,0.8699,0.8591,0.8506,0.8584,0.871,0.8838,0.8903,0.8788,0.8788,0.8845,0.872,0.8574,0.8757,0.8808,0.8866,0.0,0.0,0.0,0.0,0.0,0.0,0.0,0.0,0.0,0.0,0.0,0.0,0.0,0.0,0.0,0.0,0.0,0.0,-1.1809,-2.8542,-2.9784,-2.9608,-2.9643,-2.9209,-2.8264,-2.7299,-2.8156,-2.7946,-2.6758,-2.6792,-2.708,-2.7603,-2.7791,-2.7554,-2.6978,-2.6081,-2.3676,-1.9888,-1.9798,-1.9798,-1.9798,-1.9798,-1.9504,-1.8766,-1.5851,-1.4767,-1.5362,-1.3464,-1.2303,-1.221,-1.037,-0.8389,-0.6567,-0.6261,-0.6261,-0.6261,-0.6325,-0.5408,-0.3217,-0.1204,0.0,0.0,0.0,0.0,0.0,0.0,0.0,0.0,0.0,0.0,0.0,0.0,0.0,0.0,0.2458,0.4016,0.4316,0.6326,0.8038,0.8038,0.8038,0.8038,0.8038,0.8038,0.8038,0.8233,0.8226,0.8326,0.8432,0.8038,0.8038,0.8038,0.8126,0.8387,0.8781,0.8937,0.8937,0.8927,0.8804,0.8713,0.8652,0.8557,0.8462,0.8377,0.8442,0.8601,0.8672,0.8557,0.8357,0.8669,0.8621,0.8479,0.8523,0.855,0.8638,0.0,0.0,0.0,0.0,0.0,0.0,0.0,0.0,0.0,0.0,0.0,0.0,0.0,0.0,0.0,0.0,0.0,0.0,-0.7595,-2.1336,-2.7011,-2.957,-2.9272,-2.9093,-2.8651,-2.8129,-2.8725,-2.821,-2.7173,-2.8122,-2.8876,-2.8802,-2.8507,-2.823,-2.7853,-2.54,-2.2628,-1.994,-1.9798,-1.9798,-1.9798,-1.9798,-1.8527,-1.6012,-1.3906,-1.2899,-1.2947,-1.1439,-1.0421,-1.0364,-0.8595,-0.7176,-0.6338,-0.6261,-0.6261,-0.619,-0.5058,-0.4085,-0.3332,-0.1209,0.0,0.0,0.0,0.0,0.0,0.0,0.0,0.0,0.0,0.0,0.0,0.0,0.0281,0.1132,0.2809,0.397,0.4012,0.6323,0.8038,0.8038,0.8038,0.8038,0.8038,0.8038,0.8333,0.8916,0.9186,0.9367,0.9985,0.9019,0.8038,0.8038,0.8038,0.8296,0.8794,0.8937,0.8937,0.8896,0.8733,0.8581,0.8554,0.8367,0.8201,0.817,0.8214,0.8272,0.8347,0.8275,0.815,0.8394,0.8381,0.8241,0.8336,0.8425,0.857,0.0,0.0,0.0,0.0,0.0,0.0,0.0,0.0,0.0,0.0,0.0,0.0,0.0,0.0,0.0,0.0,0.0,0.0,-0.5499,-1.5549,-2.5298,-2.9606,-2.9228,-2.9044,-2.8975,-2.8975,-2.8975,-2.855,-2.7885,-2.9414,-3.0106,-2.9468,-2.8695,-2.8578,-2.8688,-2.5608,-2.2523,-2.0042,-1.9798,-1.9642,-1.9242,-1.8305,-1.6355,-1.3616,-1.2087,-1.1199,-1.0906,-0.9596,-0.8732,-0.8466,-0.7022,-0.6261,-0.6261,-0.6261,-0.6261,-0.6136,-0.438,-0.3186,-0.3003,-0.1127,0.0,0.0,0.0,0.0,0.0,0.0,0.0,0.0,0.0,0.0,0.0,0.0,0.0,0.1667,0.3158,0.3961,0.4109,0.6326,0.8038,0.8038,0.8038,0.8038,0.8041,0.8347,0.8947,0.9706,1.0307,1.0766,1.1531,1.0288,0.9118,0.9118,0.9604,0.9799,0.9226,0.8832,0.8849,0.8852,0.8676,0.8445,0.8445,0.8228,0.8048,0.8096,0.8055,0.8058,0.815,0.8089,0.8041,0.8038,0.8052,0.8085,0.8184,0.8323,0.8465,0.0,0.0,0.0,0.0,0.0,0.0,0.0,0.0,0.0,0.0,0.0,0.0,0.0,0.0,0.0,0.0,0.0,0.0,-0.5482,-1.5543,-2.5243,-2.9696,-2.9643,-2.9228,-2.8975,-2.8975,-2.8994,-2.9303,-2.9843,-3.0345,-3.0185,-2.922,-2.804,-2.7992,-2.8685,-2.6565,-2.3521,-2.0424,-1.9828,-1.9147,-1.7728,-1.4544,-1.2791,-1.2064,-1.0347,-0.9401,-0.9205,-0.8433,-0.7476,-0.6493,-0.6412,-0.6261,-0.6261,-0.6261,-0.6261,-0.6179,-0.4504,-0.308,-0.2171,-0.0882,0.0,0.0,0.0,0.0,0.0,0.0,0.0,0.3126,0.1612,0.0,0.0,0.0,0.0745,0.2003,0.3264,0.3978,0.4207,0.6515,0.7836,0.8038,0.8038,0.8038,0.8041,0.9172,0.976,1.0284,1.1125,1.1944,1.2195,1.1945,1.175,1.2139,1.3169,1.3935,1.0138,0.8743,0.8696,0.8665,0.8499,0.833,0.8316,0.8269,0.8133,0.8038,0.8038,0.8038,0.8038,0.8038,0.8038,0.8038,0.8038,0.8072,0.8102,0.8194,0.8323,0.0,0.0,0.0,0.0,0.0,0.0,0.0,0.0,0.0,0.0,0.0,0.0,0.0,0.0,0.0,0.0,0.0,0.0,-0.5482,-1.5536,-2.521,-2.9696,-2.9661,-2.9228,-2.8975,-2.8975,-2.8994,-2.9627,-3.0606,-3.0202,-2.9753,-2.9381,-2.8347,-2.7875,-2.7664,-2.6308,-2.4229,-2.1933,-1.9867,-1.7285,-1.464,-1.3018,-1.1681,-1.0301,-0.8371,-0.7698,-0.8286,-0.7395,-0.6641,-0.6338,-0.6261,-0.6261,-0.6261,-0.6261,-0.6441,-0.645,-0.334,-0.1605,-0.2032,-0.0892,0.0,0.0,0.0,0.0,0.0,0.0,0.0986,0.3037,0.4463,0.3935,0.243,0.1639,0.1932,0.3731,0.4664,0.5432,0.6233,0.7321,0.8038,0.8038,0.8038,0.8038,0.8244,0.9172,1.0268,1.1175,1.2315,1.3362,1.4226,1.437,1.4274,1.4472,1.5064,1.5281,1.3992,1.0219,0.8489,0.8377,0.8258,0.8279,0.8279,0.8187,0.8055,0.8038,0.8038,0.8038,0.8038,0.8038,0.8038,0.8038,0.8038,0.8038,0.8038,0.814,0.8225,0.0,0.0,0.0,0.0,0.0,0.0,0.0,0.0,0.0,0.0,0.0,0.0,0.0,0.0,0.0,0.0,0.0,0.0,-0.3751,-1.1163,-2.3655,-2.9782,-2.9815,-2.9293,-2.8975,-2.8887,-2.8464,-2.8807,-2.9441,-2.818,-2.8,-2.8785,-2.7519,-2.6769,-2.6408,-2.5301,-2.3715,-2.1307,-1.7958,-1.4791,-1.2439,-1.1019,-0.9739,-0.8461,-0.7629,-0.7249,-0.7326,-0.6644,-0.6261,-0.6261,-0.6261,-0.6261,-0.6264,-0.6441,-0.6719,-0.6552,-0.2681,-0.0449,-0.1343,-0.0628,0.0,0.0,0.0,0.0,0.0,0.0,0.0,0.3393,0.5708,0.6257,0.5018,0.3673,0.3709,0.5108,0.5647,0.6258,0.7426,0.7768,0.8014,0.8038,0.8038,0.8038,0.8244,0.959,1.087,1.1868,1.3335,1.488,1.5609,1.5825,1.5825,1.5825,1.573,1.5737,1.5114,1.2934,0.9697,0.9086,0.8862,0.8697,0.8421,0.8213,0.8052,0.8041,0.8038,0.8038,0.8038,0.8038,0.8038,0.8038,0.8038,0.8038,0.8058,0.8092,0.818,0.0,0.0,0.0,0.0,0.0,0.0,0.0,0.0,0.0,0.0,0.0,0.0,0.0,0.0,0.0,0.0,0.0,0.0,0.0,0.0,-2.0012,-2.9129,-3.0216,-2.9416,-2.8863,-2.8658,-2.7326,-2.6691,-2.6681,-2.5077,-2.5098,-2.6505,-2.5462,-2.4955,-2.537,-2.3891,-2.1639,-1.8552,-1.4984,-1.2445,-1.1774,-0.8604,-0.6791,-0.6721,-0.8161,-0.8241,-0.6563,-0.649,-0.649,-0.6335,-0.6261,-0.6261,-0.6332,-0.6756,-0.7119,-0.641,-0.2594,0.0,0.0,0.0,0.0,0.0,0.0,0.0,0.0,0.0,0.1076,0.3838,0.58,0.6962,0.6786,0.5894,0.5272,0.5458,0.5739,0.6444,0.7234,0.7851,0.8038,0.8038,0.8237,0.8041,0.8553,1.0108,1.1618,1.2181,1.3861,1.5406,1.5717,1.5825,1.5825,1.5899,1.6092,1.6279,1.6059,1.5369,1.2349,1.0002,0.983,0.9569,0.8847,0.8503,0.8055,0.8038,0.8038,0.8038,0.8038,0.8038,0.8038,0.8038,0.8038,0.8038,0.8058,0.8089,0.8157,0.0,0.0,0.0,0.0,0.0,0.0,0.0,0.0,0.0,0.0,0.0,0.0,0.0,0.0,0.0,0.0,0.0,0.0,0.0,0.0,-1.3589,-2.3606,-2.9178,-2.9436,-2.8438,-2.7247,-2.5484,-2.4576,-2.4492,-2.3896,-2.4018,-2.4408,-2.446,-2.4086,-2.3645,-2.3207,-2.1911,-1.9546,-1.4832,-1.1093,-0.8456,-0.7019,-0.6335,-0.649,-0.8237,-0.8613,-0.748,-0.8008,-0.7629,-0.6412,-0.6261,-0.6261,-0.6445,-0.6817,-0.7126,-0.6605,-0.2593,0.0,0.0,0.0,0.0,0.0,0.0,0.0,0.0,0.0,0.188,0.5262,0.6691,0.7139,0.7051,0.6786,0.6511,0.6596,0.685,0.6941,0.7326,0.7839,0.7997,0.8233,0.9509,0.9801,0.8943,1.0311,1.1618,1.1878,1.3442,1.4766,1.5514,1.573,1.6039,1.6326,1.662,1.6854,1.6734,1.638,1.4479,1.1991,1.1146,1.0186,0.9367,0.8503,0.8158,0.8038,0.8038,0.8038,0.8038,0.8038,0.8038,0.8038,0.8038,0.8041,0.8041,0.8079,0.8136,0.0,0.0,0.0,0.0,0.0,0.0,0.0,0.0,0.0,0.0,0.0,0.0,0.0,0.0,0.0,0.0,0.0,0.0,-0.1981,-0.5561,-1.103,-2.0088,-2.8736,-2.9295,-2.8192,-2.6573,-2.4601,-2.3595,-2.3625,-2.4059,-2.3853,-2.3081,-2.3514,-2.3039,-2.1873,-2.1868,-2.0852,-1.7358,-1.251,-0.8836,-0.6868,-0.6261,-0.6261,-0.6567,-0.8237,-0.8694,-0.8008,-0.9064,-0.914,-0.7992,-0.8492,-0.9143,-0.9114,-0.8044,-0.7139,-0.6245,0.0,0.0,0.0,0.0,0.0,0.0,0.0,0.0,0.0,0.0,0.4287,0.6425,0.7139,0.7139,0.7139,0.7139,0.7139,0.7146,0.7356,0.7444,0.7566,0.9523,1.0919,1.1156,1.0672,1.0092,1.0117,0.9462,1.0785,1.1175,1.2737,1.4052,1.5013,1.5534,1.6075,1.662,1.7061,1.7268,1.7435,1.6994,1.6373,1.4467,1.2673,1.1142,0.9916,0.8752,0.8038,0.8038,0.8038,0.8038,0.8038,0.8038,0.8038,0.8038,0.8038,0.8038,0.8041,0.8041,0.8075,0.0,0.0,0.0,0.0,0.0,0.0,0.0,0.0,0.0,0.0,0.0,0.0,0.0,0.0,0.0,0.0,0.0,0.0,-0.489,-1.1094,-1.4774,-1.957,-2.7857,-2.8381,-2.7325,-2.6127,-2.4455,-2.3638,-2.3655,-2.4548,-2.4272,-2.2283,-2.2467,-2.1715,-2.0098,-2.0147,-1.8073,-1.3682,-0.9003,-0.6563,-0.6261,-0.6261,-0.6288,-0.6376,-0.7957,-0.8556,-0.82,-0.9458,-1.0212,-0.9969,-1.2077,-1.3304,-1.2983,-0.9653,-0.7139,-0.6871,-0.2594,0.0,0.0,0.0,0.0,0.0,0.0,0.0,0.0,0.4018,0.6337,0.7051,0.7139,0.7139,0.7139,0.7166,0.718,0.7207,0.7366,0.7564,0.8276,1.2373,1.4417,1.4364,1.1643,0.9019,1.1063,0.9505,0.9489,1.0186,1.2169,1.3437,1.4388,1.5082,1.5945,1.662,1.7201,1.7448,1.7549,1.7448,1.686,1.595,1.4033,1.22,1.0471,0.9114,0.8038,0.8038,0.8038,0.8038,0.8038,0.8038,0.8038,0.8038,0.8038,0.8038,0.8038,0.8038,0.8038,0.0,0.0,0.0,0.0,0.0,0.0,0.0,0.0,0.0,0.0,0.0,0.0,0.0,0.0,0.0,0.0,0.0,0.0,-0.4886,-1.2574,-1.3684,-1.9165,-2.6008,-2.6031,-2.4968,-2.4399,-2.4101,-2.3595,-2.3612,-2.3957,-2.3453,-2.2506,-2.1525,-2.0308,-1.8691,-1.8465,-1.7175,-1.4037,-0.8964,-0.6412,-0.649,-0.6335,-0.6373,-0.6634,-0.701,-0.7496,-0.7947,-0.9066,-1.0625,-1.2192,-1.3326,-1.4082,-1.3737,-0.9744,-0.7139,-0.6425,0.0,0.0,0.0,0.0,0.0,0.0,0.0,0.0,0.2592,0.5354,0.6959,0.7139,0.7139,0.7146,0.716,0.7248,0.7383,0.7587,0.7563,0.8367,1.0619,1.3588,1.5825,1.5534,1.437,1.2517,1.0164,0.9612,0.9769,1.0249,1.1444,1.3011,1.3972,1.5145,1.6179,1.6647,1.7141,1.7415,1.7582,1.7582,1.7402,1.6922,1.5338,1.3267,1.1346,0.9509,0.8531,0.8038,0.8038,0.8038,0.8038,0.8038,0.8038,0.8038,0.8038,0.8038,0.8038,0.8038,0.8038,0.0,0.0,0.0,0.0,0.0,0.0,0.0,0.0,0.0,0.0,0.0,0.0,0.0,0.0,0.0,0.0,0.0,0.0,0.0,-1.3024,-1.7466,-2.2539,-2.6479,-2.5688,-2.4455,-2.3767,-2.4496,-2.4918,-2.4694,-2.3794,-2.275,-2.1741,-2.0588,-1.8953,-1.7084,-1.6747,-1.5765,-1.3693,-1.0392,-0.8836,-0.8836,-0.7096,-0.65,-0.6647,-0.6617,-0.7126,-0.8002,-0.8078,-0.9194,-1.1387,-1.3144,-1.4088,-1.3652,-0.9657,-0.7228,-0.6874,-0.3484,0.0,0.0,0.0,0.0,0.0,0.0,0.0,0.2326,0.4999,0.7139,0.7139,0.7139,0.7207,0.7413,0.7869,0.8303,0.8573,0.8062,0.8855,1.1614,1.4592,1.6058,1.6025,1.5534,1.4364,1.0092,0.9786,0.9994,1.064,1.1424,1.2748,1.3819,1.519,1.6299,1.6774,1.7161,1.7462,1.7589,1.7589,1.7528,1.7204,1.6138,1.4101,1.177,0.983,0.9034,0.8247,0.8141,0.8038,0.8038,0.8038,0.8038,0.8038,0.8038,0.8038,0.8038,0.8038,0.8038,0.0,0.0,0.0,0.0,0.0,0.0,0.0,0.0,0.0,0.0,0.0,0.0,0.0,0.0,0.0,0.0,0.0,0.0,0.0,-1.2109,-1.9796,-2.6688,-2.7121,-2.679,-2.555,-2.4641,-2.5928,-2.6385,-2.5792,-2.403,-2.1728,-2.0092,-1.8895,-1.7586,-1.581,-1.5043,-1.3845,-1.2271,-1.0938,-1.0795,-1.0645,-0.8322,-0.6486,-0.6675,-0.6909,-0.72,-0.7495,-0.719,-0.747,-0.9289,-1.1986,-1.3178,-1.3039,-0.9657,-0.7401,-0.6691,-0.4639,-0.2325,0.0,0.0,0.0,0.0,0.0,0.0,0.0,0.4374,0.7139,0.7139,0.717,0.7346,0.7729,0.8734,0.9395,0.9548,0.8688,0.974,1.1943,1.5342,1.7128,1.6046,1.5838,1.4567,1.2619,1.0578,0.9604,1.0556,1.1341,1.2068,1.343,1.4807,1.5927,1.6921,1.7255,1.7542,1.7589,1.7589,1.7508,1.7251,1.633,1.4576,1.19,1.0181,0.9264,0.8656,0.8244,0.8038,0.8038,0.8038,0.8038,0.8038,0.8038,0.8038,0.8038,0.8038,0.8038,0.0,0.0,0.0,0.0,0.0,0.0,0.0,0.0,0.0,0.0,0.0,0.0,0.0,0.0,0.0,0.0,0.0,0.0,0.0,-0.4347,-1.9908,-2.5995,-2.6937,-2.6758,-2.6454,-2.6071,-2.6385,-2.6708,-2.6075,-2.3729,-2.054,-1.6949,-1.6921,-1.6051,-1.4403,-1.3512,-1.1983,-1.0045,-0.8613,-0.9437,-1.0968,-0.8449,-0.6447,-0.6712,-0.6898,-0.6967,-0.6993,-0.6801,-0.6884,-0.7412,-0.8402,-1.0611,-1.2522,-0.9918,-0.7573,-0.6691,-0.4996,-0.2681,0.0,0.0,0.0,0.0,0.0,0.0,0.0,0.4107,0.6602,0.7183,0.7353,0.7543,0.7811,0.9111,0.9942,1.0294,1.1385,1.2345,1.309,1.5555,1.6797,1.6266,1.5919,1.5553,1.4981,1.4088,1.2818,1.1356,1.0979,1.1487,1.2737,1.4223,1.5406,1.6416,1.7315,1.7569,1.7589,1.7555,1.7239,1.6932,1.6061,1.4612,1.2003,1.0528,0.973,0.8844,0.8141,0.8038,0.8038,0.8038,0.8038,0.8038,0.8045,0.8062,0.8072,0.8058,0.8041,0.0,0.0,0.0,0.0,0.0,0.0,0.0,0.0,0.0,0.0,0.0,0.0,0.0,0.0,0.0,0.0,0.0,0.0,0.0,0.0,-1.0842,-1.8302,-2.6387,-2.6708,-2.6708,-2.6691,-2.6708,-2.6811,-2.6037,-2.2662,-1.8557,-1.5421,-1.5255,-1.4751,-1.3738,-1.2732,-1.1316,-0.9372,-0.7403,-0.7476,-0.8623,-0.7821,-0.6715,-0.6878,-0.6983,-0.698,-0.6919,-0.6909,-0.6905,-0.6946,-0.7138,-0.9222,-1.2954,-1.1735,-0.957,-0.7132,-0.6065,-0.3395,-0.1166,-0.0449,0.0,0.0,0.0,0.0,0.0,0.2593,0.4819,0.6483,0.74,0.7655,0.7894,0.9875,1.0756,1.138,1.316,1.4592,1.4951,1.6367,1.7408,1.6794,1.6727,1.6526,1.6268,1.519,1.4286,1.2056,1.0386,1.0797,1.155,1.3019,1.4398,1.5576,1.6898,1.7549,1.7575,1.7417,1.6964,1.6425,1.5719,1.3901,1.1633,1.0723,1.0046,0.9101,0.8167,0.8045,0.8038,0.8038,0.8048,0.8069,0.8085,0.8106,0.8119,0.8123,0.8089,0.0,0.0,0.0,0.0,0.0,0.0,0.0,0.0,0.0,0.0,0.0,0.0,0.0,0.0,0.0,0.0,0.0,0.0,0.0,0.0,0.0,0.0,-2.3054,-2.7334,-2.7437,-2.6947,-2.69,-2.7058,-2.5062,-2.107,-1.7166,-1.5005,-1.445,-1.3947,-1.3455,-1.2659,-1.1323,-0.9296,-0.8461,-0.7096,-0.6976,-0.6937,-0.7061,-0.7095,-0.7471,-0.7298,-0.7186,-0.7102,-0.7119,-0.7139,-0.7746,-1.0265,-1.2693,-1.2948,-1.1649,-0.7228,-0.6871,-0.491,-0.1969,-0.1254,0.0,0.0,0.0,0.0,0.0,0.0,0.2949,0.5628,0.7451,0.775,0.8035,0.9853,1.1389,1.2191,1.4159,1.581,1.656,1.7141,1.7462,1.7502,1.7151,1.6836,1.5438,1.4027,1.3534,1.2833,1.1044,1.0006,1.0654,1.1326,1.2396,1.2866,1.3688,1.537,1.563,1.5664,1.5365,1.5196,1.4676,1.312,1.1216,1.0636,0.9912,0.9013,0.8309,0.8174,0.8058,0.8038,0.8055,0.8092,0.817,0.8238,0.8235,0.8197,0.8136,0.0,0.0,0.0,0.0,0.0,0.0,0.0,0.0,0.0,0.0,0.0,0.0,0.0,0.0,0.0,0.0,0.0,0.0,0.0,0.0,0.0,0.0,-2.4577,-2.8619,-2.8911,-2.7876,-2.7083,-2.5973,-2.3335,-1.9857,-1.6444,-1.3939,-1.4163,-1.4163,-1.2952,-1.2224,-1.1397,-1.0014,-0.9764,-0.8817,-0.7034,-0.7063,-0.7482,-0.7485,-0.7955,-0.7871,-0.7319,-0.7139,-0.7139,-0.7489,-1.0869,-1.2863,-1.2778,-1.0438,-0.8356,-0.7489,-0.7139,-0.5622,-0.3126,-0.2147,-0.1344,0.0,0.0,0.0,0.0,0.0,0.0,0.5686,0.7638,0.7963,0.8001,0.9677,1.0996,1.2122,1.3723,1.547,1.6104,1.684,1.7522,1.7569,1.7298,1.6507,1.447,1.2586,1.1325,1.0821,0.9846,0.8616,0.8435,0.8911,0.9497,0.9669,0.9689,1.1648,1.3264,1.3336,1.3214,1.3286,1.2874,1.2148,1.0702,1.0302,0.963,0.8769,0.8326,0.8248,0.8153,0.8065,0.8092,0.8147,0.8262,0.8387,0.8296,0.8211,0.817,0.0,0.0,0.0,0.0,0.0,0.0,0.0,0.0,0.0,0.0,0.0,0.0,0.0,0.0,0.0,0.0,0.0,0.0,0.0,0.0,0.0,-1.0521,-2.6267,-2.9074,-2.8669,-2.7354,-2.6037,-2.3645,-2.0621,-1.8967,-1.6428,-1.4593,-1.4386,-1.3665,-1.2659,-1.2305,-1.1774,-1.094,-1.0074,-0.8805,-0.7102,-0.7932,-0.878,-0.8873,-0.8208,-0.7948,-0.8025,-0.7316,-0.7749,-0.9314,-1.2174,-1.2345,-1.0611,-0.8698,-0.7051,-0.6962,-0.6959,-0.6065,-0.4103,-0.2948,-0.1968,0.0,0.0,0.0,0.0,0.0,0.0,0.6032,0.775,0.8038,0.8035,0.9299,1.0663,1.1948,1.3557,1.4989,1.609,1.6759,1.7215,1.7528,1.7114,1.5712,1.3075,1.1171,0.9303,0.8514,0.835,0.7633,0.683,0.7532,0.8241,0.8387,0.8766,0.9727,1.1298,1.138,1.1431,1.1559,1.1346,1.0549,0.9938,0.941,0.8999,0.8358,0.8194,0.8218,0.8163,0.8055,0.8126,0.8231,0.8367,0.8445,0.8313,0.8221,0.8204,0.0,0.0,0.0,0.0,0.0,0.0,0.0,0.0,0.0,0.0,0.0,0.0,0.0,0.0,0.0,0.0,0.0,0.0,0.0,0.0,0.0,-0.9996,-1.9836,-2.6949,-2.6491,-2.5807,-2.328,-2.0707,-1.8967,-1.8134,-1.7157,-1.5948,-1.4816,-1.3725,-1.3051,-1.2499,-1.2405,-1.1254,-0.8976,-0.721,-0.7636,-0.8789,-0.9881,-0.9995,-0.8372,-0.8124,-0.8544,-0.8189,-0.8703,-1.0086,-1.1214,-1.0961,-0.7746,-0.6248,-0.5714,-0.5711,-0.6068,-0.5262,-0.4194,-0.3126,-0.1973,0.0,0.0,0.0,0.0,0.0,0.2201,0.6628,0.7229,0.7434,0.7836,0.8627,0.9801,1.1409,1.2833,1.4552,1.6008,1.6927,1.7221,1.7226,1.6778,1.386,1.0194,0.8718,0.6681,0.698,0.6833,0.7232,0.6653,0.7718,0.8333,0.8374,0.856,0.8835,0.9435,0.9551,0.9796,1.0213,1.0103,0.965,0.8951,0.8386,0.8174,0.816,0.8089,0.8102,0.8065,0.8174,0.8404,0.8543,0.8564,0.8486,0.8333,0.8306,0.8323,0.0,0.0,0.0,0.0,0.0,0.0,0.0,0.0,0.0,0.0,0.0,0.0,0.0,0.0,0.0,0.0,0.0,0.0,0.0,0.0,0.0,0.0,-0.6837,-1.8495,-2.2704,-2.3208,-2.0384,-1.871,-1.8057,-1.8057,-1.8008,-1.7398,-1.6395,-1.548,-1.385,-1.2907,-1.2311,-1.1677,-0.8919,-0.7139,-0.7136,-0.7555,-0.7735,-0.7933,-0.8488,-0.9029,-0.9152,-0.9144,-0.9836,-1.0178,-0.8877,-0.7834,-0.6514,-0.2861,-0.1255,-0.1433,-0.2593,-0.3837,-0.3215,-0.2681,-0.1711,0.0,0.0,0.0,0.0,0.0,0.2114,0.7232,0.6121,0.5722,0.693,0.703,0.8014,0.9764,1.1686,1.3962,1.5914,1.7101,1.7382,1.567,1.4878,1.0099,0.5616,0.496,0.432,0.4824,0.5432,0.5937,0.6687,0.7763,0.8482,0.8543,0.8604,0.8855,0.893,0.8832,0.8869,0.9176,0.9035,0.8931,0.8564,0.8296,0.8241,0.8208,0.8116,0.8052,0.8058,0.8272,0.8676,0.8781,0.8699,0.8526,0.833,0.8357,0.8418,0.0,0.0,0.0,0.0,0.0,0.0,0.0,0.0,0.0,0.0,0.0,0.0,0.0,0.0,0.0,0.0,0.0,0.0,0.0,0.0,0.0,0.0,0.0,-1.3679,-2.0836,-2.0339,-1.8977,-1.8395,-1.8115,-1.8416,-1.873,-1.8437,-1.7162,-1.5708,-1.4576,-1.3404,-1.2916,-1.1775,-0.9335,-0.7298,-0.7139,-0.7139,-0.7139,-0.7228,-0.8719,-0.9501,-0.9932,-1.0529,-1.0616,-1.0351,-0.8356,-0.7139,-0.598,0.0,0.0,-0.018,-0.0897,-0.1522,-0.1522,-0.1701,-0.1082,0.0,0.0,0.0,0.0,0.0,0.0,0.3017,0.3917,0.4618,0.5722,0.5927,0.7163,0.8721,1.0113,1.2741,1.5002,1.6775,1.7081,1.496,1.2297,0.7458,0.3851,0.3934,0.4218,0.5024,0.5754,0.6388,0.7166,0.8027,0.855,0.8754,0.8815,0.892,0.8937,0.8896,0.8882,0.8984,0.8782,0.8703,0.8573,0.8418,0.8397,0.8292,0.8177,0.8126,0.8102,0.8204,0.8448,0.8628,0.8791,0.8591,0.8404,0.8418,0.8452,0.0,0.0,0.0,0.0,0.0,0.0,0.0,0.0,0.0,0.0,0.0,0.0,0.0,0.0,0.0,0.0,0.0,0.0,0.0,0.0,0.0,0.0,0.0,-1.0595,-1.6115,-1.909,-1.8519,-1.8066,-1.8054,-1.8161,-1.823,-1.8714,-1.6975,-1.575,-1.4947,-1.4358,-1.3945,-1.3144,-1.0768,-0.8694,-0.7401,-0.7139,-0.7921,-0.8694,-0.9548,-1.0144,-1.095,-1.0702,-1.0529,-1.1391,-0.8619,-0.7139,-0.6425,0.0,0.0,0.0,0.0,0.0,0.0,-0.0726,-0.0721,0.0,0.0,0.0,0.0,0.0,0.0,0.0,0.1712,0.3016,0.3917,0.4722,0.5338,0.6698,0.8393,1.1065,1.3303,1.4378,1.4278,1.1982,0.9068,0.5727,0.3222,0.362,0.4219,0.5227,0.6065,0.683,0.7536,0.8273,0.8554,0.876,0.8886,0.8937,0.8937,0.8937,0.8937,0.8893,0.8696,0.8621,0.8635,0.8642,0.8635,0.8489,0.8316,0.836,0.8431,0.8299,0.8201,0.8543,0.8781,0.8635,0.8516,0.8516,0.8503,0.0,0.0,0.0,0.0,0.0,0.0,0.0,0.0,0.0,0.0,0.0,0.0,0.0,0.0,0.0,0.0,0.0,0.0,0.0,0.0,0.0,0.0,0.0,0.0,-0.9557,-1.9645,-1.942,-1.8066,-1.7618,-1.6719,-1.6951,-1.7174,-1.6415,-1.5725,-1.5253,-1.5008,-1.4583,-1.4042,-1.2832,-1.0428,-0.8444,-0.7837,-0.9314,-1.1821,-1.1558,-1.095,-1.1986,-1.0524,-1.0529,-1.2693,-0.9657,-0.6419,-0.5262,-0.2237,0.0,0.0,0.0,0.0,0.0,0.0,0.0,0.0,0.0,0.0,0.0,0.0,0.0,0.0,0.0,0.1702,0.2604,0.3316,0.3709,0.4647,0.6121,0.7616,0.9597,1.0875,1.0492,0.8655,0.6083,0.3275,0.397,0.4591,0.4537,0.5441,0.6521,0.7298,0.7744,0.837,0.852,0.8696,0.8866,0.8933,0.8937,0.8937,0.8937,0.8937,0.8832,0.8821,0.8859,0.8859,0.8801,0.875,0.8615,0.8689,0.8706,0.8533,0.8486,0.8699,0.8747,0.8523,0.8509,0.855,0.855,0.0,0.0,0.0,0.0,0.0,0.0,0.0,0.0,0.0,0.0,0.0,0.0,0.0,0.0,0.0,0.0,0.0,0.0,0.0,0.0,0.0,0.0,0.0,0.0,-0.6968,-1.6895,-1.8227,-1.8008,-1.7841,-1.5956,-1.5146,-1.5218,-1.5448,-1.5751,-1.5574,-1.5028,-1.4531,-1.4372,-1.3737,-1.1735,-0.879,-1.0091,-1.1563,-1.1386,-1.1477,-1.0778,-1.1037,-1.0438,-1.0961,-1.1128,-0.9918,-0.7102,0.0,0.0,0.0,0.0,0.0,0.0,0.0,0.0,0.0,0.0,0.0,0.0,0.0,0.0,0.0,0.0,0.0,0.0,0.0991,0.1782,0.2478,0.3107,0.3965,0.5062,0.5987,0.7247,0.6805,0.4927,0.3695,0.184,0.36,0.5827,0.5734,0.5763,0.676,0.7667,0.8133,0.8387,0.854,0.8652,0.8811,0.8927,0.8937,0.8937,0.8937,0.8937,0.8937,0.8937,0.8937,0.893,0.8886,0.8872,0.8862,0.8845,0.8798,0.871,0.8638,0.8543,0.8448,0.8319,0.8391,0.8574,0.8635,0.0,0.0,0.0,0.0,0.0,0.0,0.0,0.0,0.0,0.0,0.0,0.0,0.0,0.0,0.0,0.0,0.0,0.0,0.0,0.0,0.0,0.0,0.0,0.0,-0.4073,-1.2295,-1.7106,-1.7794,-1.5867,-1.4692,-1.3831,-1.36,-1.4112,-1.4413,-1.4504,-1.4391,-1.4082,-1.4088,-1.3737,-1.2863,-1.0091,-1.1997,-1.2693,-1.0956,-0.9918,-1.0005,-1.0265,-1.0183,-1.0183,-1.0265,-0.9122,-0.6034,0.0,0.0,0.0,0.0,0.0,0.0,0.0,0.0,0.0,0.0,0.0,0.0,0.0,0.0,0.0,0.0,0.0,0.0,0.0,0.0795,0.1195,0.1713,0.1943,0.2798,0.2889,0.3582,0.2497,0.1277,0.0735,0.1369,0.4769,0.7142,0.7038,0.6947,0.7392,0.8115,0.8295,0.8547,0.8587,0.8682,0.8764,0.8862,0.8937,0.8937,0.8937,0.8937,0.8937,0.8937,0.8937,0.8937,0.8937,0.8913,0.8913,0.8933,0.8893,0.8815,0.8506,0.8174,0.8143,0.817,0.8496,0.8689,0.8675,0.0,0.0,0.0,0.0,0.0,0.0,0.0,0.0,0.0,0.0,0.0,0.0,0.0,0.0,0.0,0.0,0.0,0.0,0.0,0.0,0.0,0.0,0.0,0.0,0.0,0.0,-1.1037,-1.6358,-1.2973,-1.3325,-1.2523,-1.1735,-1.1975,-1.2486,-1.2492,-1.3548,-1.3997,-1.3997,-1.3652,-1.3646,-1.33,-1.3215,-1.1649,-1.0178,-0.8619,-0.8619,-0.9749,-0.9318,-0.9488,-1.0265,-0.8619,-0.5255,0.0,0.0,0.0,0.0,0.0,0.0,0.0,0.0,0.0,0.0,0.0,0.0,0.0,0.0,0.0,0.0,0.0,0.0,0.0,0.0,0.0,0.0,0.0,0.0,0.0,0.0,0.0,0.0,0.0,0.1764,0.5678,0.8364,0.8441,0.8434,0.8414,0.8564,0.8635,0.8625,0.8621,0.8747,0.8808,0.8859,0.8937,0.8937,0.8937,0.8937,0.8937,0.8937,0.8937,0.8937,0.8937,0.8937,0.8937,0.8937,0.8937,0.8923,0.8642,0.8381,0.8119,0.816,0.8407,0.8675,0.8752,0.0,0.0,0.0,0.0,0.0,0.0,0.0,0.0,0.0,0.0,0.0,0.0,0.0,0.0,0.0,0.0,0.0,0.0,0.0,0.0,0.0,0.0,0.0,0.0,0.0,0.0,-1.1008,-1.5799,-1.2466,-1.2092,-1.1571,-1.0778,-1.0265,-1.0433,-1.1037,-1.1563,-1.1214,-1.0438,-1.1997,-1.3997,-1.3652,-1.1305,-0.9309,-0.8356,-0.7489,-0.7925,-0.9231,-0.8364,-0.8707,-0.974,-0.8006,-0.4639,0.0,0.0,0.0,0.0,0.0,0.0,0.0,0.0,0.0,0.0,0.0,0.0,0.0,0.0,0.0,0.0,0.0,0.0,0.0,0.0,0.0,0.0,0.0,0.0,0.0,0.0,0.0,0.0,0.0,0.0,0.701,0.8555,0.8706,0.871,0.8676,0.8652,0.8699,0.8615,0.8581,0.8784,0.8896,0.8916,0.8937,0.8937,0.8937,0.8937,0.8937,0.8937,0.8937,0.8937,0.8937,0.8937,0.8937,0.8937,0.8937,0.8927,0.8869,0.8669,0.8397,0.8248,0.8496,0.8639,0.8676,0.0,0.0,0.0,0.0,0.0,0.0,0.0,0.0,0.0,0.0,0.0,0.0,0.0,0.0,0.0,0.0,0.0,0.0,0.0,0.0,0.0,0.0,0.0,0.0,0.0,0.0,-0.9288,-1.4307,-1.221,-1.0254,-0.9693,-0.9575,-0.8882,-0.8794,-0.9226,-0.9135,-0.8877,-0.8444,-1.0086,-1.1128,-1.0524,-0.9048,-0.7401,-0.7228,-0.7228,-0.7489,-0.7841,-0.7837,-0.7746,-0.8348,-0.6929,-0.4105,0.0,0.0,0.0,0.0,0.0,0.0,0.0,0.0,0.0,0.0,0.0387,0.0,0.0,0.0,0.0,0.0,0.0,0.0,0.0,0.0,0.0,0.0,0.0,0.0,0.0,0.0,0.0,0.0,0.0,0.0,0.7703,0.8247,0.8879,0.8855,0.8719,0.8798,0.8754,0.8655,0.8611,0.8801,0.893,0.8933,0.8937,0.8937,0.8937,0.8937,0.8937,0.8937,0.8937,0.8937,0.8937,0.8937,0.894,0.894,0.8937,0.8916,0.8893,0.8825,0.8662,0.8574,0.8574,0.8608,0.8692,0.0,0.0,0.0,0.0,0.0,0.0,0.0,0.0,0.0,0.0,0.0,0.0,0.0,0.0,0.0,0.0,0.0,0.0,0.0,0.0,0.0,0.0,0.0,0.0,0.0,0.0,-0.8094,-1.3741,-1.2024,-0.9262,-0.8257,-0.8452,-0.7925,-0.7661,-0.7661,-0.7661,-0.7489,-0.7573,-0.7834,-0.8615,-0.8185,-0.7661,-0.7139,-0.7139,-0.7139,-0.7228,-0.7316,-0.7048,-0.7051,-0.6596,-0.5082,-0.2592,0.0,0.0,0.0,0.0,0.0,0.0,0.1236,0.0589,0.089,0.1457,0.069,0.0,0.0,0.0,0.0,0.0,0.0,0.0,0.0,0.0,0.0,0.0,0.0,0.0,0.0,0.0,0.0,0.0,0.0,0.8042,0.8377,0.8937,0.8937,0.892,0.8889,0.8886,0.8828,0.8713,0.871,0.8842,0.8937,0.8937,0.8937,0.8937,0.8937,0.8937,0.8937,0.8937,0.8937,0.896,0.8998,0.9001,0.8957,0.894,0.8937,0.8947,0.8957,0.8889,0.8899,0.8757,0.8713,0.8675,0.8709,0.0,0.0,0.0,0.0,0.0,0.0,0.0,0.0,0.0,0.0,0.0,0.0,0.0,0.0,0.0,0.0,0.0,0.0,0.0,0.0,0.0,0.0,0.0,0.0,0.0,0.0,-0.7715,-1.2342,-1.2304,-0.9218,-0.7048,-0.7401,-0.7044,-0.6959,-0.7051,-0.7139,-0.7139,-0.7139,-0.7139,-0.7139,-0.7139,-0.7139,-0.7139,-0.7139,-0.7139,-0.7139,-0.7051,-0.634,-0.634,-0.6422,-0.4727,0.0,0.0,0.0,0.0,0.0,0.0,0.0463,0.1309,0.0669,0.0872,0.1934,0.0974,0.0,0.0,0.0,0.0,0.0,0.0,0.0,0.1282,0.1399,0.1305,0.1207,0.1104,0.0,0.0,0.0,0.0,0.3463,0.7033,0.8488,0.8826,0.8937,0.8937,0.8937,0.8937,0.8937,0.8913,0.8798,0.8774,0.8903,0.8937,0.8937,0.8937,0.8937,0.8937,0.8937,0.8937,0.8944,0.8957,0.8991,0.9059,0.9083,0.9062,0.9001,0.8937,0.8998,0.915,0.9218,0.9218,0.9015,0.8876,0.8843,0.8755,0.0,0.0,0.0,0.0,0.0,0.0,0.0,0.0,0.0,0.0,0.0,0.0,0.0,0.0,0.0,0.0,0.0,0.0,0.0,0.0,0.0,0.0,0.0,0.0,0.0,0.0,0.0,-0.8322,-0.9886,-0.8321,-0.5797,-0.6337,-0.6065,-0.6422,-0.6782,-0.7139,-0.7139,-0.7139,-0.7139,-0.7139,-0.7139,-0.7139,-0.7139,-0.7139,-0.7139,-0.7139,-0.6962,-0.5894,-0.5714,-0.5708,-0.3927,0.0,0.0,0.0,0.0,0.0,0.0,0.1543,0.2015,0.1879,0.2277,0.2488,0.0,0.0,0.0,0.0,0.0,0.0,0.0,0.2066,0.24,0.2628,0.2435,0.2235,0.19,0.1453,0.0,0.0,0.0,0.0,0.6584,0.8263,0.8937,0.8937,0.8937,0.8937,0.8937,0.8937,0.8937,0.8896,0.8866,0.8923,0.8937,0.8937,0.8937,0.8937,0.8937,0.8937,0.8937,0.8947,0.8967,0.9052,0.915,0.9181,0.9188,0.9181,0.9225,0.9306,0.9429,0.9479,0.949,0.9344,0.9191,0.9147,0.902,0.0,0.0,0.0,0.0,0.0,0.0,0.0,0.0,0.0,0.0,0.0,0.0,0.0,0.0,0.0,0.0,0.0,0.0,0.0,0.0,0.0,0.0,0.0,0.0,0.0,0.0,0.0,-0.4779,-0.623,-0.5888,-0.5442,-0.5359,-0.473,-0.4996,-0.6065,-0.6245,-0.5888,-0.5265,-0.6337,-0.7139,-0.7139,-0.7139,-0.7139,-0.7139,-0.7051,-0.7051,-0.6602,-0.5802,-0.4732,-0.4016,-0.2948,-0.1878,0.0,0.0,0.0,0.0,0.0,0.2792,0.2997,0.2963,0.401,0.37,0.0,0.0,0.0,0.0,0.0,0.0,0.0,0.2741,0.3305,0.3977,0.412,0.3465,0.2907,0.179,0.0,0.0,0.0,0.0,0.5248,0.7035,0.8937,0.8937,0.8937,0.8937,0.8937,0.8937,0.8937,0.8937,0.8954,0.895,0.894,0.894,0.8937,0.8937,0.8937,0.8937,0.8947,0.8981,0.9022,0.9127,0.9252,0.9344,0.9445,0.9554,0.9622,0.9632,0.9629,0.9686,0.9683,0.9635,0.9537,0.9405,0.9303,0.0,0.0,0.0,0.0,0.0,0.0,0.0,0.0,0.0,0.0,0.0,0.0,0.0,0.0,0.0,0.0,0.0,0.0,0.0,0.0,0.0,0.0,0.0,0.0,0.0,0.0,0.0,-0.2218,-0.518,-0.585,-0.58,-0.5447,-0.4643,-0.473,-0.4372,-0.4372,-0.3927,-0.295,-0.491,-0.6157,-0.6337,-0.6871,-0.7139,-0.7139,-0.7051,-0.6602,-0.598,-0.473,-0.4105,-0.3481,-0.1701,-0.0628,0.0,0.3395,0.3129,0.1345,0.2505,0.3517,0.429,0.432,0.4968,0.5508,0.4395,0.2155,0.0,0.0,0.0,0.0,0.207,0.3306,0.4335,0.524,0.5697,0.4803,0.3687,0.2014,0.0,0.0,0.0,0.0,0.0,0.5919,0.8042,0.8937,0.8937,0.8937,0.8937,0.8937,0.8937,0.8944,0.8991,0.8988,0.8947,0.894,0.894,0.8957,0.8967,0.8977,0.8991,0.9028,0.9089,0.9262,0.9439,0.9615,0.9747,0.9768,0.9768,0.9774,0.9791,0.9819,0.9805,0.9727,0.97,0.9595,0.9496,0.0,0.0,0.0,0.0,0.0,0.0,0.0,0.0,0.0,0.0,0.0,0.0,0.0,0.0,0.0,0.0,0.0,0.0,0.0,0.0,0.0,0.0,0.0,0.0,0.0,0.0,0.0,-0.1658,-0.4233,-0.6354,-0.6428,-0.5267,-0.4554,-0.3395,0.0,0.0,0.0,-0.0359,0.0,0.0,0.0,-0.5711,-0.6871,-0.7139,-0.6871,-0.6337,-0.5445,-0.4285,-0.3749,-0.1958,0.0713,0.2945,0.3931,0.5534,0.5531,0.4107,0.3855,0.4346,0.5341,0.582,0.5885,0.6397,0.6611,0.4458,0.3791,0.0,0.0,0.212,0.307,0.4344,0.5686,0.6599,0.6584,0.6019,0.4465,0.2908,0.0,0.0,0.0,0.0,0.3018,0.5919,0.7706,0.8937,0.8937,0.8937,0.8937,0.8937,0.8937,0.8944,0.8994,0.9018,0.8974,0.8947,0.8937,0.8974,0.9015,0.9025,0.9059,0.9184,0.931,0.9469,0.9639,0.9741,0.9805,0.9808,0.9815,0.9819,0.9819,0.9819,0.9812,0.9791,0.9774,0.9871,1.0144,0.0,0.0,0.0,0.0,0.0,0.0,0.0,0.0,0.0,0.0,0.0,0.0,0.0,0.0,0.0,0.0,0.0,0.0,0.0,0.0,0.0,0.0,0.0,0.0,0.0,0.0,0.0,0.0,-0.0946,-0.4323,-0.6337,-0.4819,-0.3127,0.0,0.0,0.0,0.0,0.0,0.0,0.0,0.0,-0.4374,-0.6068,-0.6782,-0.6602,-0.6068,-0.491,-0.4107,-0.3393,-0.0712,0.2756,0.5078,0.6157,0.6694,0.6782,0.5985,0.507,0.5896,0.6743,0.7105,0.7308,0.7614,0.7651,0.7145,0.6265,0.4453,0.2676,0.2665,0.3639,0.5357,0.6707,0.7607,0.7365,0.6571,0.4908,0.3242,0.0,0.0,0.0,0.0,0.0,0.0,0.67,0.8042,0.8598,0.8602,0.8826,0.8937,0.894,0.895,0.8981,0.9001,0.8991,0.8967,0.9049,0.9137,0.9242,0.9178,0.9239,0.9381,0.9513,0.9618,0.9707,0.9771,0.9819,0.9819,0.9819,0.9819,0.9819,0.9819,0.9815,0.9812,1.0048,1.0272,1.1,0.0,0.0,0.0,0.0,0.0,0.0,0.0,0.0,0.0,0.0,0.0,0.0,0.0,0.0,0.0,0.0,0.0,0.0,0.0,0.0,0.0,0.0,0.0,0.0,0.0,0.0,0.0,0.0,0.0,-0.4401,-0.6959,-0.6331,-0.4194,0.0,0.0,0.0,0.0,0.0,0.0,0.0,0.0,-0.3307,-0.5085,-0.5174,-0.4283,-0.3482,-0.2771,-0.2325,-0.1612,0.0536,0.3833,0.6334,0.7139,0.7139,0.7139,0.7115,0.6297,0.6755,0.75,0.7587,0.7719,0.7889,0.7634,0.6888,0.5158,0.2517,0.1557,0.1526,0.3013,0.5908,0.7368,0.8159,0.8146,0.6241,0.4462,0.2459,0.0,0.0,0.0,0.0,0.0,0.0,0.4693,0.6028,0.7362,0.77,0.8602,0.8716,0.8937,0.8954,0.8967,0.8984,0.8998,0.9323,0.9544,0.953,0.9571,0.9469,0.9401,0.951,0.9615,0.9713,0.9791,0.9812,0.9819,0.9819,0.9819,0.9819,0.9819,0.9819,0.9819,0.9819,1.0179,1.0778,1.1736]}]]